     2.11           OBSERVATION DATA    G (GPS)             RINEX VERSION / TYPE
teqc 2010Oct21 OPUS Account 20111029 19:15:48UTC            PGM / RUN BY / DATE
M 1522                                                      MARKER NAME
1167                                                        MARKER NUMBER
CSMIDDLETON NGS                                             OBSERVER / AGENCY
0220320676 TRIMBLE 5700 1.30                                REC # / TYPE / VERS
12518007 TRM41249.00 NONE                                   ANT # / TYPE
  -739524.7230 -5498084.4287  3136833.1314                  APPROX POSITION XYZ
        2.0000        0.0000        0.0000                  ANTENNA: DELTA H/E/N
     1     1                                                WAVELENGTH FACT L1/2
     5    L1    L2    C1    P1    P2                        # / TYPES OF OBSERV
    15                                                      LEAP SECONDS
  2011     9    24     0     0   30.0000000     GPS         TIME OF FIRST OBS
                                                            END OF HEADER
 11  9 24  0  0 30.0000000  0  9G29G12G02G30G15G10G05G25G26
 -15577828.40657 -12126305.03453  22284259.6414                   22284260.9384
 -26018396.02358 -20259665.04754  21686455.2344                   21686455.7154
 -30617687.99657 -23842921.91454  21659224.0164                   21659222.2234
 -12022843.59057  -9354867.29253  22646219.8284                   22646222.2424
  -1320304.34016                  24377076.945
 -16906962.11316                  23852244.867
 -31457458.54358 -24497166.84955  20361542.1884                   20361542.0434
 -22844074.74658 -17785512.67954  21534670.2424                   21534672.6174
  -8657298.80557  -6732483.16052  23446347.1174                   23446351.8484
 11  9 24  0  1  0.0000000  0  9G29G12G02G30G15G10G05G25G26
 -15680014.47347 -12205930.50843  22264813.5944                   22264815.0004
 -25969033.19547 -20221200.54244  21695848.5554                   21695849.5164
 -30598383.81647 -23827879.76744  21662897.6644                   21662896.0234
 -12070741.24647  -9392190.03543  22637105.1884                   22637105.4224
  -1437735.523 6                  24354730.578
 -16822003.867 6                  23868410.734
 -31449891.56648 -24491270.48845  20362982.2344                   20362981.8794
 -22850832.77048 -17790778.62544  21533384.3284                   21533387.1374
  -8773821.09447  -6823279.64142  23424173.7424                   23424177.4144
 11  9 24  0  1 30.0000000  0  9G29G12G02G30G15G10G05G25G26
 -15782066.69547 -12285451.68343  22245393.5554                   22245394.5394
 -25919273.79347 -20182426.99643  21705317.5314                   21705318.5594
 -30578966.40247 -23812749.30544  21666592.9534                   21666591.0514
 -12118039.75847  -9429046.00743  22628104.4384                   22628106.0164
  -1555242.883 6                  24332369.531
 -16736906.320 6                  23884605.250
 -31441804.23448 -24484968.65645  20364521.1954                   20364521.0824
 -22857009.86748 -17795591.95844  21532208.6254                   21532211.8634
  -8890211.55947  -6913973.33143  23402025.3524                   23402028.0394
 11  9 24  0  2  0.0000000  0  9G29G12G02G30G15G10G05G25G26
 -15883985.76247 -12364869.00043  22225999.0164                   22226000.5704
 -25869123.18447 -20143348.62343  21714860.9844                   21714862.3094
 -30559438.40647 -23797532.70644  21670308.5784                   21670306.6214
 -12164741.39147  -9465436.82043  22619217.4534                   22619219.2384
  -1672826.55546  -1289916.38153  24309993.6954                   24309999.0904
 -16651674.656 6                  23900823.977
 -31433200.55548 -24478264.48644  20366158.0084                   20366157.9024
 -22862609.68748 -17799955.42144  21531143.1484                   21531145.9384
  -9006469.17647  -7004563.52742  23379901.3444                   23379905.1094
 11  9 24  0  2 30.0000000  0  9G29G12G02G30G15G10G05G25G26
 -15985768.41447 -12444180.10043  22206630.6414                   22206630.8284
 -25818582.53947 -20103966.36843  21724478.3674                   21724479.1764
 -30539798.42247 -23782228.77743  21674045.8524                   21674044.1254
 -12210844.23447  -9501361.07243  22610443.8134                   22610445.4224
  -1790482.60246  -1381596.07243  24287604.6564                   24287609.8754
 -16566310.17246 -12895318.24853  23917068.9774                   23917070.7074
 -31424081.23448 -24471158.48645  20367893.7194                   20367893.4184
 -22867631.98048 -17803868.84544  21530187.9224                   21530190.1644
  -9122589.121 6                  23357804.758
 11  9 24  0  3  0.0000000  0  9G29G12G02G30G15G10G05G25G26
 -16087411.26247 -12523382.23443  22187288.6884                   22187289.7774
 -25767653.81248 -20064281.65544  21734169.9384                   21734170.1334
 -30520045.85247 -23766837.14744  21677804.4384                   21677803.1524
 -12256346.89847  -9536817.58943  22601785.4384                   22601787.7114
  -1908207.26247  -1473329.31443  24265201.5634                   24265206.6484
 -16480814.246 6                  23933336.875
 -31414446.74648 -24463651.06145  20369727.0164                   20369726.3714
 -22872076.75448 -17807332.30344  21529342.0234                   21529344.0084
  -9238566.84047  -7185418.47553  23335734.6484                   23335736.8754
 11  9 24  0  3 30.0000000  0  9G29G12G02G30G15G10G05G25G26
 -16188912.69947 -12602474.22643  22167973.3444                   22167974.1254
 -25716339.74248 -20024296.73044  21743934.7274                   21743935.2384
 -30500180.68747 -23751357.79343  21681584.7504                   21681583.2734
 -12301249.25447  -9571806.56943  22593240.5314                   22593241.7424
  -2025998.29747  -1565113.88453  24242786.7194                   24242791.7734
 -16395189.812 6                  23949631.805
 -31404299.06248 -24455743.76145  20371657.8364                   20371657.8554
 -22875945.41048 -17810346.77944  21528605.4304                   21528608.0434
  -9354398.59447  -7275676.78143  23313692.3674                   23313694.3834
 11  9 24  0  4  0.0000000  0  9G29G12G02G30G15G10G05G25G26
 -16290269.11347 -12681453.09043  22148685.8984                   22148686.2894
 -25664641.46147 -19984012.37643  21753772.7504                   21753773.7194
 -30480201.21147 -23735789.35543  21685386.6174                   21685384.6024
 -12345549.38347  -9606326.02943  22584810.6094                   22584812.2734
  -2143851.14147  -1656947.13843  24220360.0084                   24220365.5354
 -16309437.844 6                  23965949.359
 -31393638.41848 -24447436.76645  20373686.7114                   20373685.8754
 -22879237.54348 -17812912.09344  21527979.3674                   21527981.4304
  -9470079.70747  -7365817.78643  23291679.6024                   23291681.4264
 11  9 24  0  4 30.0000000  0  9G29G12G02G30G15G10G05G25G26
 -16391481.79747 -12760320.02343  22129425.7734                   22129426.4774
 -25612565.75048 -19943433.99044  21763681.9454                   21763682.8834
 -30460111.25447 -23720134.82643  21689209.7894                   21689208.6134
 -12389250.43747  -9640378.87343  22576494.1724                   22576496.3874
  -2261766.72347  -1748828.72143  24197920.7194                   24197926.1884
 -16223564.387 6                  23982291.133
 -31382470.25048 -24438734.29545  20375811.7974                   20375811.3054
 -22881957.82048 -17815031.76244  21527461.6254                   21527464.3714
  -9585609.67247  -7455840.95243  23269694.6334                   23269696.9694
 11  9 24  0  5  0.0000000  0  9G29G12G02G30G15G10G05G25G26
 -16492545.61347 -12839071.01543  22110193.7894                   22110194.3284
 -25560111.85548 -19902560.85043  21773663.9224                   21773664.3164
 -30439907.23047 -23704391.45043  21693054.7424                   21693053.0204
 -12432348.66047  -9673961.84143  22568292.8674                   22568294.8874
  -2379738.77347  -1840754.57643  24175471.2894                   24175475.6414
 -16137568.504 6                  23998655.375
 -31370792.93448 -24429635.06245  20378033.9924                   20378033.6214
 -22884104.02348 -17816704.10644  21527053.0314                   21527055.9454
  -9700981.60947  -7545740.93943  23247739.9844                   23247741.9734
 11  9 24  0  5 30.0000000  0  9G29G12G02G30G15G10G05G25G26
 -16593459.04347 -12917704.73743  22090990.0864                   22090990.3364
 -25507283.81248 -19861396.21444  21783716.9144                   21783717.3914
 -30419590.49647 -23688560.22343  21696920.8204                   21696918.6484
 -12474845.05147  -9707075.81643  22560206.2734                   22560208.3134
  -2497766.16847  -1932723.93143  24153010.8914                   24153017.9104
 -16051453.922 6                  24015042.102
 -31358609.27348 -24420141.28645  20380352.5474                   20380351.9264
 -22885678.57048 -17817930.99544  21526753.5394                   21526755.8244
  -9816192.98847  -7635516.04043  23225815.5634                   23225819.4304
 11  9 24  0  6  0.0000000  0  9G29G12G02G30G15G10G05G25G26
 -16694221.97747 -12996221.21043  22071815.8914                   22071817.0944
 -25454085.30548 -19819942.78243  21793840.0944                   21793840.6024
 -30399162.03947 -23672641.94343  21700808.2344                   21700806.8324
 -12516740.43447  -9739721.58543  22552234.1564                   22552235.7584
  -2615846.97346  -2024734.40553  24130540.1724                   24130544.7234
 -15965224.227 6                  24031451.063
 -31345922.36348 -24410255.35644  20382766.6564                   20382766.2584
 -22886683.80548 -17818714.27344  21526562.0474                   21526564.5514
  -9931241.27047  -7725163.73143  23203922.4844                   23203926.5164
 11  9 24  0  6 30.0000000  0  9G29G12G02G30G15G10G05G25G26
 -16794830.72347 -13074617.45943  22052670.6024                   22052671.4924
 -25400518.25048 -19778202.28544  21804033.8134                   21804034.8404
 -30378620.99647 -23656635.93243  21704717.2974                   21704715.3554
 -12558033.52047  -9771898.06143  22544376.0164                   22544377.7234
  -2733977.63746  -2116783.96542  24108060.4224                   24108065.3444
 -15878880.89846 -12359663.26252  24047881.5944                   24047884.0124
 -31332733.16048 -24399978.03245  20385276.5004                   20385276.6454
 -22887119.98848 -17819054.17644  21526479.0084                   21526481.1174
 -10046122.05547  -7814681.15743  23182061.5704                   23182064.0784
 11  9 24  0  7  0.0000000  0  9G29G12G02G30G15G10G05G25G26
 -16895285.25847 -13152893.67043  22033554.3594                   22033555.3244
 -25346587.23048 -19736178.20943  21814296.6954                   21814297.8984
 -30357969.41047 -23640543.75443  21708647.1094                   21708645.5234
 -12598726.20747  -9803606.54943  22536632.1484                   22536633.4024
  -2852157.555 6                  24085570.891
 -15792428.406 6                  24064333.109
 -31319045.47748 -24389312.28844  20387881.3054                   20387880.6454
 -22886990.38748 -17818953.14544  21526503.8284                   21526506.5664
 -10160833.40647  -7904066.32743  23160232.8754                   23160236.0164
 11  9 24  0  7 30.0000000  0  9G29G12G02G30G15G10G05G25G26
 -16995579.97747 -13231045.24943  22014469.1804                   22014470.3014
 -25292291.92648 -19693870.13643  21824628.5704                   21824629.2544
 -30337203.38347 -23624362.48343  21712598.5234                   21712596.7464
 -12638814.62947  -9834844.25443  22529003.8594                   22529005.6884
  -2970380.25445  -2300992.85252  24063074.0004                   24063081.3244
 -15705865.758 6                  24080805.133
 -31304857.09048 -24378256.37545  20390581.1954                   20390580.8444
 -22886292.77048 -17818409.55544  21526636.6804                   21526639.6524
 -10275368.13747  -7993314.10853  23138437.2424                   23138440.4454
 11  9 24  0  8  0.0000000  0  9G29G12G02G30G15G10G05G25G26
 -17095714.40247 -13309071.99243  21995414.0314                   21995414.6994
 -25237636.65248 -19651281.67843  21835029.0864                   21835029.8594
 -30316324.59047 -23608093.22643  21716571.3834                   21716570.1454
 -12678300.32047  -9865612.26643  22521490.0474                   22521491.5744
  -3088644.473 6                  24040568.367
 -15619196.937 6                  24097298.609
 -31290171.85948 -24366813.35344  20393375.7424                   20393375.5944
 -22885030.10548 -17817425.68444  21526876.5004                   21526879.4654
 -10389724.37547  -8082422.65043  23116675.5554                   23116679.8054
 11  9 24  0  8 30.0000000  0  9G29G12G02G30G15G10G05G25G26
 -17195684.95347 -13386971.02743  21976390.1094                   21976390.4844
 -25182622.32448 -19608413.42044  21845498.2344                   21845498.7544
 -30295331.46147 -23591735.05943  21720566.4694                   21720565.1214
 -12717181.50047  -9895909.28943  22514090.7194                   22514092.1604
  -3206945.86346  -2485329.07852  24018057.0784                   24018067.4574
 -15532422.727 6                  24113810.266
 -31274990.36348 -24354983.60745  20396264.7504                   20396264.3674
 -22883201.97748 -17816001.18244  21527224.8204                   21527226.9454
 -10503896.51247  -8171387.88143  23094949.5864                   23094951.5204
 11  9 24  0  9  0.0000000  0  9G29G12G02G30G15G10G05G25G26
 -17295488.67647 -13464740.04843  21957398.0704                   21957398.9224
 -25127251.52048 -19565267.34043  21856035.0394                   21856035.1844
 -30274223.63747 -23575287.27943  21724583.3594                   21724581.6524
 -12755457.69947  -9925734.87043  22506806.6804                   22506808.7974
  -3325281.38346  -2577538.10653  23995537.7664                   23995543.5434
 -15445545.246 6                  24130343.141
 -31259314.01648 -24342768.23745  20399247.6174                   20399247.0434
 -22880809.55548 -17814136.98244  21527679.8914                   21527682.8364
 -10617880.82447  -8260206.61243  23073258.8284                   23073261.3164
 11  9 24  0  9 30.0000000  0  9G29G12G02G30G15G10G05G25G26
 -17395126.33247 -13542379.70143  21938437.9304                   21938438.4104
 -25071529.67648 -19521847.81343  21866638.2584                   21866639.5594
 -30253003.39547 -23558752.07143  21728620.8284                   21728620.0084
 -12793131.30147  -9955090.88643  22499638.2664                   22499639.2734
  -3443650.46146  -2669773.65343  23973012.5704                   23973018.6804
 -15358569.422 6                  24146894.000
 -31243146.97348 -24330170.52344  20402324.2344                   20402323.5944
 -22877856.57448 -17811835.95644  21528241.6094                   21528244.4884
 -10731675.79747  -8348877.86043  23051604.8594                   23051606.5824
 11  9 24  0 10  0.0000000  0  9G29G12G02G30G15G10G05G25G26
 -17494596.65647 -13619889.00743  21919508.9924                   21919509.7074
 -25015460.60948 -19478157.64543  21877307.8834                   21877308.4694
 -30231671.94947 -23542130.18443  21732680.5554                   21732678.9574
 -12830203.18047  -9983978.05843  22492583.7114                   22492585.7854
  -3562051.70347  -2762033.85843  23950481.4454                   23950486.7234
 -15271498.574 6                  24163462.859
 -31226491.93748 -24317192.56644  20405493.6254                   20405492.9064
 -22874345.39848 -17809100.04044  21528910.2344                   21528913.0004
 -10845278.87547  -8437399.66543  23029986.2894                   23029988.4774
 11  9 24  0 10 30.0000000  0  9G29G12G02G30G15G10G05G25G26
 -17593896.66447 -13697265.54944  21900612.7734                   21900613.0084
 -24959046.58248 -19434198.71844  21888043.3914                   21888043.9384
 -30210228.43747 -23525420.89343  21736761.1724                   21736760.1994
 -12866672.85547 -10012395.86743  22485643.6644                   22485645.3914
  -3680481.52347  -2854316.42043  23927945.0234                   23927948.6054
 -15184334.609 6                  24180050.000
 -31209350.89548 -24303835.88145  20408755.7274                   20408754.7814
 -22870277.12548 -17805929.96244  21529684.1884                   21529687.3054
 -10958685.91447  -8525768.66953  23008405.9534                   23008411.4574
 11  9 24  0 11  0.0000000  0  9G29G12G02G30G15G10G05G25G26
 -17693021.86747 -13774505.94143  21881750.1804                   21881750.1174
 -24902288.09848 -19389971.33143  21898844.3524                   21898844.8954
 -30188670.38347 -23508622.45743  21740863.7424                   21740861.8524
 -12902537.97347 -10040342.70843  22478818.9384                   22478819.7424
  -3798934.55947  -2946617.25343  23905403.7894                   23905407.9224
 -15097077.488 6                  24196655.031
 -31191723.10548 -24290099.91245  20412109.7194                   20412109.1484
 -22865650.68048 -17802324.94544  21530564.6254                   21530566.9614
 -11071890.86347  -8613980.15653  22986863.3054                   22986866.4494
 11  9 24  0 11 30.0000000  0  9G29G12G02G30G15G10G05G25G26
 -17791971.28547 -13851609.33643  21862920.3364                   21862920.7894
 -24845189.01248 -19345478.60744  21909709.8754                   21909710.6134
 -30166998.90247 -23491735.60443  21744987.4064                   21744985.5274
 -12937799.64147 -10067819.39343  22472108.8524                   22472111.3404
  -3917409.41847  -3038934.98343  23882858.8444                   23882863.4024
 -15009730.578 6                  24213276.008
 -31173611.51248 -24275986.97644  20415556.2504                   20415555.8094
 -22860468.78148 -17798287.11844  21531550.7734                   21531552.8984
 -11184890.95446  -8702032.22343  22965359.8524                   22965363.0084
 11  9 24  0 12  0.0000000  0  9G29G12G02G30G15G10G05G25G26
 -17890744.91847 -13928575.73743  21844124.1804                   21844125.0984
 -24787754.17248 -19300724.26243  21920639.3364                   21920640.4774
 -30145215.53548 -23474761.55943  21749132.5234                   21749131.3444
 -12972459.64847 -10094827.10643  22465513.4304                   22465515.1524
  -4035904.98047  -3131268.81943  23860309.2194                   23860314.5944
 -14922298.203 6                  24229913.883
 -31155019.92648 -24261500.01544  20419093.9694                   20419094.1524
 -22854734.61348 -17793818.97644  21532641.7424                   21532643.9614
 -11297684.33647  -8789922.88943  22943895.5234                   22943899.2774
 11  9 24  0 12 30.0000000  0  9G29G12G02G30G15G10G05G25G26
 -16413916.03148 -12777799.91043  22125155.4144                   22125155.5944
 -23154567.62148 -18028111.33344  22231424.4844                   22231425.1484
 -28547900.35248 -22230100.35443  22053091.5084                   22053088.9774
 -11431096.35247  -8893764.69643  22758825.0084                   22758826.4144
  -2578993.83246  -1996013.17943  24137549.6414                   24137554.5864
 -13259364.945 6                  24546360.172
 -29560530.49648 -23019040.69644  20722515.2814                   20722515.0744
 -21273029.23448 -16561321.29343  21833630.4384                   21833633.4224
  -9834842.84447  -7650046.11243  23222265.3134                   23222267.8134
 11  9 24  0 13  0.0000000  0  9G29G12G02G30G15G10G05G25G26
 -16512328.53947 -12854484.90243  22106428.4534                   22106428.3364
 -23096468.02747 -17982838.97343  22242480.3754                   22242480.9654
 -28525891.12148 -22212950.30543  22057279.6724                   22057277.9494
 -11464551.33247  -8919833.52043  22752458.6414                   22752460.0124
  -2697520.00446  -2088370.76353  24114995.1414                   24114998.6764
 -13171766.629 6                  24563029.508
 -29540983.09048 -23003808.96645  20726235.1024                   20726234.9964
 -21266193.14548 -16555994.48544  21834931.0944                   21834933.9384
  -9947209.45347  -7737604.38343  23200882.6334                   23200884.2114
 11  9 24  0 13 30.0000000  0  9G29G12G02G30G15G10G05G25G26
 -16610557.76647 -12931027.17043  22087735.3444                   22087735.6294
 -23038040.94548 -17937311.44743  22253598.4694                   22253599.3134
 -28503769.27347 -22195712.49544  22061489.3754                   22061487.9694
 -11497404.41447  -8945433.28943  22746206.9534                   22746208.1214
  -2816057.96946  -2180737.74652  24092437.1954                   24092436.6914
 -13084089.340 6                  24579713.938
 -29520960.94148 -22988207.26844  20730045.0394                   20730044.6644
 -21258808.85548 -16550240.48044  21836336.2584                   21836339.5044
 -10059357.56247  -7824992.43643  23179541.4774                   23179543.4414
 11  9 24  0 14  0.0000000  0  9G29G12G02G30G15G10G05G25G26
 -16708599.84847 -13007423.49044  22069078.6414                   22069078.9414
 -22979287.19947 -17891529.31743  22264779.4064                   22264780.1914
 -28481533.10948 -22178385.67443  22065720.9384                   22065719.8984
 -11529654.10947  -8970562.98143  22740070.0394                   22740071.0594
  -2934602.86746  -2273110.02343  24069879.1484                   24069880.5824
 -12996333.711 6                  24596412.969
 -29500464.63748 -22972236.10044  20733945.5474                   20733945.0784
 -21250876.41848 -16544059.34544  21837846.2734                   21837849.5904
 -10171282.06647  -7912206.19843  23158241.9384                   23158244.5204
 11  9 24  0 14 30.0000000  0  9G29G12G02G30G15G10G05G25G26
 -16806453.95747 -13083673.39843  22050457.8594                   22050458.4024
 -22920211.07847 -17845495.96543  22276020.9694                   22276021.9144
 -28459183.91047 -22160970.70543  22069973.9144                   22069972.4534
 -11561302.13747  -8995223.76343  22734047.4144                   22734048.8874
  -3053153.42646  -2365486.91353  24047319.4224                   24047322.0274
 -12908503.637 5                  24613126.141
 -29479497.95347 -22955898.41444  20737934.9844                   20737934.4144
 -21242398.82848 -16537453.48644  21839459.0314                   21839462.9614
 -10282980.44147  -7999243.74643  23136987.0234                   23136989.5434
 11  9 24  0 15  0.0000000  0  9G29G12G02G30G15G10G05G25G26
 -16904116.41847 -13159774.01544  22031873.0784                   22031873.4884
 -22860814.48047 -17799213.03043  22287323.8524                   22287324.4184
 -28436720.15647 -22143466.40743  22074248.2194                   22074246.7034
 -11592347.12947  -9019414.62143  22728139.7584                   22728141.3134
  -3171705.34846  -2457864.73943  24024759.9454                   24024763.0554
 -12820599.793 6                  24629854.227
 -29458061.20747 -22939194.44044  20742014.7664                   20742014.2624
 -21233376.32848 -16530422.94244  21841176.1724                   21841179.0554
 -10394447.55147  -8086101.08543  23115775.6174                   23115776.6884
 11  9 24  0 15 30.0000000  0  9G29G12G02G30G15G10G05G25G26
 -17001585.92647 -13235724.17444  22013325.0474                   22013325.2704
 -22801101.41448 -17752683.35743  22298686.8834                   22298687.1174
 -28414142.51647 -22125873.51743  22078545.0474                   22078542.7464
 -11622790.28947  -9043136.58643  22722346.6414                   22722348.0984
  -3290256.54747  -2550241.81353  24002199.4844                   24002200.5554
 -12732625.594 6                  24646594.797
 -29436157.62948 -22922126.68044  20746182.5944                   20746181.3204
 -21223811.44547 -16522969.77344  21842996.3674                   21842998.6024
 -10505680.63347  -8172776.05543  23094608.5164                   23094609.8164
 11  9 24  0 16  0.0000000  0  9G29G12G02G30G15G10G05G25G26
 -17098861.28547 -13311523.04644  21994814.3524                   21994814.5864
 -22741075.61747 -17705909.97843  22310109.5084                   22310109.7034
 -28391451.94948 -22108192.52643  22082862.5394                   22082861.0004
 -11652633.02747  -9066390.63543  22716667.9384                   22716669.7154
  -3408805.16847  -2642617.47342  23979640.9844                   23979644.4454
 -12644584.293 6                  24663348.789
 -29413789.85248 -22904697.22744  20750439.1334                   20750438.8364
 -21213706.99648 -16515096.15744  21844919.0234                   21844921.1484
 -10616676.92247  -8259266.60143  23073486.2734                   23073487.8714
 11  9 24  0 16 30.0000000  0  9G29G12G02G30G15G10G05G25G26
 -17195938.47348 -13387167.57443  21976341.3524                   21976341.3244
 -22680737.99647 -17658893.72143  22321591.3134                   22321592.2584
 -28368646.23047 -22090421.79543  22087202.6724                   22087201.3164
 -11681873.72747  -9089175.60043  22711103.2274                   22711104.8164
  -3527346.25047  -2734986.84353  23957083.2424                   23957087.0434
 -12556476.266 6                  24680114.516
 -29390958.41448 -22886906.46344  20754783.6884                   20754783.0274
 -21203062.77348 -16506801.97044  21846944.6094                   21846947.1884
 -10727430.91846  -8345568.14043  23052410.4534                   23052411.9454
 11  9 24  0 17  0.0000000  0 10G29G12G02G30G15G10G05G25G26G21
 -17292817.46548 -13462657.60944  21957905.8054                   21957906.0314
 -22620093.94947 -17611638.61743  22333131.6644                   22333132.7774
 -28345727.80547 -22072563.30043  22091563.6484                   22091561.3364
 -11710514.96147  -9111493.39843  22705653.2034                   22705654.6764
  -3645879.76247  -2827350.29943  23934526.7424                   23934529.9454
 -12468306.121 6                  24696893.320
 -29367667.52748 -22868757.70744  20759215.7734                   20759214.5784
 -21191882.80148 -16498090.29844  21849072.1094                   21849075.1334
 -10837941.24247  -8431680.00843  23031380.8914                   23031382.1914
   1458908.14116                  25290842.438
 11  9 24  0 17 30.0000000  0  9G29G12G02G30G15G05G25G26G21
 -17389500.43047 -13537994.87143  21939507.8594                   21939507.4224
 -22559151.01647 -17564150.72643  22344728.5944                   22344728.7544
 -28322701.14847 -22054620.39943  22095945.0944                   22095943.6844
 -11738561.70347  -9133347.94343  22700316.1954                   22700316.3164
  -3764406.94547  -2919708.96942  23911971.4694                   23911974.3484
 -29343923.74647 -22850256.06644  20763734.0314                   20763733.7304
 -21180173.46548 -16488966.10944  21851300.3054                   21851303.5984
 -10948208.46147  -8517602.35743  23010397.8594                   23010399.5394
   1379495.363 6                  25275730.320
 11  9 24  0 18  0.0000000  0  9G29G12G02G30G15G05G25G26G21
 -17485990.13747 -13613181.57044  21921146.1884                   21921146.3594
 -22497916.53147 -17516435.52843  22356381.2344                   22356382.1804
 -28299570.91047 -22036596.88643  22100347.1174                   22100345.5394
 -11766019.12947  -9154743.28943  22695091.0554                   22695092.7734
  -3882930.15646  -3012064.50243  23889417.2344                   23889419.3524
 -29319734.41447 -22831407.21344  20768337.3364                   20768337.3444
 -21167941.38348 -16479434.63244  21853628.0704                   21853630.5744
 -11058233.98847  -8603336.37143  22989460.2974                   22989461.7384
   1300098.230 6                  25260621.070
 11  9 24  0 18 30.0000000  0  9G29G12G02G30G15G05G25G26G21
 -17582274.38747 -13688208.19044  21902823.6094                   21902824.0634
 -22436384.39847 -17468488.48543  22368090.5474                   22368091.1334
 -28276327.05147 -22018484.76643  22104770.3524                   22104768.8954
 -11792877.81247  -9175672.09543  22689980.2894                   22689980.5904
  -4001436.32446  -3104406.47043  23866865.6254                   23866867.7934
 -29295091.59448 -22812204.97345  20773026.6414                   20773026.0084
 -21155178.41048 -16469489.51744  21856056.5474                   21856058.7504
 -11168004.14847  -8688871.29843  22968571.6724                   22968573.3014
   1220726.379 5                  25245517.273
 11  9 24  0 19  0.0000000  0  9G29G12G02G30G15G05G25G26G21
 -17678343.35547 -13763067.01243  21884542.1564                   21884543.0084
 -22374549.70747 -17420305.69043  22379857.3984                   22379858.1214
 -28252961.55147 -22000277.91143  22109216.5864                   22109214.5394
 -11819130.50447  -9196128.66243  22684984.3674                   22684985.1884
  -4119914.57046  -3196727.02253  23844319.3284                   23844321.6564
 -29269989.75848 -22792645.13444  20777803.2274                   20777802.5354
 -21141878.78948 -16459126.14844  21858587.4774                   21858590.4844
 -11277507.39147  -8774198.45043  22947733.3834                   22947735.7344
   1141387.121 6                  25230419.078
 11  9 24  0 19 30.0000000  0  9G29G12G02G30G15G05G25G26G21
 -17774194.25447 -13837755.94244  21866302.2734                   21866302.7034
 -22312414.69948 -17371888.79943  22391681.0474                   22391681.8164
 -28229474.01647 -21981975.88243  22113685.7114                   22113683.8134
 -11844777.23047  -9216113.13643  22680103.9694                   22680105.1724
  -4238361.76646  -3289023.55943  23821779.6644                   23821782.3404
 -29244430.75848 -22772728.96244  20782666.8444                   20782666.4694
 -21128043.87548 -16448345.70044  21861219.9534                   21861222.7234
 -11386739.74647  -8859314.59743  22926947.7814                   22926949.9534
   1062080.398 6                  25215328.156
 11  9 24  0 20  0.0000000  0  9G29G12G02G30G15G05G25G26G21
 -17869828.67247 -13912276.13744  21848103.6804                   21848103.7704
 -22249986.12147 -17323243.10343  22403560.7974                   22403562.5904
 -28205867.78547 -21963581.39343  22118178.2974                   22118176.7544
 -11869822.25047  -9235628.62243  22675338.0474                   22675340.4024
  -4356778.71546  -3381296.11342  23799245.8054                   23799249.0204
 -29218420.33248 -22752461.08944  20787616.7734                   20787616.1294
 -21113679.28548 -16437152.48944  21863953.9454                   21863956.5984
 -11495701.20347  -8944219.33053  22906212.4844                   22906214.8054
    982801.449 6                  25200241.133
 11  9 24  0 20 30.0000000  0  9G29G12G02G30G15G05G25G26G21
 -17965243.28147 -13986625.11944  21829946.5944                   21829946.6724
 -22187266.18047 -17274370.51843  22415496.3364                   22415496.1094
 -28182141.61747 -21945093.45543  22122693.1414                   22122691.1604
 -11894265.17647  -9254675.06943  22670686.6094                   22670687.6054
  -4475161.63347  -3473542.06443  23776717.9534                   23776721.1054
 -29191959.69948 -22731842.39744  20792651.5004                   20792651.7154
 -21098786.04748 -16425547.40444  21866787.8834                   21866791.0824
 -11604386.81647  -9028909.31743  22885530.5704                   22885531.5904
    903551.133 5                  25185160.602
 11  9 24  0 21  0.0000000  0  9G29G12G02G30G15G05G25G26G21
 -18060437.02347 -14060801.95444  21811831.9144                   21811832.2814
 -22124258.91848 -17225274.00543  22427485.8204                   22427487.3674
 -28158297.10247 -21926513.31443  22127230.3204                   22127228.4924
 -11918107.86347  -9273253.71243  22666149.2114                   22666150.7384
  -4593508.65247  -3565760.38743  23754197.0004                   23754200.7274
 -29165052.18748 -22710875.45644  20797772.1334                   20797771.3404
 -21083367.17648 -16413532.74644  21869721.9844                   21869724.7624
 -11712794.41447  -9113382.58043  22864900.8134                   22864902.3014
    824327.652 6                  25170084.133
 11  9 24  0 21 30.0000000  0  9G29G12G02G30G15G05G25G26G21
 -18155409.78948 -14134806.61044  21793759.3984                   21793759.2894
 -22060969.89147 -17175957.97444  22439529.8834                   22439530.3594
 -28134336.39547 -21907842.50643  22131789.9774                   22131788.0864
 -11941353.10547  -9291366.82943  22661725.5084                   22661727.9344
  -4711819.48847  -3657950.38743  23731683.3984                   23731686.6414
 -29137702.72348 -22689564.16144  20802976.5944                   20802975.7234
 -21067427.22348 -16401112.00944  21872755.3204                   21872757.7464
 -11820922.76647  -9197638.25243  22844324.8754                   22844326.9104
    745128.156 5                  25155013.305
 11  9 24  0 22  0.0000000  0  9G29G12G02G30G15G05G25G26G21
 -18250158.17647 -14208636.47344  21775729.0704                   21775729.5204
 -21997400.60947 -17126423.47443  22451626.5704                   22451627.4804
 -28110257.60947 -21889079.92443  22136372.2194                   22136370.3954
 -11964000.09847  -9309013.64943  22657416.3984                   22657417.4104
  -4830089.53147  -3750108.73843  23709176.9224                   23709179.7114
 -29109911.78948 -22667908.86544  20808264.8594                   20808264.2934
 -21050966.40248 -16388285.46244  21875887.7114                   21875891.2504
 -11928766.32847  -9281672.24643  22823802.6094                   22823804.7034
    665953.867 6                  25139946.711
 11  9 24  0 22 30.0000000  0  9G29G12G02G30G15G05G25G26G21
 -18344679.70347 -14282289.51844  21757742.2274                   21757742.9264
 -21933554.02347 -17076672.88643  22463776.0234                   22463777.0314
 -28086060.32847 -21870224.85543  22140976.4924                   22140975.4064
 -11986049.39147  -9326194.92943  22653220.2894                   22653221.6684
  -4948315.64847  -3842232.80343  23686679.4144                   23686680.5434
 -29081681.35248 -22645911.10444  20813636.9144                   20813636.1374
 -21033986.70748 -16375054.55344  21879118.8054                   21879121.2934
 -12036321.32047  -9365481.11543  22803335.5474                   22803337.2734
    586804.184 6                  25124884.602
 11  9 24  0 23  0.0000000  0  9G29G12G02G30G15G05G25G26G21
 -18438972.59048 -14355764.37744  21739798.5474                   21739798.1914
 -21869433.33247 -17026708.81043  22475977.7114                   22475978.7894
 -28061744.88347 -21851277.71443  22145603.6804                   22145602.0704
 -12007502.10547  -9342911.33343  22649137.6724                   22649139.5204
  -5066495.12947  -3934320.31243  23664190.1414                   23664193.3134
 -29053014.28948 -22623573.12044  20819092.1254                   20819091.3554
 -21016490.46548 -16361421.13144  21882448.1564                   21882450.6994
 -12143584.50847  -9449062.59343  22782924.2664                   22782924.4494
    507678.203 6                  25109827.461
 11  9 24  0 23 30.0000000  0  9G29G12G02G30G15G05G25G26G21
 -18533032.50848 -14429057.76744  21721899.5004                   21721899.8914
 -21805039.56247 -16976531.85843  22488232.1254                   22488232.4304
 -28037309.55547 -21832237.22643  22150253.8674                   22150251.9224
 -12028356.94547  -9359161.70243  22645169.2034                   22645170.1094
  -5184623.24647  -4026368.05953  23641710.9454                   23641712.9804
 -29023910.63348 -22600894.93044  20824630.3444                   20824629.7194
 -20998477.88748 -16347385.37744  21885875.9144                   21885879.5634
 -12250550.43747  -9532412.70743  22762568.8134                   22762571.0474
    428577.332 6                  25094775.219
 11  9 24  0 24  0.0000000  0  9G29G12G02G30G15G05G25G26G21
 -18626860.16048 -14502170.12443  21704045.0084                   21704044.6374
 -21740379.22747 -16926147.24243  22500536.1484                   22500537.3014
 -28012756.91447 -21813105.27543  22154926.1644                   22154923.9884
 -12048617.77047  -9374949.32243  22641313.7974                   22641314.2974
  -5302700.02347  -4118375.85443  23619241.6484                   23619243.5634
 -28994375.95748 -22577880.89644  20830250.7814                   20830250.5274
 -20979954.03148 -16332951.28244  21889401.0394                   21889403.9774
 -12357218.37947  -9615530.36843  22742270.5394                   22742272.1764
    349497.871 6                  25079726.609
 11  9 24  0 24 30.0000000  0  9G29G12G02G30G15G05G25G26G21
 -18720451.16848 -14575098.13444  21686234.9454                   21686235.2074
 -21675453.30547 -16875555.78543  22512891.3754                   22512892.0084
 -27988084.43747 -21793879.89043  22159620.5084                   22159619.8324
 -12068283.33647  -9390273.03943  22637571.5164                   22637572.8164
  -5420720.99647  -4210339.95743  23596782.4454                   23596785.4884
 -28964410.49248 -22554531.14144  20835952.9304                   20835952.4344
 -20960918.97748 -16318118.76844  21893023.0394                   21893026.3324
 -12463582.38747  -9698411.30343  22722030.2274                   22722031.1564
    270441.62946    213470.07653  25064683.1564                   25064680.5664
 11  9 24  0 25  0.0000000  0  9G29G12G02G30G15G05G25G26G21
 -18813806.12148 -14647842.14643  21668469.9304                   21668469.8244
 -21610267.26647 -16824761.51443  22525296.0704                   22525296.9844
 -27963295.11747 -21774563.50643  22164338.3914                   22164336.4964
 -12087357.18747  -9405135.66143  22633942.1484                   22633942.7344
  -5538685.73846  -4302260.51443  23574334.7274                   23574337.4804
 -28934019.20348 -22530849.64244  20841736.0784                   20841736.2234
 -20941377.61348 -16302891.78444  21896741.6564                   21896744.9924
 -12569641.72747  -9781054.83743  22701847.8914                   22701849.0554
    191405.016 6                  25049642.469
 11  9 24  0 25 30.0000000  0  9G29G12G02G30G15G05G25G26G21
 -18906921.25448 -14720399.32444  21650750.9534                   21650750.7304
 -21544823.05547 -16773766.12243  22537749.4064                   22537750.6294
 -27938387.35547 -21755154.83643  22169077.9534                   22169075.9924
 -12105838.64847  -9419536.85543  22630424.9924                   22630425.2154
  -5656589.38346  -4394133.03343  23551898.5474                   23551901.4414
 -28903202.88748 -22506836.88644  20847600.4384                   20847599.8554
 -20921330.59048 -16287270.76044  21900556.8754                   21900560.3324
 -12675391.23047  -9863456.96243  22681724.0474                   22681726.1724
    112389.21946     90311.68852  25034606.3984                   25034605.5514
 11  9 24  0 26  0.0000000  0  9G29G12G02G30G15G05G25G26G21
 -18999794.10948 -14792767.72144  21633077.8134                   21633077.1334
 -21479122.93047 -16722571.23243  22550252.1094                   22550252.3054
 -27913360.42247 -21735653.35843  22173840.6884                   22173838.2734
 -12123728.38347  -9433476.92643  22627020.8444                   22627021.9494
  -5774428.93446  -4485955.84043  23529473.6484                   23529475.7894
 -28871963.75048 -22482494.68444  20853544.7194                   20853544.5904
 -20900779.82848 -16271257.19744  21904467.4064                   21904470.5984
 -12780827.05947  -9945614.54843  22661659.9614                   22661662.1804
     33394.008 6                  25019573.297
 11  9 24  0 26 30.0000000  0  9G29G12G02G30G15G05G25G26G21
 -19092419.60548 -14864943.36544  21615451.4454                   21615451.3284
 -21413167.91047 -16671177.70043  22562802.7424                   22562803.0274
 -27888211.44147 -21716056.77743  22178625.8284                   22178623.6684
 -12141024.50847  -9446954.40843  22623729.5234                   22623729.9144
  -5892198.98446  -4577724.45643  23507062.2194                   23507065.1644
 -28840300.96948 -22457822.37044  20859570.2504                   20859569.3874
 -20879724.72748 -16254850.61244  21908474.0944                   21908477.3484
 -12885942.79747 -10027522.76743  22641657.2274                   22641658.1564
    -45578.719 6                  25004545.813
 11  9 24  0 27  0.0000000  0  9G29G12G02G30G15G05G25G26G21
 -19184799.42648 -14936927.55044  21597872.0004                   21597871.8984
 -21346964.94947 -16619591.12043  22575401.0474                   22575401.8714
 -27862944.23847 -21696368.06043  22183434.3054                   22183433.1684
 -12157732.08647  -9459973.28243  22620549.9924                   22620550.7194
  -6009900.13347  -4669439.56843  23484664.8674                   23484666.8524
 -28808221.34048 -22432825.26744  20865674.9224                   20865674.1054
 -20858171.61748 -16238056.09444  21912575.3834                   21912577.8874
 -12990738.72347 -10109181.88643  22621714.8834                   22621716.9924
   -124533.29746    -94303.00553  24989520.8524                   24989516.9454
 11  9 24  0 27 30.0000000  0  9G29G12G02G30G15G05G25G26G21
 -19276929.59448 -15008717.13844  21580340.4144                   21580339.8244
 -21280515.19147 -16567812.11843  22588045.6804                   22588046.1334
 -27837557.20747 -21676585.93643  22188265.1564                   22188263.0984
 -12173850.27047  -9472532.84543  22617482.9694                   22617484.2774
  -6127527.71947  -4761097.14143  23462280.5704                   23462283.5354
 -28775725.48048 -22407503.78044  20871858.4694                   20871857.7424
 -20836120.87548 -16220873.67344  21916771.7034                   21916774.5274
 -13095209.57847 -10190587.58043  22601834.9844                   22601836.2384
   -203468.582 6                  24974500.250
 11  9 24  0 28  0.0000000  0  9G29G12G02G30G15G05G25G26G21
 -19368806.33648 -15080309.35644  21562856.4774                   21562857.0554
 -21213820.26247 -16515842.13343  22600737.2344                   22600738.5084
 -27812048.33248 -21656708.81943  22193119.4144                   22193117.5434
 -12189378.18047  -9484632.48643  22614528.0704                   22614528.6484
  -6245077.60247  -4852694.23343  23439911.8914                   23439914.2664
 -28742813.87548 -22381858.33844  20878121.4304                   20878119.9964
 -20813573.05548 -16203303.93044  21921062.1644                   21921065.2974
 -13199349.90247 -10271735.68643  22582017.5004                   22582019.2584
   -282383.25846   -217302.17252  24959482.4064                   24959483.8984
 11  9 24  0 28 30.0000000  0  9G29G12G02G30G15G05G25G26G21
 -19460429.01248 -15151703.60144  21545421.6094                   21545422.0164
 -21146885.00447 -16463684.79843  22613474.8054                   22613476.2114
 -27786419.32448 -21636738.14743  22197996.4384                   22197995.2704
 -12204319.11347  -9496274.69743  22611684.4304                   22611685.5394
  -6362548.42247  -4944229.70543  23417557.5554                   23417559.2234
 -28709490.53948 -22355892.08744  20884462.6564                   20884462.0474
 -20790532.50048 -16185350.27344  21925446.8754                   21925450.1174
 -13303158.05547 -10352625.15043  22562263.0864                   22562264.9304
   -361280.04746   -278779.88342  24944469.1484                   24944470.9964
 11  9 24  0 29  0.0000000  0  9G29G12G02G30G15G05G25G26G21
 -19551793.17648 -15222896.38344  21528035.2974                   21528034.9104
 -21079710.05547 -16411340.78643  22626257.7664                   22626258.9574
 -27760667.66847 -21616671.87743  22202896.4924                   22202894.8634
 -12218671.41447  -9507458.39843  22608953.3134                   22608954.0704
  -6479934.63347  -5035699.35043  23395219.9454                   23395222.1454
 -28675755.74648 -22329605.23044  20890882.0394                   20890881.1564
 -20766998.93048 -16167012.42144  21929925.2504                   21929928.0594
 -13406627.92647 -10433250.76943  22542574.0084                   22542575.1764
   -440156.891 6                  24929458.688
 11  9 24  0 29 30.0000000  0  9G29G12G02G30G15G05G25G26G21
 -19642898.12548 -15293887.21844  21510698.3444                   21510698.8284
 -21012300.61347 -16358813.98343  22639085.6804                   22639086.8324
 -27734794.87947 -21596511.31243  22207820.0944                   22207818.2854
 -12232438.03947  -9518185.65543  22606333.7974                   22606334.7194
  -6597235.11347  -5127102.14043  23372898.3444                   23372900.3244
 -28641613.93748 -22303001.19944  20897378.7584                   20897378.9344
 -20742976.45748 -16148293.62844  21934496.1414                   21934499.4494
 -13509757.66447 -10513611.39743  22522948.9384                   22522950.1724
   -519016.160 6                  24914452.844
 11  9 24  0 30  0.0000000  0  9G29G12G02G30G15G05G25G26G21
 -19733742.43448 -15364674.89644  21493411.1724                   21493410.8984
 -20944659.80947 -16306106.94743  22651957.0234                   22651958.8054
 -27708801.05947 -21576256.30043  22212766.2194                   22212764.3094
 -12245620.50447  -9528457.60543  22603825.2734                   22603826.5664
  -6714447.53947  -5218436.28843  23350592.9924                   23350593.9344
 -28607067.62148 -22276081.97844  20903952.9454                   20903952.2464
 -20718467.88748 -16129196.02544  21939160.4064                   21939162.6954
 -13612544.10547 -10593704.70843  22503389.3134                   22503389.1174
   -597859.156 6                  24899448.492
 11  9 24  0 30 30.0000000  0  9G29G12G02G30G15G05G25G26G21
 -19824324.89548 -15435258.59244  21476174.1954                   21476174.2974
 -20876792.37947 -16253223.23443  22664871.8754                   22664873.2074
 -27682687.75847 -21555908.31943  22217736.0704                   22217733.5474
 -12258221.58647  -9538276.77443  22601427.0004                   22601428.4454
  -6831570.76247  -5309701.03543  23328305.3754                   23328307.3284
 -28572120.73448 -22248850.65944  20910603.4454                   20910603.0864
 -20693477.21548 -16109722.76444  21943916.1644                   21943918.1094
 -13714985.25447 -10673528.81243  22483895.6884                   22483896.5234
   -676687.664 6                  24884448.266
 11  9 24  0 31  0.0000000  0  9G29G12G02G30G15G05G25G26G21
 -19914640.41848 -15505634.29844  21458987.5554                   21458987.9384
 -20808698.86347 -16200163.40143  22677829.7894                   22677830.7934
 -27656451.64547 -21535464.60243  22222728.2734                   22222727.1174
 -12270239.30947  -9547641.11643  22599140.3984                   22599141.7894
  -6948598.24247  -5400891.00943  23306035.7664                   23306036.7894
 -28536772.66848 -22221306.69644  20917329.4614                   20917329.1024
 -20668003.64848 -16089873.21644  21948763.5944                   21948765.8914
 -13817074.53547 -10753078.76043  22464467.6644                   22464467.8244
   -755499.254 6                  24869450.938
 11  9 24  0 31 30.0000000  0  9G29G12G02G30G15G05G25G26G21
 -20004688.82448 -15575801.84344  21441852.0704                   21441851.6094
 -20740384.43747 -16146931.40643  22690829.8364                   22690830.5554
 -27630094.97347 -21514926.99443  22227743.7114                   22227742.3164
 -12281677.14147  -9556553.66543  22596963.9224                   22596964.9024
  -7065529.57047  -5492006.21853  23283783.8524                   23283785.9224
 -28501027.99648 -22193453.71244  20924131.3594                   20924130.6414
 -20642052.02748 -16069651.17644  21953701.7734                   21953704.2384
 -13918810.60247 -10832353.53943  22445108.1564                   22445109.1914
   -834296.582 6                  24854455.680
 11  9 24  0 32  0.0000000  0  9G29G12G02G30G15G05G25G26G21
 -20094466.26648 -15645758.20244  21424767.9694                   21424767.7074
 -20671850.51647 -16093528.48543  22703871.0004                   22703871.7664
 -27603615.76647 -21494293.83643  22232782.6644                   22232780.8364
 -12292534.77047  -9565014.17143  22594897.7584                   22594897.9924
  -7182359.91847  -5583042.53243  23261551.1024                   23261554.3794
 -28464887.84448 -22165292.52844  20931008.6254                   20931007.7814
 -20615622.99248 -16049057.07644  21958730.8984                   21958733.8874
 -14020188.13347 -10911348.91843  22425816.1484                   22425817.7624
   -913078.906 6                  24839464.281
 11  9 24  0 32 30.0000000  0  9G29G12G02G30G15G05G25G26G21
 -20183970.37548 -15715501.66144  21407735.5084                   21407734.8014
 -20603099.88747 -16039956.57443  22716953.9614                   22716954.8484
 -27577013.80147 -21473565.01243  22237844.7344                   22237842.6374
 -12302813.07047  -9573023.19243  22592942.0084                   22592942.9024
  -7299086.07047  -5673997.92243  23239339.0164                   23239340.8794
 -28428353.99248 -22136824.56644  20937961.0554                   20937960.6254
 -20588718.69548 -16028092.70244  21963850.5944                   21963853.7544
 -14121203.39147 -10990061.87743  22406594.0234                   22406594.5234
   -991846.141 6                  24824474.383
 11  9 24  0 33  0.0000000  0  9G29G12G02G30G15G05G25G26G21
 -20273201.18048 -15785032.08444  21390755.3914                   21390755.2734
 -20534138.13347 -15986220.16443  22730076.8284                   22730078.5554
 -27550291.55547 -21452742.46543  22242929.7814                   22242928.1334
 -12312515.69547  -9580583.63843  22591095.5944                   22591097.2544
  -7415707.64146  -5764871.59343  23217146.6644                   23217148.1994
 -28391431.45348 -22108053.75544  20944987.0784                   20944986.2894
 -20561344.03148 -16006761.80844  21969059.8524                   21969062.9184
 -14221855.17247 -11068491.81643  22387439.7034                   22387442.1994
  -1070601.203 6                  24809488.031
 11  9 24  0 33 30.0000000  0  9G29G12G02G30G15G05G25G26G21
 -20362156.76248 -15854348.10744  21373827.8054                   21373827.9804
 -20464968.87947 -15932322.17543  22743239.9454                   22743241.2704
 -27523448.22747 -21431825.57443  22248037.8834                   22248035.9304
 -12321644.30947  -9587696.90043  22589358.6484                   22589359.9734
  -7532221.56247  -5855661.64543  23194974.8054                   23194976.8204
 -28354122.92248 -22078982.16344  20952086.7114                   20952085.9414
 -20533501.75048 -15985066.49244  21974358.0234                   21974361.6134
 -14322140.25847 -11146635.96243  22368356.6954                   22368357.5234
  -1149345.383 6                  24794504.016
 11  9 24  0 34  0.0000000  0  9G29G12G02G30G15G05G25G26G21
 -20450833.75848 -15923447.02144  21356952.8984                   21356953.5004
 -20395594.41047 -15878264.19643  22756441.2114                   22756442.5164
 -27496483.16447 -21410813.83643  22253169.2584                   22253166.7894
 -12330199.24247  -9594362.99343  22587730.5234                   22587731.2154
  -7648624.07847  -5946364.60443  23172824.1644                   23172826.0864
 -28316429.92648 -22049610.99244  20959259.5234                   20959258.9414
 -20505193.33648 -15963007.95244  21979745.0554                   21979747.7274
 -14422053.78547 -11224490.42443  22349343.3834                   22349343.7774
  -1228077.891 6                  24779521.344
 11  9 24  0 34 30.0000000  0  9G29G12G02G30G15G05G25G26G21
 -20539228.31248 -15992325.88744  21340132.0314                   21340132.1644
 -20326016.04747 -15824047.33243  22769681.7894                   22769681.9414
 -27469394.38747 -21389705.70843  22258323.9694                   22258322.5784
 -12338180.35247  -9600582.12643  22586211.3594                   22586212.5474
  -7764910.86747  -6036977.61743  23150695.5634                   23150698.7734
 -28278353.43447 -22019940.97844  20966505.1644                   20966504.7384
 -20476419.89148 -15940587.01544  21985220.6484                   21985223.3524
 -14521590.96547 -11302051.73643  22330402.1414                   22330403.8714
  -1306797.766 6                  24764540.781
 11  9 24  0 35  0.0000000  0  9G29G12G02G30G15G05G25G26G21
 -20627338.34848 -16060982.99344  21323365.3364                   21323365.7384
 -20256236.83647 -15769673.90443  22782960.1414                   22782960.6914
 -27442181.96947 -21368501.23043  22263502.1954                   22263500.1914
 -12345589.08247  -9606355.09243  22584801.8674                   22584803.3244
  -7881078.76647  -6127497.84943  23128589.9304                   23128591.1484
 -28239895.98047 -21989974.12544  20973823.2894                   20973822.7344
 -20447183.91848 -15917805.77944  21990784.0004                   21990786.7734
 -14620748.30947 -11379317.17143  22311533.0634                   22311534.7234
  -1385505.801 6                  24749562.984
 11  9 24  0 35 30.0000000  0  9G29G12G02G30G15G05G25G26G21
 -20715161.35248 -16129416.48044  21306653.0704                   21306653.4024
 -20186260.43047 -15715146.87043  22796276.5234                   22796277.7234
 -27414845.76247 -21347200.22543  22268704.4144                   22268702.7734
 -12352426.83247  -9611683.14543  22583500.0394                   22583501.1954
  -7997125.03547  -6217923.32943  23106506.2194                   23106508.8524
 -28201059.73847 -21959712.10244  20981213.6564                   20981212.6054
 -20417487.94548 -15894666.05943  21996434.7274                   21996437.5864
 -14719522.20347 -11456283.66343  22292736.6884                   22292737.8014
  -1464202.512 6                  24734587.648
 11  9 24  0 36  0.0000000  0  9G29G12G02G30G15G05G25G26G21
 -20802694.76648 -16197624.28544  21289996.1094                   21289995.9184
 -20116089.18747 -15660468.06843  22809629.4224                   22809630.9384
 -27387385.18447 -21325802.44843  22273930.4844                   22273928.6764
 -12358694.78947  -9616567.07843  22582308.1254                   22582308.4454
  -8113046.00847  -6308251.07343  23084447.3444                   23084448.6644
 -28161847.26648 -21929156.94644  20988675.5474                   20988674.6214
 -20387334.38348 -15871169.75643  22002172.6094                   22002175.6684
 -14817909.01247 -11532948.66143  22274014.4304                   22274015.0864
  -1542887.945 6                  24719614.531
 11  9 24  0 36 30.0000000  0  9G29G12G02G30G15G05G25G26G21
 -20889939.02748 -16265606.74744  21273393.8444                   21273393.8284
 -20045729.19147 -15605642.13943  22823018.4844                   22823020.0664
 -27359802.57047 -21304309.46143  22279178.4774                   22279177.5084
 -12364396.79347  -9621010.33343  22581222.7344                   22581223.1884
  -8228841.48847  -6398481.30543  23062411.6644                   23062413.5784
 -28122263.52748 -21898312.49344  20996207.7344                   20996208.0204
 -20356728.08248 -15847320.66643  22007996.8674                   22007999.6254
 -14915907.52047 -11609310.96743  22255365.8674                   22255366.6374
  -1621565.180 6                  24704642.398
 11  9 24  0 37  0.0000000  0  9G29G12G02G30G15G05G25G26G21
 -20976889.73048 -16333360.51944  21256848.1564                   21256847.6174
 -19975181.25447 -15550669.71443  22836443.0634                   22836444.2704
 -27332095.54747 -21282719.57943  22284451.0394                   22284449.3244
 -12369532.30947  -9625011.97743  22580245.3284                   22580245.9264
  -8344506.39147  -6488609.58443  23040401.1644                   23040402.7934
 -28082308.61748 -21867178.76944  21003811.3984                   21003811.0744
 -20325669.62948 -15823119.27644  22013907.3364                   22013910.2274
 -15013511.95347 -11685366.23843  22236792.5864                   22236792.6724
  -1700232.789 6                  24689672.359
 11  9 24  0 37 30.0000000  0  9G29G12G02G30G15G05G25G26G21
 -21063547.80548 -16400886.23644  21240357.5004                   21240357.2544
 -19904451.35247 -15495555.54443  22849902.6094                   22849904.8204
 -27304267.05547 -21261035.04043  22289746.4304                   22289745.3554
 -12374106.11347  -9628575.95543  22579374.9144                   22579376.1094
  -8460040.67247  -6578636.09743  23018415.7274                   23018418.3204
 -28041988.41848 -21835760.43244  21011483.7894                   21011483.1454
 -20294164.91848 -15798570.19744  22019902.3364                   22019905.2154
 -15110722.47747 -11761114.53443  22218293.7504                   22218295.3404
  -1778894.324 6                  24674703.898
 11  9 24  0 38  0.0000000  0 10G29G12G02G30G15G18G05G25G26G21
 -21149911.84848 -16468182.82444  21223922.7114                   21223921.9264
 -19833544.22347 -15440303.30843  22863395.8444                   22863396.8914
 -27276317.78547 -21239256.44143  22295065.0164                   22295064.0554
 -12378120.54347  -9631704.08943  22578611.2664                   22578612.0044
  -8575442.41847  -6668559.40943  22996455.3284                   22996457.4384
   1413710.35216                  24616081.781
 -28001306.22747 -21804059.97844  21019225.3204                   21019224.6644
 -20262217.37948 -15773676.02444  22025981.6644                   22025984.3134
 -15207536.11747 -11836553.70743  22199870.6094                   22199871.2734
  -1857551.605 6                  24659735.539
 11  9 24  0 38 30.0000000  0 10G29G12G02G30G15G18G05G25G26G21
 -21235982.02347 -16535250.42544  21207544.0554                   21207543.4574
 -19762465.51647 -15384917.39543  22876922.0634                   22876923.3324
 -27248250.17247 -21217385.45343  22300406.2504                   22300404.9924
 -12381579.71547  -9634399.44643  22577952.5944                   22577953.5394
  -8690710.89847  -6758378.76843  22974520.2734                   22974522.1994
   1303264.551 5                  24595063.977
 -27960267.13348 -21772081.50044  21027034.7814                   21027034.5124
 -20229832.19947 -15748440.82944  22032144.4614                   22032147.4144
 -15303951.84847 -11911682.72243  22181523.3054                   22181523.5704
  -1936207.26646  -1506006.60552  24644767.3444                   24644767.1174
 11  9 24  0 39  0.0000000  0 10G29G12G02G30G15G18G05G25G26G21
 -21321760.16448 -16602090.49844  21191220.8754                   21191220.5744
 -19691222.13747 -15329403.07243  22890479.2424                   22890480.6174
 -27220068.03547 -21195425.36043  22305769.2114                   22305767.0904
 -12384489.30947  -9636666.66443  22577399.1254                   22577399.5944
  -8805847.45347  -6848095.37943  22952610.3754                   22952611.8444
                                  24574079.000
 -27918877.62148 -21739829.90444  21034911.2734                   21034910.5634
 -20197016.13348 -15722869.83144  22038389.4534                   22038392.2234
 -15399970.57447 -11986502.37443  22163251.5554                   22163251.9104
  -2014866.12946  -1567298.98553  24629798.8054                   24629800.3954
 11  9 24  0 39 30.0000000  0 10G29G12G02G30G15G18G05G25G26G21
 -21407242.40247 -16668699.94544  21174954.3524                   21174954.0904
 -19619815.68047 -15273761.79743  22904067.3204                   22904069.1844
 -27191769.57047 -21173374.54743  22311154.4064                   22311152.7664
 -12386849.30147  -9638505.70043  22576950.2424                   22576950.7734
  -8920847.40647  -6937705.57843  22930726.3524                   22930727.3524
   1082886.05915                  24553125.688
 -27877138.52348 -21707305.93344  21042853.7114                   21042852.6334
 -20163770.16447 -15696963.91744  22044715.7424                   22044719.1724
 -15495587.04347 -12061008.69543  22145055.9384                   22145057.0354
  -2093527.23046  -1628593.31643  24614829.9614                   24614830.7504
 11  9 24  0 40  0.0000000  0 10G29G12G02G30G15G18G05G25G26G21
 -21492424.48048 -16735075.52644  21158744.4064                   21158744.1174
 -19548247.25446 -15217994.23643  22917686.7034                   22917687.6724
 -27163352.37147 -21151231.20743  22316562.2894                   22316560.0274
 -12388659.16847  -9639915.88843  22576605.1334                   22576605.7344
  -9035705.68047  -7027205.35743  22908869.5704                   22908870.9414
    972959.934 5                  24532208.609
 -27835050.30548 -21674509.88844  21050862.8914                   21050861.8014
 -20130094.91847 -15670723.45944  22051123.8754                   22051126.6214
 -15590795.76647 -12135197.15543  22126938.5474                   22126938.3284
  -2172188.71146  -1689887.63143  24599861.3754                   24599862.3914
 11  9 24  0 40 30.0000000  0 10G29G12G02G30G15G18G05G25G26G21
 -21577300.79747 -16801212.84244  21142593.1484                   21142592.8594
 -19476516.78547 -15162100.40143  22931336.2734                   22931337.7234
 -27134813.14147 -21128992.83143  22321993.2424                   22321991.2974
 -12389917.54747  -9640896.59643  22576366.0554                   22576367.0004
  -9150415.99647  -7116589.89843  22887040.5784                   22887042.1334
    863214.453 6                  24511323.523
 -27792612.22748 -21641441.23444  21058938.2344                   21058938.1254
 -20095989.95347 -15644148.16844  22057613.5634                   22057616.9414
 -15685590.17647 -12209062.77843  22108899.5004                   22108900.0164
  -2250847.934 6                  24584893.125
 11  9 24  0 41  0.0000000  0 10G29G12G02G30G15G18G05G25G26G21
 -21661867.57047 -16867108.95644  21126500.3524                   21126500.9494
 -19404625.80147 -15106081.54043  22945016.5004                   22945017.8164
 -27106149.96147 -21106657.83643  22327447.0004                   22327444.8244
 -12390624.44147  -9641447.35343  22576231.6644                   22576233.0234
  -9264973.71947  -7205855.43543  22865240.8444                   22865242.8164
    753652.484 6                  24490475.313
 -27749825.58248 -21608100.97844  21067080.6174                   21067080.2234
 -20061456.36747 -15617238.90344  22064185.7664                   22064188.4964
 -15779965.00847 -12282601.56443  22090940.6484                   22090940.9694
  -2329504.160 6                  24569924.828
 11  9 24  0 41 30.0000000  0 10G29G12G02G30G15G18G05G25G26G21
 -21746119.91847 -16932760.05544  21110467.7814                   21110468.1644
 -19332575.13747 -15049938.12243  22958727.2974                   22958729.2114
 -27077360.08647 -21084224.15243  22332925.7274                   22332924.3014
 -12390779.07847  -9641567.87343  22576201.9144                   22576202.9654
  -9379373.32847  -7294997.80443  22843471.6804                   22843472.9884
    644278.059 6                  24469661.117
 -27706690.08248 -21574488.87844  21075289.1254                   21075287.7074
 -20026494.42247 -15589995.82744  22070838.2814                   22070842.0594
 -15873914.43447 -12355808.80143  22073062.4144                   22073063.1174
  -2408155.097 6                  24554958.063
 11  9 24  0 42  0.0000000  0 10G29G12G02G30G15G18G05G25G26G21
 -21830056.42248 -16998165.08544  21094494.7664                   21094494.4414
 -19260368.84847 -14993673.51943  22972467.9064                   22972469.5784
 -27048444.29347 -21061692.37043  22338428.0864                   22338426.6884
 -12390384.18447  -9641260.15543  22576277.8984                   22576278.0274
  -9493612.89147  -7384015.62743  22821731.9844                   22821733.0984
    535090.898 6                  24448883.453
 -27663209.25848 -21540607.69244  21083562.9534                   21083562.6844
 -19991107.78147 -15562421.85743  22077572.3444                   22077575.4844
 -15967435.95747 -12428682.54743  22055265.7034                   22055266.2774
  -2486802.398 6                  24539991.984
 11  9 24  0 42 30.0000000  0 10G29G12G02G30G15G18G05G25G26G21
 -21913674.69148 -17063322.08544  21078583.1724                   21078582.1804
 -19188009.47747 -14937289.67643  22986237.3284                   22986238.5474
 -27019402.12147 -21039062.06643  22343954.3204                   22343952.7974
 -12389441.16447  -9640525.46143  22576456.6954                   22576457.9104
  -9607689.04747  -7472905.84043  22800023.7424                   22800026.0434
    426092.559 6                  24428141.406
 -27619384.95748 -21506458.89344  21091902.7814                   21091902.2664
 -19955298.92648 -15534518.92344  22084386.7274                   22084389.3914
 -16060526.11747 -12501220.33143  22037551.0554                   22037551.9344
  -2565446.05546  -1996321.36752  24525026.5234                   24525027.5004
 11  9 24  0 43  0.0000000  0 10G29G12G02G30G15G18G05G25G26G21
 -21996970.69948 -17128228.01144  21062732.2814                   21062731.6374
 -19115499.04747 -14880788.10343  23000035.3054                   23000036.4924
 -26990231.28947 -21016331.59743  22349505.3364                   22349503.9184
 -12387949.96947  -9639363.47143  22576740.5234                   22576741.6884
  -9721597.05147  -7561665.14443  22778347.9384                   22778349.9774
    317286.074 6                  24407435.422
 -27575218.59848 -21472043.51544  21100307.3524                   21100305.9414
 -19919068.76248 -15506287.62344  22091281.0474                   22091284.1174
 -16153179.44547 -12573417.60343  22019920.1484                   22019920.2304
  -2644084.88746  -2057598.16052  24510061.9924                   24510061.6094
 11  9 24  0 43 30.0000000  0 10G29G12G02G30G15G18G05G25G26G21
 -22079943.43047 -17192881.99144  21046943.1484                   21046942.9304
 -19042841.39847 -14824171.68943  23013862.3524                   23013863.1094
 -26960933.27047 -20993501.86843  22355080.6174                   22355079.1454
 -12385913.82447  -9637776.92343  22577127.8834                   22577128.5784
  -9835335.07447  -7650292.07043  22756704.0004                   22756705.5474
    208671.535 6                  24386766.992
 -27530713.66448 -21437364.30844  21108775.8594                   21108774.8714
 -19882421.48048 -15477731.33143  22098254.8054                   22098257.0984
 -16245394.05947 -12645273.00843  22002371.8754                   22002372.6054
  -2722720.85246  -2118872.78142  24495098.4614                   24495096.9414
 11  9 24  0 44  0.0000000  0 10G29G12G02G30G15G18G05G25G26G21
 -22162591.59448 -17257283.14644  21031215.3914                   21031215.6174
 -18970041.08647 -14767444.32443  23027715.4304                   23027717.0704
 -26931508.70347 -20970573.67543  22360680.1334                   22360678.1804
 -12383335.49247  -9635767.92043  22577618.7034                   22577619.7464
  -9948901.19547  -7738784.94943  22735093.1484                   22735094.8284
    100249.12546     88355.01652  24366134.4534                   24366138.7344
 -27485873.94948 -21402424.28544  21117308.5394                   21117308.2384
 -19845360.89848 -15448853.00243  22105307.0084                   22105310.0124
 -16337167.46147 -12716784.76343  21984908.5394                   21984909.5704
  -2801355.512 6                  24480134.008
 11  9 24  0 44 30.0000000  0 10G29G12G02G30G15G18G05G25G26G21
 -22244912.46148 -17321429.17044  21015550.7504                   21015549.5904
 -18897100.35547 -14710607.45843  23041595.7114                   23041597.5434
 -26901956.47347 -20947545.85843  22366303.5704                   22366301.2194
 -12380216.28947  -9633337.31743  22578212.5084                   22578213.5234
 -10062291.81247  -7827141.14643  22713516.0084                   22713516.3484
     -7979.61346      4021.01953  24345539.2504                   24345541.1134
 -27440701.00848 -21367224.58144  21125904.7114                   21125904.1374
 -19807889.16447 -15419654.23244  22112437.8284                   22112440.6294
 -16428495.64147 -12787949.44743  21967529.0394                   21967529.2774
  -2879988.832 6                  24465170.430
 11  9 24  0 45  0.0000000  0 10G29G12G02G30G15G18G05G25G26G21
 -22326903.25447 -17385318.07344  20999948.1094                   20999947.9734
 -18824021.95347 -14653663.14143  23055502.0784                   23055504.1484
 -26872275.94947 -20924418.26643  22371951.2194                   22371950.0904
 -12376557.55547  -9630486.39643  22578908.9694                   22578908.8674
 -10175503.28147  -7915357.69643  22691972.0004                   22691972.8284
   -116013.152 6                  24324981.109
 -27395196.95748 -21331766.86044  21134564.0864                   21134562.9694
 -19770008.59447 -15390136.96344  22119645.8364                   22119649.0864
 -16519374.96147 -12858764.41443  21950234.9144                   21950234.6374
  -2958620.621 6                  24450207.047
 11  9 24  0 45 30.0000000  0 10G29G12G02G30G15G18G05G25G26G21
 -22408562.91048 -17448948.91444  20984408.8914                   20984408.1454
 -18750810.59447 -14596615.54543  23069434.2664                   23069436.2274
 -26842468.50847 -20901191.58543  22377623.7974                   22377621.4264
 -12372362.54347  -9627217.62843  22579706.9454                   22579708.4614
 -10288534.16047  -8003433.48443  22670463.1094                   22670463.8984
   -223851.836 6                  24304459.563
 -27349365.82048 -21296054.30044  21143285.3674                   21143285.0904
 -19731723.53147 -15360304.44944  22126931.5314                   22126934.0474
 -16609803.29747 -12929227.95343  21933027.3134                   21933027.4064
  -3037252.73846  -2363963.12853  24435243.8674                   24435247.2734
 11  9 24  0 46  0.0000000  0 10G29G12G02G30G15G18G05G25G26G21
 -22489886.62148 -17512318.00444  20968933.4924                   20968932.6994
 -18677466.42647 -14539464.31543  23083390.9224                   23083393.7234
 -26812531.00447 -20877863.74543  22383320.5634                   22383317.8094
 -12367630.59047  -9623530.38443  22580607.5314                   22580607.7854
 -10401378.64147  -8091364.09443  22648989.2894                   22648991.3484
   -331491.598 6                  24283975.320
 -27303207.39848 -21260086.66744  21152069.2504                   21152068.6134
 -19693034.02747 -15330156.87043  22134294.0234                   22134296.4924
 -16699774.50847 -12999335.28743  21915906.1884                   21915906.1294
  -3115882.92646  -2425232.89053  24420280.3834                   24420282.7034
 11  9 24  0 46 30.0000000  0 10G29G12G02G30G15G18G05G25G26G21
 -22570873.65648 -17575424.74244  20953521.8054                   20953520.8444
 -18603994.37947 -14482213.43043  23097372.1254                   23097373.2194
 -26782464.89147 -20854435.57443  22389042.2114                   22389040.1254
 -12362365.09047  -9619427.43543  22581609.7974                   22581610.9104
 -10514035.12547  -8179148.16843  22627551.1024                   22627551.6484
   -438933.168 5                  24263529.492
 -27256725.78948 -21223867.22744  21160914.2664                   21160913.0234
 -19653944.56247 -15299697.56344  22141732.1484                   22141735.9494
 -16789287.05147 -13069085.24743  21898872.0634                   21898872.8554
  -3194513.48846  -2486503.48452  24405318.6954                   24405319.5354
 11  9 24  0 47  0.0000000  0 10G29G12G02G30G15G18G05G25G26G21
 -22651522.98848 -17638268.33244  20938174.8054                   20938174.3524
 -18530398.96947 -14424866.39843  23111377.2664                   23111378.3874
 -26752271.20747 -20830908.13943  22394787.4304                   22394786.0354
 -12356569.44547  -9614911.42943  22582712.0084                   22582714.8984
 -10626502.27347  -8266784.75743  22606149.1174                   22606149.4414
   -546176.613 6                  24243122.195
 -27209924.94548 -21187398.98144  21169820.0234                   21169819.4494
 -19614459.39847 -15268929.98543  22149246.3834                   22149248.9224
 -16878338.92247 -13138476.16743  21881926.0314                   21881926.9654
  -3273146.42246  -2547775.65642  24390354.2424                   24390352.4694
 11  9 24  0 47 30.0000000  0 10G29G12G02G30G15G18G05G25G26G21
 -22731831.54347 -17700846.36745  20922892.6484                   20922891.9694
 -18456681.91447 -14367424.55443  23125404.8754                   23125406.6644
 -26721948.43747 -20807279.96743  22400557.7194                   22400556.1024
 -12350244.39547  -9609982.71243  22583916.1094                   22583917.2774
 -10738775.55547  -8354270.35643  22584784.0634                   22584784.0474
   -653219.477 6                  24222753.148
 -27162806.07048 -21150682.95444  21178786.2274                   21178785.5944
 -19574580.13347 -15237855.25043  22156835.3204                   22156838.5744
 -16966925.57847 -13207504.68343  21865068.4144                   21865069.1374
  -3351780.750 6                  24375390.922
 11  9 24  0 48  0.0000000  0 10G29G12G02G30G15G18G05G25G26G21
 -22811794.99648 -17763155.52544  20907675.9844                   20907675.3714
 -18382844.69947 -14309889.04943  23139455.5394                   23139457.2154
 -26691494.55147 -20783549.61243  22406352.9694                   22406351.1414
 -12343390.07847  -9604641.73643  22585220.8594                   22585221.6604
 -10850850.10547  -8441601.02943  22563457.3284                   22563457.7854
   -760058.816 6                  24202421.297
 -27115369.88748 -21113719.70044  21187812.6644                   21187812.5434
 -19534307.85547 -15206474.31043  22164498.5234                   22164501.9884
 -17055041.86347 -13276166.62443  21848300.2584                   21848301.3594
  -3430415.004 6                  24360427.016
 11  9 24  0 48 30.0000000  0 10G29G12G02G30G15G18G05G25G26G21
 -22891412.60548 -17825195.13944  20892525.4144                   20892525.4884
 -18308892.01247 -14252263.78243  23153528.7664                   23153529.1954
 -26660911.02747 -20759718.36343  22412173.4614                   22412171.2894
 -12336010.21147  -9598891.21443  22586624.9614                   22586625.4104
 -10962724.70747  -8528775.89443  22542167.7664                   22542168.7894
   -866695.437 6                  24182129.188
 -27067620.62548 -21076512.44744  21196899.5704                   21196898.8094
 -19493647.09047 -15174790.60243  22172236.1334                   22172239.5634
 -17142686.30947 -13344460.91043  21831621.8674                   21831622.9454
  -3509051.34046  -2731597.16153  24345462.9924                   24345465.1094
 11  9 24  0 49  0.0000000  0 10G29G12G02G30G15G18G05G25G26G21
 -22970681.94148 -17886963.44344  20877440.5784                   20877440.9184
 -18234826.91847 -14194550.65043  23167622.3984                   23167624.1884
 -26630196.92647 -20735785.29243  22418017.9144                   22418016.3714
 -12328106.58247  -9592732.51543  22588128.3754                   22588128.7384
 -11074395.84447  -8615792.19143  22520917.4064                   22520918.1644
   -973128.258 6                  24161875.359
 -27019560.59448 -21039063.00644  21206044.9454                   21206044.5514
 -19452600.57847 -15142806.32643  22180047.0394                   22180051.1374
 -17229855.27347 -13412384.69643  21815034.4384                   21815034.5904
  -3587690.37146  -2792874.03443  24330498.3444                   24330500.0274
 11  9 24  0 49 30.0000000  0 10G29G12G02G30G15G18G05G25G26G21
 -23049600.88347 -17948458.67244  20862423.2194                   20862422.3674
 -18160652.23847 -14136752.28343  23181737.6884                   23181738.5554
 -26599352.39847 -20711750.72443  22423887.3984                   22423885.3134
 -12319681.21547  -9586167.26543  22589731.5314                   22589732.0204
 -11185860.49247  -8702647.57743  22499706.3834                   22499707.2934
  -1079355.437 6                  24141660.531
 -26971192.07848 -21001373.25344  21215249.5474                   21215248.4734
 -19411171.09047 -15110523.64343  22187931.1024                   22187933.6214
 -17316545.36347 -13479935.23843  21798537.6884                   21798537.3794
  -3666331.871 6                  24315533.133
 11  9 24  0 50  0.0000000  0 10G29G12G02G30G15G18G05G25G26G21
 -23128166.09447 -18009678.29844  20847472.3444                   20847471.9264
 -18086370.23846 -14078870.36143  23195873.3914                   23195874.4884
 -26568376.11347 -20687613.27543  22429781.9224                   22429779.1024
 -12310735.33247  -9579196.49543  22591434.3594                   22591434.2344
 -11297115.00847  -8789339.36243  22478535.6564                   22478536.2034
  -1185375.44546   -913441.89853  24121485.3754                   24121490.4884
 -26922516.53948 -20963444.22444  21224511.6484                   21224511.3834
 -19369360.74647 -15077944.19143  22195887.2424                   22195890.2854
 -17402752.76247 -13547109.85243  21782133.0394                   21782132.7854
  -3744976.137 6                  24300567.547
 11  9 24  0 50 30.0000000  0 10G29G12G02G30G15G18G05G25G26G21
 -23206375.53148 -18070620.67144  20832589.7664                   20832589.1684
 -18011984.51247 -14020907.38353  23210028.5084                   23210030.4884
 -26537267.92647 -20663373.14043  22435701.8364                   22435699.7544
 -12301271.33247  -9571821.94843  22593235.0394                   22593236.1764
 -11408156.71147  -8875865.17343  22457404.5784                   22457406.0044
  -1291187.39846   -995892.43443  24101350.5234                   24101352.2304
 -26873537.41048 -20925278.59344  21233832.1094                   21233831.7034
 -19327172.72347 -15045070.43243  22203915.4844                   22203917.6174
 -17488474.33247 -13613905.78643  21765820.7974                   21765821.0044
  -3823623.496 6                  24285601.555
 11  9 24  0 51  0.0000000  0 10G29G12G02G30G15G18G05G25G26G21
 -21708805.82447 -16903683.23244  21117567.6884                   21117566.8754
 -16362081.89146 -12735269.16353  23523993.8444                   23523995.9104
 -24930610.01647 -19411431.89943  22741438.5944                   22741436.3164
 -10715872.98847  -8336446.52943  22894926.7584                   22894927.6374
  -9943559.93747  -7734620.81543  22736107.9454                   22736108.7894
    178631.89846    149421.41452  24381047.1804                   24381046.9264
 -25248840.02748 -19659280.64644  21543001.6644                   21543001.1054
 -17709192.75447 -13784306.78943  22511806.6884                   22511808.4494
 -15998285.43447 -12452719.49643  22049394.3984                   22049394.6954
  -2326853.379 6                  24570427.211
 11  9 24  0 51 30.0000000  0 10G29G12G02G30G15G18G05G25G26G21
 -21786299.57848 -16964067.91644  21102821.0474                   21102820.0164
 -16287499.76246 -12677153.12843  23538186.9304                   23538187.4964
 -24899239.72747 -19386987.47843  22747408.1884                   22747405.8204
 -10705381.34047  -8328271.18543  22896922.6484                   22896924.3094
 -10054168.46947  -7820809.11843  22715059.8594                   22715060.3404
     73236.71946     67295.60542  24360991.6334                   24360990.8364
 -25199263.14848 -19620649.26144  21552436.0234                   21552434.9184
 -17666260.54347 -13750853.20443  22519976.3134                   22519979.1604
 -16083028.14547 -12518752.68443  22033268.1414                   22033268.1764
  -2405510.711 6                  24555458.906
 11  9 24  0 52  0.0000000  0 10G29G12G02G30G15G18G05G25G26G21
 -21863429.95348 -17024169.47344  21088143.5004                   21088143.7154
 -16212822.40246 -12618963.12542  23552397.4534                   23552400.0234
 -24867736.14147 -19362439.34143  22753402.6724                   22753400.8244
 -10694377.03946  -8319696.53343  22899017.3524                   22899018.2034
 -10164553.94947  -7906823.61343  22694054.2734                   22694055.3634
    -31946.64146    -14665.27253  24340975.1564                   24340974.7114
 -25149388.93448 -19581786.19844  21561926.6484                   21561925.6174
 -17622958.67647 -13717111.47343  22528217.0394                   22528220.0864
 -16167274.47747 -12584399.14143  22017236.5634                   22017236.3324
  -2484171.781 6                  24540489.742
 11  9 24  0 52 30.0000000  0 10G29G12G02G30G15G18G05G25G26G21
 -21940195.43748 -17083986.66744  21073535.6334                   21073535.7544
 -16138053.26646 -12560701.60643  23566625.9614                   23566626.8094
 -24836099.35547 -19337787.13743  22759423.4384                   22759421.9614
 -10682863.01647  -8310724.41743  22901208.0394                   22901209.7734
 -10274714.00047  -7992662.50843  22673091.3594                   22673091.9964
   -136917.43046    -96460.37152  24320999.8284                   24320999.9384
 -25099220.50848 -19542693.92544  21571473.6414                   21571472.4304
 -17579290.75847 -13683084.54344  22536526.2034                   22536529.1604
 -16251022.07047 -12649656.93643  22001299.9774                   22001299.6724
  -2562837.586 6                  24525520.547
 11  9 24  0 53  0.0000000  0 10G29G12G02G30G15G18G05G25G26G21
 -22016593.04748 -17143517.24344  21058997.7114                   21058996.9804
 -16063194.54346 -12502370.16743  23580870.4844                   23580872.6484
 -24804328.32447 -19313030.54243  22765468.8594                   22765467.4494
 -10670840.59047  -8301356.36043  22903496.0234                   22903496.5984
 -10384644.73847  -8078322.63143  22652172.0164                   22652172.3794
   -241673.934 6                  24301064.531
 -25048759.82048 -19503373.90944  21581075.6884                   21581074.3914
 -17535258.97347 -13648774.06543  22544905.3674                   22544908.5314
 -16334266.82847 -12714522.85843  21985458.9454                   21985459.0354
  -2641507.57046  -2055585.35653  24510549.7194                   24510545.1804
 11  9 24  0 53 30.0000000  0 10G29G12G02G30G15G18G05G25G26G21
 -22092621.64147 -17202760.28144  21044529.9304                   21044529.7774
 -15988250.48446 -12443972.31143  23595132.5084                   23595134.0864
 -24772423.73447 -19288169.82943  22771540.4924                   22771538.1954
 -10658313.16447  -8291594.66043  22905880.0704                   22905879.4264
 -10494344.27747  -8163802.68643  22631296.7504                   22631297.3714
   -346216.316 6                  24281170.641
 -24998010.34848 -19463828.81644  21590732.9774                   21590732.6684
 -17490867.44947 -13614183.29243  22553352.6724                   22553355.6254
 -16417006.67247 -12778995.45843  21969713.7584                   21969713.1764
  -2720183.51246  -2116891.20053  24495578.2504                   24495577.9344
 11  9 24  0 54  0.0000000  0 10G29G12G02G30G15G18G05G25G26G21
 -22168282.56248 -17261716.75244  21030132.3054                   21030131.6094
 -15913228.14146 -12385513.19843  23609408.9774                   23609410.4804
 -24740389.35947 -19263208.01143  22777635.9844                   22777634.6134
 -10645286.54347  -8281444.02543  22908359.1334                   22908359.1334
 -10603813.06647  -8249102.97543  22610465.1884                   22610466.1764
   -450547.426 6                  24261317.234
 -24946978.20748 -19424063.47844  21600444.2734                   21600443.3484
 -17446122.75847 -13579317.34843  22561867.5314                   22561870.3984
 -16499242.33647 -12843075.07443  21954064.7504                   21954064.1454
  -2798869.12146  -2178204.37942  24480604.6644                   24480603.7274
 11  9 24  0 54 30.0000000  0 10G29G12G02G30G15G18G05G25G26G21
 -22243569.53547 -17320381.87344  21015805.4144                   21015804.5474
 -15838126.12946 -12326992.30553  23623700.3834                   23623701.0784
 -24708220.20747 -19238141.10443  22783758.2424                   22783756.2894
 -10631758.88747  -8270902.96343  22910932.9924                   22910933.6024
 -10713044.04747  -8334217.83043  22589679.3674                   22589680.7774
   -554661.766 6                  24241504.758
 -24895661.60948 -19384076.49844  21610209.8364                   21610208.5554
 -17401023.80547 -13544175.25644  22570449.5234                   22570453.1524
 -16580966.41447 -12906756.08543  21938513.0394                   21938513.9884
  -2877561.094 6                  24465630.359
 11  9 24  0 55  0.0000000  0 10G29G12G02G30G15G18G05G25G26G21
 -22318479.71148 -17378753.40044  21001550.5084                   21001550.4614
 -15762947.11346 -12268411.42943  23638006.2894                   23638009.0514
 -24675915.87947 -19212968.92743  22789905.1484                   22789904.0824
 -10617732.02047  -8259972.89043  22913602.1414                   22913601.9304
 -10822033.75047  -8419144.87143  22568938.9614                   22568939.3634
   -658558.203 6                  24221734.070
 -24844062.75848 -19343869.59444  21620028.3054                   21620027.4734
 -17355573.15247 -13508759.15443  22579098.6804                   22579101.3914
 -16662175.28547 -12970035.67243  21923060.0474                   21923060.3244
  -2956259.28146  -2300845.80453  24450654.7504                   24450650.9144
 11  9 24  0 55 30.0000000  0 10G29G12G02G30G15G18G05G25G26G21
 -22393013.23448 -17436831.42444  20987367.1484                   20987366.7664
 -15687696.26646 -12209774.24743  23652325.6334                   23652328.4734
 -24643478.44547 -19187693.00143  22796077.9924                   22796076.0474
 -10603210.73847  -8248657.65143  22916365.5634                   22916365.2974
 -10930781.64147  -8503883.23243  22548245.0234                   22548245.5864
   -762238.172 6                  24202004.227
 -24792186.45348 -19303446.50444  21629900.2504                   21629898.8754
 -17309776.36747 -13473073.36343  22587813.2424                   22587816.0164
 -16742868.44947 -13032913.31043  21907704.3984                   21907703.6214
  -3034966.727 6                  24435675.953
 11  9 24  0 56  0.0000000  0 10G29G12G02G30G15G18G05G25G26G21
 -22467168.87948 -17494614.97544  20973255.6094                   20973254.7734
 -15612377.574 6                  23666658.188
 -24610908.10947 -19162313.51643  22802275.7424                   22802273.3054
 -10588197.80147  -8236959.22543  22919221.8984                   22919222.6994
 -11039285.07847  -8588431.35343  22527597.9694                   22527598.1334
   -865700.88746   -664344.08353  24182315.8524                   24182320.5904
 -24740036.40248 -19262810.07444  21639823.8204                   21639823.0634
 -17263636.82447 -13437120.51544  22596593.6254                   22596596.1994
 -16823043.27347 -13095387.17843  21892447.1254                   21892447.3444
  -3113684.12946  -2423514.08653  24420697.4304                   24420699.2384
 11  9 24  0 56 30.0000000  0 10G29G12G02G30G15G18G05G25G26G21
 -22540941.38748 -17552099.95445  20959217.2114                   20959216.1484
 -15536991.50846 -12092342.15653  23681004.6024                   23681006.4144
 -24578201.85947 -19136828.14943  22808499.8984                   22808497.7194
 -10572692.64547  -8224877.20643  22922173.0084                   22922172.9924
 -11147538.34447  -8672784.30543  22506997.4844                   22506997.8954
   -968942.85946   -744792.02453  24162669.4454                   24162672.0704
 -24687611.84848 -19221959.76644  21649799.7034                   21649798.7734
 -17217154.88347 -13400900.86943  22605438.6334                   22605441.4494
 -16902693.84047 -13157452.52543  21877290.1884                   21877290.1374
  -3192409.18446  -2484858.26652  24405715.8674                   24405713.9804
 11  9 24  0 57  0.0000000  0 10G29G12G02G30G15G18G05G25G26G21
 -22614328.39848 -17609284.59344  20945251.9534                   20945251.5044
 -15461540.25046 -12033549.03943  23695362.3754                   23695364.3364
 -24545358.96547 -19111236.24943  22814749.5164                   22814746.8054
 -10556697.58247  -8212413.61643  22925216.3834                   22925216.2544
 -11255538.16847  -8756940.01343  22486445.9534                   22486445.6484
  -1071962.86346   -825067.26242  24143065.2734                   24143066.9614
 -24634914.84448 -19180897.13744  21659827.8674                   21659826.2154
 -17170333.36747 -13364416.57143  22614348.3284                   22614351.7464
 -16981817.19547 -13219106.90143  21862233.9064                   21862232.8484
  -3271142.16846  -2546208.47742  24390733.0314                   24390734.5744
 11  9 24  0 57 30.0000000  0 10G29G12G02G30G15G18G05G25G26G21
 -22687330.25848 -17666169.09544  20931360.2814                   20931359.8874
 -15386030.195 6                  23709730.938
 -24512381.95747 -19085539.95243  22821024.8674                   22821022.8714
 -10540217.52747  -8199571.99443  22928352.4924                   22928353.9454
 -11363284.14147  -8840897.74043  22465942.0164                   22465942.2114
  -1174762.633 6                  24123502.688
 -24581950.62548 -19139626.33944  21669906.3984                   21669905.2304
 -17123177.91447 -13327672.08943  22623321.8134                   22623324.9804
 -17060412.63347 -13280350.04943  21847277.3524                   21847277.3164
  -3349885.84846  -2607567.02743  24375748.5634                   24375747.3014
 11  9 24  0 58  0.0000000  0 10G29G12G02G30G15G18G05G25G26G21
 -22759945.25848 -17722752.10744  20917541.7974                   20917541.1764
 -15310464.53146 -11915827.63453  23724111.3134                   23724114.4734
 -24479271.14847 -19059739.25643  22827325.6414                   22827324.0234
 -10523255.54347  -8186354.83543  22931580.2344                   22931580.1884
 -11470773.98447  -8924655.95143  22445487.5234                   22445487.5744
  -1277341.680 6                  24103982.836
 -24528722.41448 -19098149.78643  21680035.5084                   21680035.1214
 -17075692.32047 -13290670.36743  22632357.9454                   22632361.5314
 -17138477.82447 -13341179.99543  21832421.9454                   21832421.8874
  -3428641.19146  -2668934.51853  24360762.1564                   24360758.8444
 11  9 24  0 58 30.0000000  0 10G29G12G02G30G15G18G05G25G26G21
 -22832169.06648 -17779030.34145  20903798.0084                   20903797.4884
 -15234844.22746 -11856902.97853  23738501.8834                   23738501.2504
 -24446023.95747 -19033832.44643  22833652.5704                   22833650.3874
 -10505811.78947  -8172762.05743  22934899.9384                   22934900.0664
 -11578002.04347  -9008210.18243  22425082.4534                   22425082.9184
  -1379697.109 6                  24084504.992
 -24475230.51648 -19056467.77644  21690214.8754                   21690213.4384
 -17027877.30147 -13253411.92443  22641456.7814                   22641459.9654
 -17216007.56247 -13401592.71643  21817668.4224                   21817668.5944
  -3507406.61346  -2730310.35942  24345773.4924                   24345771.5784
 11  9 24  0 59  0.0000000  0 10G29G12G02G30G15G18G05G25G26G21
 -22904000.05148 -17835002.45044  20890128.9534                   20890127.7814
 -15159172.64546 -11797938.24642  23752900.4534                   23752902.3914
 -24412640.35247 -19007819.21243  22840004.5164                   22840002.8554
 -10487889.05147  -8158796.35443  22938310.1484                   22938311.0084
 -11684965.85947  -9091558.50943  22404727.6954                   22404727.4884
  -1481828.48846  -1144446.36352  24065069.6024                   24065071.0474
 -24421477.58248 -19014582.33544  21700443.4534                   21700442.6764
 -16979736.45747 -13215899.63443  22650618.3594                   22650621.4654
 -17292999.45748 -13461586.27643  21803017.6484                   21803017.6054
  -3586182.77046  -2791694.42953  24330782.7664                   24330775.1724
 11  9 24  0 59 30.0000000  0 10G29G12G02G30G15G18G05G25G26G21
 -22975436.13348 -17890666.85744  20876534.9614                   20876534.8094
 -15083453.33246 -11738936.06753  23767309.7194                   23767306.9494
 -24379120.27047 -18981699.59443  22846383.3444                   22846380.5514
 -10469490.22747  -8144459.57143  22941811.5314                   22941811.8754
 -11791662.94147  -9174698.96143  22384424.2974                   22384425.1054
  -1583735.176 6                  24045677.914
 -24367466.59448 -18972495.84044  21710721.7734                   21710720.9224
 -16931273.14147 -13178136.04843  22659840.3984                   22659843.2464
 -17369450.81247 -13521158.75043  21788469.2664                   21788468.1684
  -3664970.44946  -2853086.96643  24315789.6254                   24315787.1024
 11  9 24  1  0  0.0000000  0 10G29G12G02G30G15G18G05G25G26G21
 -23046475.34848 -17946022.01944  20863016.9304                   20863016.3634
 -15007689.27046 -11679899.25743  23781727.9534                   23781726.9064
 -24345463.78147 -18955473.85643  22852788.4224                   22852786.2424
 -10450617.84447  -8129753.92543  22945402.8984                   22945403.0314
 -11898090.29347  -9257629.30543  22364171.9534                   22364172.2034
  -1685416.062 6                  24026327.359
 -24313200.19548 -18930210.30144  21721048.1174                   21721047.5354
 -16882490.64147 -13140123.74543  22669122.9454                   22669127.2704
 -17445358.88747 -13580307.78043  21774023.8054                   21774024.7304
  -3743770.23446  -2914489.19952  24300794.9614                   24300795.0744
 11  9 24  1  0 30.0000000  0 10G29G12G02G30G15G18G05G25G26G21
 -23117115.96548 -18001066.57644  20849574.4534                   20849573.5124
 -14931883.50846 -11620829.96142  23796152.9224                   23796152.5474
 -24311670.69547 -18929141.51143  22859218.6174                   22859216.9534
 -10431274.45747  -8114681.01543  22949083.7194                   22949083.9224
 -12004245.09847  -9340347.28843  22343971.0474                   22343971.2304
  -1786870.719 6                  24007021.281
 -24258680.93748 -18887727.76044  21731422.5004                   21731421.3244
 -16833392.10547 -13101865.12043  22678466.2274                   22678469.6684
 -17520720.92247 -13639031.30243  21759683.1334                   21759683.2544
  -3822582.35946  -2975901.17642  24285796.8594                   24285796.9574
 11  9 24  1  1  0.0000000  0 10G29G12G02G30G15G18G05G25G26G21
 -23187354.16448 -18055797.56345  20836208.3984                   20836207.1294
 -14856037.86346 -11561729.48042  23810585.8984                   23810585.0744
 -24277739.37147 -18902701.52843  22865675.6254                   22865673.4694
 -10411461.29347  -8099241.98643  22952854.1094                   22952854.3204
 -12110123.07447  -9422849.39443  22323823.3364                   22323823.2384
  -1888096.859 6                  23987758.352
 -24203909.75448 -18845048.93244  21741845.4774                   21741844.3914
 -16783979.34447 -13063361.67643  22687869.1094                   22687872.9454
 -17595532.52047 -13697326.01443  21745447.1334                   21745446.4924
  -3901405.92646  -3037321.83543  24270797.3054                   24270796.7304
 11  9 24  1  1 30.0000000  0 10G29G12G02G30G15G18G05G25G26G21
 -23257188.69548 -18110214.03445  20822919.2194                   20822918.3014
 -14780155.81646 -11502600.68953  23825026.0784                   23825023.1524
 -24243670.04747 -18876154.08743  22872159.2584                   22872156.5474
 -10391181.49647  -8083439.59743  22956712.7344                   22956713.8714
 -12215721.87147  -9505134.04943  22303728.0314                   22303728.2934
  -1989094.266 6                  23968539.273
 -24148889.82448 -18802176.20243  21752314.9224                   21752314.3714
 -16734256.09447 -13024616.40743  22697331.3134                   22697334.0634
 -17669791.58247 -13755190.16443  21731315.9924                   21731315.8164
  -3980241.97347  -3098752.70143  24255795.1484                   24255794.9804
 11  9 24  1  2  0.0000000  0 10G29G12G02G30G15G18G05G25G26G21
 -23326617.62148 -18164314.42945  20809707.5234                   20809706.8204
 -14704240.49246 -11443446.05043  23839472.0394                   23839472.8014
 -24209462.98047 -18849499.14443  22878668.2274                   22878666.0354
 -10370437.96947  -8067275.72643  22960660.3524                   22960661.8714
 -12321038.75847  -9587198.98243  22283686.9064                   22283687.4264
  -2089862.102 6                  23949363.672
 -24093624.25048 -18759112.12944  21762831.9614                   21762831.2304
 -16684225.93447 -12985631.92943  22706851.6414                   22706855.2584
 -17743495.55147 -13812621.69643  21717289.8754                   21717289.5354
  -4059091.344 6                  24240790.625
 11  9 24  1  2 30.0000000  0 10G29G12G02G30G15G18G05G25G26G21
 -23395637.41048 -18218096.02644  20796573.4224                   20796572.4884
 -14628294.621 6                  23853924.531
 -24175116.54747 -18822735.60343  22885204.4614                   22885202.2584
 -10349231.93047  -8050751.47543  22964695.6954                   22964696.6134
 -12426069.33247  -9669040.90943  22263700.4144                   22263699.5864
  -2190398.34846  -1696586.32253  23930232.7584                   23930231.8164
 -24038113.86348 -18715857.25444  21773395.1644                   21773394.6094
 -16633890.49647 -12946409.45143  22716430.5474                   22716433.0824
 -17816640.46947 -13869617.71843  21703371.1644                   21703371.0634
  -4137952.92247  -3221644.07852  24225784.0634                   24225778.4534
 11  9 24  1  3  0.0000000  0 10G29G12G02G30G15G18G05G25G26G21
 -23464247.23448 -18271558.18545  20783517.1884                   20783516.9304
 -14552321.758 6                  23868381.414
 -24140631.45747 -18795864.05643  22891766.4844                   22891764.1844
 -10327567.10547  -8033869.74143  22968817.7274                   22968819.8914
 -12530811.75447  -9750658.28843  22243768.5394                   22243767.9734
  -2290703.832 6                  23911144.477
 -23982362.51248 -18672414.67044  21784004.4924                   21784004.0664
 -16583254.26247 -12906952.72243  22726066.3054                   22726069.4264
 -17889224.60547 -13926176.74944  21689558.6254                   21689558.6724
  -4216828.12947  -3283105.15642  24210774.8054                   24210771.8404
 11  9 24  1  3 30.0000000  0 10G29G12G02G30G15G18G05G25G26G21
 -23532443.57448 -18324698.13745  20770539.9774                   20770539.2344
 -14476323.47746 -11265848.48453  23882843.4304                   23882845.0354
 -24106005.80947 -18768883.10443  22898355.2114                   22898353.1254
 -10305444.87946  -8016631.59543  22973027.6094                   22973028.6294
 -12635261.93447  -9832047.94743  22223892.2974                   22223892.4774
  -2390776.44146  -1852724.75953  23892101.4694                   23892101.6484
 -23926371.50448 -18628785.30744  21794659.0864                   21794658.8054
 -16532319.09447 -12867262.97543  22735758.6254                   22735761.3914
 -17961243.92647 -13982295.55343  21675854.1644                   21675853.8324
  -4295716.51647  -3344576.49242  24195761.9144                   24195761.2894
 11  9 24  1  4  0.0000000  0 10G29G12G02G30G15G18G05G25G26G21
 -23600225.34848 -18377515.05844  20757641.5394                   20757641.3054
 -14400303.63346 -11206612.20853  23897309.5314                   23897310.6414
 -24071240.74647 -18741793.40043  22904970.8134                   22904968.2664
 -10282868.81247  -7999039.76243  22977324.1884                   22977324.9264
 -12739417.57847  -9913208.09043  22204071.9144                   22204070.9024
  -2490615.812 6                  23873102.031
 -23870144.10948 -18584971.72144  21805358.4384                   21805357.6254
 -16481089.02347 -12827343.43143  22745507.5634                   22745510.6604
 -18032696.44148 -14037972.83343  21662257.2034                   21662257.2704
  -4374618.80547  -3406058.69552  24180747.8444                   24180746.8284
 11  9 24  1  4 30.0000000  0 10G29G12G02G30G15G18G05G25G26G21
 -23667591.72748 -18430008.24245  20744821.8834                   20744821.2664
 -14324266.66446 -11147362.64843  23911778.4924                   23911781.3284
 -24036336.89547 -18714595.48443  22911612.6564                   22911610.8404
 -10259842.65246  -7981097.42543  22981705.5004                   22981705.9694
 -12843277.16848  -9994137.55343  22184307.6954                   22184306.7704
  -2590222.53546  -2008136.92153  23854148.2274                   23854144.8054
 -23813683.76248 -18540976.62244  21816102.8054                   21816101.6884
 -16429568.35247 -12787197.55143  22755311.5234                   22755314.2544
 -18103580.69548 -14093207.20743  21648768.0864                   21648767.9774
  -4453536.89847  -3467553.16743  24165729.8134                   24165728.5164
 11  9 24  1  5  0.0000000  0 10G29G12G02G30G15G18G05G25G26G21
 -23734539.59448 -18482175.41345  20732082.0864                   20732081.6294
 -14248214.43446 -11088101.27153  23926251.0554                   23926250.5744
 -24001293.15247 -18687288.77443  22918281.6414                   22918280.0864
 -10236367.99647  -7962805.40943  22986172.3984                   22986174.2934
 -12946836.64547 -10074833.09943  22164601.2344                   22164601.0594
  -2689594.70746  -2085569.88742  23835237.8754                   23835234.5864
 -23756992.03148 -18496801.28544  21826890.8284                   21826890.0394
 -16377759.21147 -12746826.65943  22765170.6954                   22765173.6884
 -18173893.09447 -14147996.03343  21635388.4534                   21635387.6454
  -4532469.61747  -3529060.19654  24150708.9614                   24150706.3594
 11  9 24  1  5 30.0000000  0 10G29G12G02G30G15G18G05G25G26G21
 -23801065.64548 -18534013.88645  20719422.6644                   20719421.5204
 -14172148.453 6                  23940726.039
 -23966108.13747 -18659871.88243  22924976.6954                   22924975.0274
 -10212446.41847  -7944165.20643  22990724.7274                   22990725.4534
 -13050092.20747 -10155291.95843  22144952.2424                   22144951.8054
  -2788730.762 6                  23816372.602
 -23700070.09048 -18452446.49544  21837722.8674                   21837722.1724
 -16325663.81247 -12706233.01643  22775084.0944                   22775086.5824
 -18243629.92647 -14202336.34843  21622117.6564                   21622116.9804
  -4611416.67247  -3590582.13053  24135686.3054                   24135689.8204
 11  9 24  1  6  0.0000000  0 10G29G12G02G30G15G18G05G25G26G21
 -23867169.29348 -18585523.16645  20706843.5394                   20706842.8484
 -14096073.78146 -10969550.26153  23955202.8834                   23955206.1294
 -23930782.63347 -18632345.45743  22931699.2584                   22931697.7154
 -10188082.24647  -7925180.12543  22995360.7424                   22995361.6294
 -13153042.12147 -10235512.51943  22125361.6254                   22125360.9184
  -2887631.074 6                  23797552.625
 -23642922.20748 -18407915.70044  21848597.7274                   21848597.4964
 -16273286.80547 -12665419.70343  22785051.0474                   22785054.3324
 -18312789.66047 -14256226.96343  21608956.7814                   21608955.8244
  -4690379.64547  -3652111.78553  24120659.5864                   24120659.3954
 11  9 24  1  6 30.0000000  0 10G29G12G02G30G15G18G05G25G26G21
 -23932847.69948 -18636701.11344  20694345.0864                   20694343.9224
 -14019992.059 6                  23969680.859
 -23895315.53547 -18604708.74643  22938448.6954                   22938445.7854
 -10163276.89847  -7905851.25243  23000081.4534                   23000082.0354
 -13255682.28147 -10315491.78743  22105829.4144                   22105828.8874
  -2986294.03946  -2316763.61553  23778777.4144                   23778777.7344
 -23585549.41448 -18363209.60944  21859515.1564                   21859514.8404
 -16220630.24247 -12624388.71243  22795071.3754                   22795074.3404
 -18381368.91047 -14309665.35144  21595906.5554                   21595906.1524
  -4769357.88747  -3713653.13342  24105631.0164                   24105629.1414
 11  9 24  1  7  0.0000000  0 10G29G12G02G30G15G18G05G25G26G21
 -23998099.04348 -18687546.30745  20681928.8054                   20681927.7384
 -13943907.19946 -10850978.89453  23984159.7814                   23984162.4964
 -23859707.30947 -18576962.23043  22945225.0554                   22945222.1294
 -10138033.93447  -7886181.42743  23004884.8284                   23004885.4924
 -13358010.64848 -10395228.06043  22086356.8674                   22086357.5044
  -3084719.62546  -2393458.68452  23760047.7344                   23760048.2194
 -23527955.18448 -18318330.95844  21870474.9534                   21870473.8204
 -16167698.12147 -12583142.83843  22805144.0554                   22805148.2464
 -18449365.84048 -14362649.90443  21582967.1094                   21582966.6844
  -4848352.69947  -3775207.46853  24090598.5704                   24090596.1134
 11  9 24  1  7 30.0000000  0 10G29G12G02G30G15G18G05G25G26G21
 -24062921.47348 -18738057.28845  20669592.8834                   20669592.0314
 -13867822.03146 -10791691.96142  23998637.6414                   23998642.2814
 -23823957.57847 -18549105.22843  22952027.5474                   22952025.9534
 -10112355.92247  -7866172.66643  23009771.6334                   23009771.7974
 -13460024.03947 -10474718.92344  22066944.6094                   22066944.4064
  -3182906.79746  -2469968.19043  23741363.1954                   23741362.6884
 -23470141.68747 -18273281.47644  21881476.4304                   21881475.8834
 -16114493.44947 -12541684.71143  22815268.3754                   22815272.1994
 -18516777.46948 -14415178.36243  21570139.2814                   21570139.0314
  -4927363.89147  -3836774.46152  24075563.1804                   24075562.0864
 11  9 24  1  8  0.0000000  0 10G29G12G02G30G15G18G05G25G26G21
 -24127311.66848 -18788231.42745  20657340.2504                   20657339.1294
 -13791737.91047 -10732405.88053  24013116.2114                   24013118.5944
 -23788064.30147 -18521136.29943  22958857.5004                   22958855.0744
 -10086244.19547  -7845825.77443  23014739.5164                   23014741.2544
 -13561718.50448 -10553961.23443  22047592.5784                   22047591.7854
  -3280853.71146  -2546290.43043  23722724.1254                   23722725.0594
 -23412110.14547 -18228062.10744  21892519.7344                   21892518.8094
 -16061018.05947 -12500015.66643  22825444.3984                   22825448.1294
 -18583600.03547 -14467247.85343  21557423.2894                   21557422.4654
  -5006390.48047  -3898353.57853  24060524.7734                   24060519.6094
 11  9 24  1  8 30.0000000  0 10G29G12G02G30G15G18G05G25G26G21
 -24191268.25048 -18838067.68345  20645169.6954                   20645168.2344
 -13715658.39547 -10673123.83553  24027593.6484                   24027600.5904
 -23752028.60247 -18493056.54043  22965715.2974                   22965713.1454
 -10059702.18747  -7825143.79343  23019790.6954                   23019793.0274
 -13663091.43448 -10632953.10343  22028301.9454                   22028302.0124
  -3378559.906 6                  23704130.836
 -23353863.42647 -18182675.01844  21903603.6174                   21903602.6374
 -16007275.86347 -12458138.62543  22835671.2504                   22835673.9614
 -18649831.59048 -14518856.75244  21544819.7274                   21544819.6994
  -5085433.52047  -3959945.51043  24045482.7194                   24045479.0984
 11  9 24  1  9  0.0000000  0 10G29G12G02G30G15G18G05G25G26G21
 -24254788.85948 -18887564.27845  20633081.6564                   20633080.0594
 -13639586.23447 -10613846.95352  24042069.6254                   24042071.8554
 -23715849.44147 -18464864.95343  22972599.6484                   22972597.6414
 -10032732.25047  -7804128.20943  23024923.1414                   23024925.6024
 -13764139.69547 -10711691.88544  22009072.8594                   22009071.9884
  -3476024.62546  -2698371.06252  23685583.9614                   23685583.0394
 -23295403.43747 -18137121.76244  21914728.5234                   21914726.5234
 -15953269.68047 -12416055.90443  22845948.4454                   22845952.0394
 -18715469.20747 -14570002.89243  21532329.4774                   21532328.6414
  -5164492.77347  -4021550.00353  24030439.1644                   24030438.5044
 11  9 24  1  9 30.0000000  0 10G29G12G02G30G15G18G05G25G26G21
 -24317871.59848 -18936719.63844  20621077.6724                   20621076.5084
 -13563524.61347 -10554578.10942  24056543.9384                   24056544.0704
 -23679526.87947 -18436561.63043  22979511.2114                   22979509.1254
 -10005337.66846  -7782781.75643  23030136.1644                   23030137.7154
 -13864860.57448 -10790175.55843  21989906.0394                   21989905.9454
  -3573247.535 6                  23667082.859
 -23236733.19547 -18091404.65444  21925892.8204                   21925891.9654
 -15899003.14547 -12373770.33343  22856274.9534                   22856277.8984
 -18780510.85948 -14620684.64343  21519952.1414                   21519952.4144
  -5243569.19946  -4083167.99643  24015390.3594                   24015391.8164
 11  9 24  1 10  0.0000000  0 10G29G12G02G30G15G18G05G25G26G21
 -24380515.78947 -18985533.25845  20609157.0864                   20609155.6844
 -13487477.11347 -10495320.46853  24071014.9844                   24071019.7934
 -23643061.44147 -18408147.03343  22986451.0084                   22986447.8754
  -9977522.18046  -7761107.41243  23035429.4304                   23035430.8874
 -13965252.33247 -10868402.85043  21970801.9844                   21970801.3524
  -3670229.00046  -2849698.83253  23648627.8284                   23648628.9494
 -23177856.33247 -18045526.58544  21937096.4614                   21937095.9734
 -15844480.38747 -12331285.08043  22866650.4144                   22866654.1564
 -18844954.98047 -14670900.81743  21507688.4224                   21507688.8204
  -5322663.79346  -4144799.79943  24000339.6334                   24000340.1994
 11  9 24  1 10 30.0000000  0 10G29G12G02G30G15G18G05G25G26G21
 -24442715.83248 -19034000.82445  20597320.3834                   20597319.7344
 -13411443.90647 -10436073.97153  24085484.1724                   24085488.1054
 -23606449.48847 -18379618.23343  22993417.4224                   22993415.2814
  -9949285.02747  -7739104.47543  23040802.9064                   23040803.3754
 -14065308.64848 -10946368.68544  21951762.3364                   21951761.1914
  -3766964.80147  -2925077.31243  23630219.5314                   23630219.1844
 -23118771.59047 -17999486.54143  21948340.0704                   21948339.4224
 -15789701.25447 -12288600.10343  22877074.8674                   22877078.0594
 -18908795.71547 -14720646.78243  21495540.1804                   21495539.7584
  -5401773.62547  -4206443.83243  23985285.3054                   23985285.4344
 11  9 24  1 11  0.0000000  0 10G29G12G02G30G15G18G05G25G26G21
 -24504473.16447 -19082123.37345  20585568.8134                   20585567.5474
 -13335430.88346 -10376843.02553  24099947.7584                   24099949.5824
 -23569694.04747 -18350977.78443  23000412.0784                   23000410.1414
  -9920632.54746  -7716777.91343  23046254.8914                   23046255.9694
 -14165029.92648 -11024073.48843  21932785.8914                   21932785.4654
  -3863457.613 6                  23611857.195
 -23059484.62147 -17953288.87243  21959621.8984                   21959621.0824
 -15734672.23047 -12245720.37143  22887546.2504                   22887549.2894
 -18972033.91447 -14769923.24444  21483506.3204                   21483506.0474
  -5480902.14847  -4268102.44653  23970227.7274                   23970228.5004
 11  9 24  1 11 30.0000000  0 10G29G12G02G30G15G18G05G25G26G21
 -24565785.53548 -19129899.22945  20573901.3054                   20573900.1684
 -13259441.09446 -10317630.37542  24114409.2034                   24114411.4454
 -23532795.14847 -18322225.17043  23007434.1414                   23007430.8054
  -9891567.45347  -7694129.75643  23051786.0234                   23051786.8054
 -14264413.23848 -11101514.94143  21913874.0634                   21913873.2304
  -3959707.02347  -3075265.57452  23593541.9614                   23593541.6524
 -22999997.93447 -17906935.64544  21970942.4774                   21970941.2194
 -15679396.62947 -12202648.50343  22898064.7194                   22898069.3794
 -19034667.12547 -14818728.26843  21471587.5864                   21471587.4804
  -5560049.61747  -4329775.41743  23955166.1644                   23955165.1054
 11  9 24  1 12  0.0000000  0 10G29G12G02G30G15G18G05G25G26G21
 -24626650.37548 -19177326.34545  20562318.8284                   20562318.4694
 -13183476.527 6                  24128864.680
 -23495751.35947 -18293359.91143  23014482.7424                   23014479.9184
  -9862091.78547  -7671161.69943  23057395.2974                   23057394.9454
 -14363455.01248 -11178690.19544  21895026.3834                   21895026.3404
  -4055710.92247  -3150073.80743  23575272.6484                   23575272.1054
 -22940312.97347 -17860427.82643  21982299.6254                   21982298.3444
 -15623876.78947 -12159386.29443  22908630.2424                   22908633.0704
 -19096692.49648 -14867059.66343  21459784.4614                   21459784.6994
  -5639215.58246  -4391463.22143  23940101.1954                   23940099.9104
 11  9 24  1 12 30.0000000  0 10G29G12G02G30G15G18G05G25G26G21
 -24687065.71948 -19224403.19845  20550821.8054                   20550821.4844
 -13107539.69547 -10199265.89253  24143315.5704                   24143317.9694
 -23458562.10247 -18264381.18043  23021559.5634                   23021556.3164
  -9832207.91846  -7647875.74443  23063081.8754                   23063081.9184
 -14462151.75448 -11255596.66243  21876245.2734                   21876244.8954
  -4151468.69547  -3224690.07343  23557050.8754                   23557050.4494
 -22880431.79747 -17813767.27743  21993695.2194                   21993694.2974
 -15568115.52047 -12115935.98443  22919241.1254                   22919243.9734
 -19158106.82047 -14914914.95544  21448097.9694                   21448097.6644
  -5718399.66047  -4453165.06643  23925033.0474                   23925033.4694
 11  9 24  1 13  0.0000000  0 10G29G12G02G30G15G18G05G25G26G21
 -24747031.06248 -19271129.38345  20539411.3754                   20539410.7734
 -13031635.34047 -10140119.71443  24157759.5234                   24157762.8364
 -23421228.99647 -18235290.43043  23028663.9454                   23028661.3714
  -9801920.77347  -7624275.34243  23068845.3444                   23068846.2464
 -14560502.89848 -11332233.84744  21857529.3594                   21857528.8094
  -4246981.76647  -3299115.60743  23538875.4144                   23538875.1914
 -22820358.76647 -17766957.00343  22005125.9924                   22005125.4344
 -15512118.02747 -12072301.60143  22929896.6414                   22929900.6254
 -19218910.07847 -14962294.07743  21436527.0474                   21436526.7664
  -5797604.23847  -4514882.66442  23909960.9384                   23909959.8984
 11  9 24  1 13 30.0000000  0 10G29G12G02G30G15G18G05G25G26G21
 -24806544.52348 -19317503.49145  20528086.1804                   20528085.4064
 -12955765.98047 -10081000.93043  24172197.2664                   24172199.2544
 -23383751.47747 -18206087.16043  23035795.7344                   23035793.2424
  -9771233.02346  -7600362.79243  23074684.9454                   23074686.1994
 -14658505.04348 -11408599.07444  21838880.1254                   21838879.7774
  -4342249.32447  -3373349.98253  23520745.7274                   23520742.6764
 -22760095.82447 -17719998.91843  22016593.9924                   22016593.0474
 -15455887.32047 -12028485.56343  22940597.3594                   22940600.3244
 -19279099.48447 -15009194.81244  21425073.8284                   21425073.2624
  -5876829.33247  -4576616.31443  23894885.0634                   23894884.4414
 11  9 24  1 14  0.0000000  0 10G29G12G02G30G15G18G05G25G26G21
 -24865603.59848 -19363523.49645  20516847.4454                   20516846.5124
 -12879934.63347 -10021911.65143  24186627.5704                   24186628.9654
 -23346128.96947 -18176770.94143  23042955.3594                   23042952.4414
  -9740147.12947  -7576140.22143  23080600.6024                   23080601.1054
 -14756155.00048 -11484689.85244  21820298.1644                   21820297.9734
  -4437270.11347  -3447392.07543  23502664.3284                   23502662.5824
 -22699644.86747 -17672894.26343  22028097.3134                   22028096.2504
 -15399426.23047 -11984489.90743  22951341.8674                   22951345.0474
 -19338672.56247 -15055615.30744  21413737.1724                   21413736.9654
  -5956074.77647  -4638365.86143  23879804.7274                   23879803.9304
 11  9 24  1 14 30.0000000  0 10G29G12G02G30G15G18G05G25G26G21
 -24924206.35547 -19409187.93145  20505695.8204                   20505695.0394
 -12804143.67247  -9962853.71443  24201050.0004                   24201052.5164
 -23308361.02747 -18147341.44043  23050141.9454                   23050139.5394
  -9708665.83247  -7551609.25543  23086591.7974                   23086591.7424
 -14853449.84048 -11560503.90643  21801783.0704                   21801783.0354
  -4532043.60947  -3521241.35942  23484628.6724                   23484630.5594
 -22639008.50847 -17625645.14443  22039635.8204                   22039635.0984
 -15342737.91447 -11940317.23543  22962129.0704                   22962132.4064
 -19397626.84847 -15101553.61143  21402518.5164                   21402518.1994
  -6035340.51247  -4700131.23943  23864721.0314                   23864719.8674
 11  9 24  1 15  0.0000000  0 10G29G12G02G30G15G18G05G25G26G21
 -24982349.45748 -19454494.16345  20494631.5314                   20494630.7504
 -12728394.02047  -9903828.15843  24215464.9924                   24215466.6604
 -23270445.99647 -18117797.23043  23057357.0554                   23057354.3444
  -9676790.82446  -7526771.68243  23092656.7664                   23092657.0634
 -14950385.39548 -11636038.03143  21783336.9454                   21783336.4844
  -4626567.57446  -3594896.33053  23466641.8834                   23466642.4344
 -22578187.23447 -17578251.87944  22051209.8444                   22051209.7464
 -15285824.22747 -11895968.86943  22972959.0084                   22972963.5004
 -19455958.95747 -15147007.15443  21391418.0944                   21391417.0394
  -6114625.81247  -4761911.99843  23849633.2664                   23849632.1884
 11  9 24  1 15 30.0000000  0 10G29G12G02G30G15G18G05G25G26G21
 -25040031.02348 -19499440.80845  20483655.3594                   20483654.2544
 -12652689.07047  -9844837.35242  24229871.0554                   24229872.7814
 -23232382.98047 -18088137.68743  23064600.2274                   23064598.0354
  -9644524.53146  -7501629.08443  23098797.0004                   23098797.4184
 -15046958.48048 -11711289.69743  21764959.5004                   21764958.7384
  -4720841.21947  -3668355.90453  23448701.6954                   23448703.2544
 -22517183.64847 -17530716.69043  22062818.8524                   22062817.4144
 -15228688.07847 -11851447.21743  22983831.7194                   22983834.4144
 -19513665.91447 -15191973.54643  21380436.4694                   21380436.4024
  -6193930.21147  -4823707.46843  23834542.4534                   23834540.1844
 11  9 24  1 16  0.0000000  0 10G29G12G02G30G15G18G05G25G26G21
 -25097250.54348 -19544027.36745  20472766.5234                   20472765.1914
 -12577033.20747  -9785884.84943  24244267.6724                   24244270.7854
 -23194173.73447 -18058364.31143  23071871.4064                   23071869.6374
  -9611871.64547  -7476185.29843  23105010.5784                   23105011.2194
 -15143168.02347 -11786258.08443  21746651.4304                   21746650.9064
  -4814865.98846  -3741622.37043  23430809.8594                   23430809.7384
 -22456001.44547 -17483042.17844  22074460.9844                   22074459.3094
 -15171334.25447 -11806755.98843  22994745.5314                   22994749.1684
 -19570747.30547 -15236452.41243  21369574.7734                   21369574.0434
  -6273255.75447  -4885519.37253  23819446.8754                   23819443.8984
 11  9 24  1 16 30.0000000  0 10G29G12G02G30G15G18G05G25G26G21
 -25154005.70348 -19588252.11945  20461966.3054                   20461965.6214
 -12501428.40647  -9726971.95453  24258654.7894                   24258655.0744
 -23155817.42247 -18028476.23443  23079169.6804                   23079168.6884
  -9578834.59046  -7450442.19043  23111297.3524                   23111297.9384
 -15239010.43448 -11860940.41444  21728413.0784                   21728412.9264
  -4908640.27347  -3814692.64552  23412964.7274                   23412963.9964
 -22394642.44147 -17435229.96543  22086137.0944                   22086136.2194
 -15113765.65247 -11761897.32343  23005701.0634                   23005704.2504
 -19627200.70347 -15280442.07443  21358832.0864                   21358831.2034
  -6352602.10547  -4947347.63243  23804347.3284                   23804346.3244
 11  9 24  1 17  0.0000000  0 10G29G12G02G30G15G18G05G25G26G21
 -25210294.77748 -19632113.70645  20451254.7734                   20451253.8204
 -12425877.55946  -9668101.45353  24273031.4454                   24273033.7664
 -23117313.68447 -17998473.33543  23086497.5234                   23086496.1414
  -9545416.22346  -7424401.83743  23117656.3054                   23117658.0824
 -15334483.24648 -11935334.72543  21710245.8984                   21710244.7304
  -5002163.78147  -3887567.92242  23395167.6884                   23395166.7894
 -22333108.87147 -17387281.75244  22097846.4304                   22097846.0474
 -15055985.39847 -11716873.81243  23016695.8674                   23016699.8954
 -19683023.91848 -15323940.58843  21348209.2584                   21348208.8834
  -6431969.18047  -5009191.94142  23789244.3284                   23789242.6134
 11  9 24  1 17 30.0000000  0 10G29G12G02G30G15G18G05G25G26G21
 -25266117.10248 -19675611.54545  20440632.1174                   20440631.1804
 -12350384.949 6                  24287397.094
 -23078663.53147 -17968356.31843  23093852.1174                   23093848.7384
  -9511620.91846  -7398067.93643  23124087.5314                   23124089.2114
 -15429584.93048 -12009439.84144  21692148.1644                   21692147.4734
  -5095437.52347  -3960248.71753  23377418.0004                   23377414.3054
 -22271404.68047 -17339200.48843  22109588.8754                   22109587.3834
 -14997998.17247 -11671688.94243  23027730.9454                   23027733.7304
 -19738216.10948 -15366947.42844  21337706.2664                   21337705.3094
  -6511359.03147  -5071053.94543  23774137.3444                   23774135.7194
 11  9 24  1 18  0.0000000  0 10G29G12G02G30G15G18G05G25G26G21
 -25321467.81648 -19718741.91445  20430098.8754                   20430098.5554
 -12274950.312 6                  24301751.953
 -23039863.77347 -17938122.84543  23101235.0164                   23101234.1684
  -9477448.78546  -7371440.25743  23130590.3594                   23130591.1334
 -15524309.59448 -12083251.19843  21674122.3834                   21674122.0594
  -5188457.79347  -4032731.81642  23359716.7424                   23359714.7894
 -22209528.74647 -17290985.50143  22121363.0634                   22121361.4884
 -14939804.23047 -11626343.13043  23038805.6094                   23038808.3244
 -19792772.23048 -15409458.65943  21327324.2814                   21327323.4104
  -6590768.38347  -5132931.26443  23759026.0704                   23759023.6484
 11  9 24  1 18 30.0000000  0 10G29G12G02G30G15G18G05G25G26G21
 -25376346.12148 -19761504.16145  20419656.3054                   20419654.9184
 -12199577.219 6                  24316095.672
 -23000914.82047 -17907773.04843  23108646.5944                   23108645.6604
  -9442903.41047  -7344521.84243  23137164.8204                   23137165.2734
 -15618655.13748 -12156767.11443  21656169.1484                   21656168.4804
  -5281224.66447  -4105017.63352  23342063.5084                   23342064.5664
 -22147484.37148 -17242639.24644  22133169.9224                   22133168.9844
 -14881407.41847 -11580839.07743  23049917.8594                   23049921.0474
 -19846690.94148 -15451473.14443  21317063.7424                   21317062.8834
  -6670198.31646  -5194824.53843  23743910.6804                   23743908.9304
 11  9 24  1 19  0.0000000  0 10G29G12G02G30G15G18G05G25G26G21
 -25430751.73848 -19803898.11845  20409302.7584                   20409302.0124
 -12124270.26247  -9433082.82253  24330426.2584                   24330433.3404
 -22961818.16846 -17877308.04943  23116086.9694                   23116084.3324
  -9407989.58646  -7317316.23443  23143807.5864                   23143809.6844
 -15712620.76248 -12229986.99544  21638288.2194                   21638287.4924
  -5373739.23847  -4177106.83843  23324459.1484                   23324458.1334
 -22085275.60247 -17194164.84343  22145007.5474                   22145006.8754
 -14822812.80547 -11535180.97043  23061067.8984                   23061070.2704
 -19899972.19948 -15492990.94944  21306924.7664                   21306924.4454
  -6749650.48847  -5256735.09043  23728791.6254                   23728789.8404
 11  9 24  1 19 30.0000000  0 10G29G12G02G30G15G18G05G25G26G21
 -25484683.23847 -19845922.63645  20399040.4694                   20399038.7934
 -12049032.23447  -9374456.01353  24344743.4454                   24344747.0434
 -22922573.83247 -17846727.98443  23123554.9774                   23123553.7734
  -9372710.62146  -7289825.98443  23150521.6414                   23150522.4144
 -15806203.84448 -12302908.80444  21620479.6094                   21620478.8444
  -5466001.57047  -4248999.39953  23306901.7664                   23306902.6024
 -22022904.64547 -17145564.08743  22156876.4844                   22156876.0664
 -14764023.86347 -11489371.45543  23072254.7274                   23072258.0554
 -19952614.16047 -15534010.58744  21296907.4144                   21296906.6724
  -6829125.49647  -5318663.58743  23713667.8594                   23713666.5164
 11  9 24  1 20  0.0000000  0 10G29G12G02G30G15G18G05G25G26G21
 -25538138.43048 -19887575.98245  20388867.9844                   20388866.9494
 -11973865.41047  -9315884.58242  24359046.8834                   24359049.8594
 -22883181.08246 -17816032.40743  23131051.5084                   23131049.7384
  -9337068.97746  -7262053.44743  23157303.8054                   23157304.9574
 -15899401.34448 -12375530.13444  21602744.3054                   21602745.0784
  -5558010.61747  -4320694.47743  23289393.3284                   23289393.8324
 -21960373.76247 -17096838.77843  22168775.9304                   22168775.0944
 -14705043.48847 -11443412.82743  23083478.4534                   23083482.1884
 -20004614.35547 -15574530.17243  21287012.2034                   21287011.5274
  -6908623.44547  -5380610.04643  23698539.9144                   23698538.8634
 11  9 24  1 20 30.0000000  0 10G29G12G02G30G15G18G05G25G26G21
 -25591114.73047 -19928856.17945  20378786.8754                   20378785.9184
 -11898771.85547  -9257370.19853  24373336.8674                   24373341.6684
 -22843638.47346 -17785219.94043  23138575.7424                   23138574.0274
  -9301066.91446  -7233999.86343  23164154.2894                   23164155.6254
 -15992209.22748 -12447847.91944  21585083.6804                   21585083.4024
  -5649764.64847  -4392191.15642  23271933.0164                   23271931.7544
 -21897684.02347 -17047989.63244  22180705.6644                   22180704.0164
 -14645873.93447 -11397306.71043  23094738.0314                   23094741.9534
 -20055969.95347 -15614547.46043  21277239.6884                   21277238.4534
  -6988143.17247  -5442573.36343  23683407.6484                   23683406.7424
 11  9 24  1 21  0.0000000  0 10G29G12G02G30G15G18G05G25G26G21
 -25643609.39148 -19969761.08245  20368797.3444                   20368796.0984
 -11823753.82447  -9198914.73253  24387612.5234                   24387617.1024
 -22803945.04746 -17754290.11543  23146129.1174                   23146128.1724
  -9264706.55147  -7205667.20353  23171073.9694                   23171072.8634
 -16084624.14148 -12519859.42444  21567497.7424                   21567496.9734
  -5741263.21147  -4463488.57743  23254520.9924                   23254519.9454
 -21834836.94947 -16999017.80944  22192664.4144                   22192663.6414
 -14586517.59847 -11351054.98643  23106033.0704                   23106036.5514
 -20106678.27047 -15654060.41343  21267590.0004                   21267588.4924
  -7067684.08646  -5504553.12243  23668270.7974                   23668270.1954
 11  9 24  1 21 30.0000000  0 10G29G12G02G30G15G18G05G25G26G21
 -25695620.39548 -20010289.09845  20358900.2894                   20358898.9574
 -11748813.35547  -9140519.56143  24401873.8524                   24401875.4304
 -22764100.23047 -17723242.01743  23153711.7344                   23153709.4144
  -9227990.53946  -7177057.28542  23178060.5634                   23178061.1994
 -16176643.10548 -12591562.40443  21549987.3364                   21549986.4734
  -5832504.89547  -4534585.83743  23237158.5084                   23237158.3794
 -21771834.44147 -16949924.99243  22204653.5944                   22204652.1994
 -14526977.35947 -11304660.13343  23117363.4924                   23117367.6804
 -20156736.88747 -15693067.03544  21258063.8984                   21258063.7274
  -7147246.10546  -5566549.17253  23653130.6804                   23653127.9774
 11  9 24  1 22  0.0000000  0 10G29G12G02G30G15G18G05G25G26G21
 -25747146.03148 -20050438.91145  20349094.7734                   20349093.9454
 -11673953.21147  -9082187.16042  24416119.6564                   24416121.5824
 -22724103.66046 -17692075.72543  23161322.6724                   23161319.8484
  -9190921.92647  -7148172.63643  23185115.2194                   23185115.9264
 -16268263.39548 -12662954.76244  21532552.1724                   21532551.5354
  -5923489.36747  -4605482.73743  23219844.2424                   23219844.0004
 -21708678.59847 -16900712.62743  22216671.7584                   22216670.7114
 -14467256.47347 -11258124.33243  23128728.0634                   23128731.6994
 -20206144.21547 -15731566.20044  21248661.8834                   21248661.4844
  -7226829.05946  -5628562.05843  23637986.6414                   23637985.6524
 11  9 24  1 22 30.0000000  0 10G29G12G02G30G15G18G05G25G26G21
 -25798185.50448 -20090209.88045  20339382.4694                   20339381.9224
 -11599177.24246  -9023920.24153  24430348.5004                   24430350.0124
 -22683956.34046 -17660792.27743  23168962.2814                   23168960.5044
  -9153505.06247  -7119016.52943  23192234.5554                   23192235.9454
 -16359483.35947 -12734035.18143  21515193.3914                   21515192.9574
  -6014217.17247  -4676179.55542  23202579.2424                   23202577.9344
 -21645373.00847 -16851383.52743  22228717.8754                   22228717.1684
 -14407359.32847 -11211451.15843  23140126.3754                   23140128.4964
 -20254899.48047 -15769557.23344  21239384.0704                   21239383.9494
  -7306434.20346  -5690591.86243  23622838.2274                   23622835.7114
 11  9 24  1 23  0.0000000  0 10G29G12G02G30G15G18G05G25G26G21
 -25848737.46548 -20129601.00745  20329762.8594                   20329760.8954
 -11524488.48846  -8965721.39142  24444561.0784                   24444563.8364
 -22643658.15646 -17629391.15343  23176630.8594                   23176628.7154
  -9115743.23446  -7089591.94943  23199420.6484                   23199421.4654
 -16450300.93748 -12804802.07544  21497911.0004                   21497911.0314
  -6104688.60247  -4746676.68643  23185362.6334                   23185362.4774
 -21581920.11747 -16801939.73843  22240793.1564                   22240792.3094
 -14347289.48447 -11164643.65643  23151556.9144                   23151560.5514
 -20303001.35548 -15807039.18643  21230230.2584                   21230229.7504
  -7386062.09846  -5752639.19143  23607685.1094                   23607684.0314
 11  9 24  1 23 30.0000000  0 10G29G12G02G30G15G18G05G25G26G21
 -25898800.04348 -20168610.79845  20320236.1564                   20320235.1684
 -11449889.31246  -8907592.09442  24458757.1884                   24458761.0004
 -22603208.52746 -17597871.87843  23184328.1174                   23184324.4734
  -9077639.055 6                  23206671.570
 -16540712.39848 -12875252.43644  21480706.5944                   21480705.7584
  -6194902.07847  -4816972.80153  23168195.6954                   23168195.9694
 -21518321.68047 -16752382.47943  22252895.8914                   22252894.2704
 -14287049.65647 -11117703.51043  23163019.8594                   23163022.8634
 -20350447.46148 -15844010.14343  21221201.8914                   21221201.5004
  -7465712.20346  -5814704.25842  23592527.5634                   23592527.0474
 11  9 24  1 24  0.0000000  0 10G29G12G02G30G15G18G05G25G26G21
 -25948372.09048 -20207238.31845  20310802.5784                   20310801.7074
 -11375382.727 5                  24472935.453
 -22562607.65646 -17566234.73543  23192054.0084                   23192052.6954
  -9039196.14547  -7029944.65853  23213987.2894                   23213987.4304
 -16630716.02348 -12945385.08444  21463579.7504                   21463578.3794
  -6284858.09047  -4887068.11543  23151077.1414                   23151077.6024
 -21454580.22748 -16702713.79943  22265025.0554                   22265024.9184
 -14226643.64547 -11070633.87243  23174514.9534                   23174519.1684
 -20397236.52048 -15880469.05344  21212298.4224                   21212297.6884
  -7545385.16046  -5876787.09643  23577366.4774                   23577367.1764
 11  9 24  1 24 30.0000000  0 10G29G12G02G30G15G18G05G25G26G21
 -25997449.92648 -20245480.76945  20301463.2734                   20301462.0664
 -11300969.344 6                  24487096.563
 -22521853.46946 -17534478.38143  23199809.3834                   23199807.2074
  -9000415.566 6                  23221366.758
 -16720306.94548 -13015196.13944  21446530.8984                   21446529.8204
  -6374554.25847  -4956961.15943  23134008.8204                   23134008.0784
 -21390696.25447 -16652934.08743  22277181.7664                   22277180.1564
 -14166072.71547 -11023435.85143  23186041.3284                   23186044.5004
 -20443364.76648 -15916413.10243  21203520.1884                   21203519.5704
  -7625079.26646  -5938886.11253  23562201.4454                   23562199.6374
 11  9 24  1 25  0.0000000  0 10G29G12G02G30G15G18G05G25G26G21
 -26046033.93447 -20283338.43045  20292218.2114                   20292217.1414
 -11226654.664 6                  24501237.672
 -22480947.48446 -17502603.45543  23207593.5314                   23207591.4144
  -8961302.62547  -6969248.61653  23228809.9924                   23228809.9734
 -16809484.49248 -13084685.03444  21429560.9614                   21429559.9574
  -6463992.35947  -5026653.15553  23116989.4694                   23116987.1804
 -21326674.09848 -16603046.64543  22289364.8204                   22289363.7934
 -14105342.25447 -10976113.29043  23197597.5634                   23197601.4654
 -20488833.05548 -15951842.85643  21194868.2274                   21194867.3794
  -7704796.73046  -6001003.56343  23547031.2274                   23547030.4104
 11  9 24  1 25 30.0000000  0 10G29G12G02G30G15G18G05G25G26G21
 -26094123.11348 -20320810.46145  20283067.3984                   20283066.3834
 -11152441.09846  -8675814.84452  24515360.6024                   24515359.4184
 -22439890.01246 -17470610.64343  23215406.6724                   23215404.0314
  -8921860.83646  -6938514.57043  23236315.7664                   23236316.6484
 -16898246.97748 -13153850.54844  21412669.9454                   21412669.3874
  -6553172.36747  -5096143.72943  23100018.2974                   23100017.5084
 -21262516.24247 -16553053.50843  22301573.8754                   22301572.3484
 -14044455.92247 -10928669.40343  23209183.6884                   23209188.2304
 -20533639.89548 -15986757.27843  21186341.3134                   21186340.1764
  -7784537.99647  -6063139.52743  23531857.4694                   23531856.8244
 11  9 24  1 26  0.0000000  0 10G29G12G02G30G15G18G05G25G26G21
 -26141714.35948 -20357894.51845  20274011.0784                   20274009.5204
 -11078330.051 6                  24529462.805
 -22398679.48046 -17438498.59143  23223249.0084                   23223246.3754
  -8882091.91847  -6907525.86943  23243883.1644                   23243883.5824
 -16986590.19948 -13222689.33344  21395858.7424                   21395857.7344
  -6642092.48047  -5165431.77843  23083097.9924                   23083096.7304
 -21198223.41447 -16502955.20443  22313808.0554                   22313807.2194
 -13983415.53947 -10881105.54543  23220799.9384                   23220803.5084
 -20577782.27048 -16021153.81244  21177941.3364                   21177940.8404
  -7864301.48847  -6125292.65643  23516679.0394                   23516676.3634
 11  9 24  1 26 30.0000000  0 10G29G12G02G30G15G18G05G25G26G21
 -26188806.75448 -20394589.84945  20265049.7034                   20265048.1134
 -11004325.25846  -8560400.01353  24543545.7034                   24543549.6094
 -22357316.35946 -17406267.39543  23231119.3204                   23231118.1884
  -8841999.85947  -6876285.29443  23251512.5554                   23251512.5634
 -17074512.25048 -13291199.90844  21379127.8054                   21379126.3244
  -6730752.93447  -5234517.58353  23066226.0784                   23066224.5634
 -21133798.68447 -16452754.06943  22326067.6094                   22326066.1954
 -13922225.15647 -10833424.85143  23232443.9224                   23232446.8324
 -20621259.45348 -16055032.11143  21169668.0554                   21169666.9264
  -7944088.31647  -6187464.13543  23501495.8204                   23501493.7814
 11  9 24  1 27  0.0000000  0 10G29G12G02G30G15G18G05G25G26G21
 -26235398.07448 -20430894.73045  20256183.6644                   20256182.3794
 -10930428.41047  -8502817.93843  24557608.1484                   24557610.1914
 -22315799.62546 -17373916.95443  23239019.7734                   23239017.6604
  -8801587.00847  -6844794.72742  23259202.4534                   23259203.6914
 -17162009.87548 -13359379.81044  21362477.1884                   21362476.1484
  -6819152.97747  -5303400.82852  23049403.8444                   23049403.5864
 -21069243.34847 -16402451.23043  22338351.9924                   22338350.6254
 -13860887.27347 -10785628.99543  23244116.3914                   23244120.3674
 -20664069.26248 -16088390.33943  21161521.4224                   21161519.8914
  -8023897.99647  -6249653.32843  23486308.5944                   23486306.4384
 11  9 24  1 27 30.0000000  0 10G29G12G02G30G15G18G05G25G26G21
 -26281487.32848 -20466808.41745  20247413.2974                   20247411.5554
 -10856642.65647  -8445322.96143  24571649.0004                   24571650.4534
 -22274129.73446 -17341446.82443  23246949.5634                   23246948.4264
  -8760857.10246  -6813057.24143  23266954.0784                   23266954.6764
 -17249080.97748 -13427227.36244  21345908.1884                   21345907.3634
  -6907292.72347  -5372080.94743  23032631.2814                   23032631.2974
 -21004560.45747 -16352048.93043  22350660.7504                   22350659.1094
 -13799405.68047 -10737721.31343  23255816.2974                   23255818.4884
 -20706210.78548 -16121227.84044  21153501.9844                   21153501.2344
  -8103730.91847  -6311860.79943  23471116.6644                   23471114.0274
 11  9 24  1 28  0.0000000  0 10G29G12G02G30G15G18G05G25G26G21
 -26327070.32848 -20502327.61445  20238738.9534                   20238737.3984
 -10782968.11746  -8387914.28043  24585668.4924                   24585670.6024
 -22232303.527 6                  23254908.758
  -8719810.48046  -6781073.01843  23274764.4694                   23274765.1764
 -17335720.42248 -13494738.53144  21329421.2424                   21329419.8954
  -6995169.03147  -5440555.84442  23015908.9614                   23015907.8754
 -20939748.97747 -16301546.43143  22362993.8284                   22362993.0634
 -13737780.78947 -10689701.93443  23267543.2814                   23267545.9734
 -20747679.52048 -16153541.05744  21145610.7894                   21145609.6484
  -8183584.32847  -6374084.12743  23455921.4774                   23455919.0634
 11  9 24  1 28 30.0000000  0 10G29G12G02G30G15G18G05G25G26G21
 -26372145.90648 -20537451.40145  20230161.0634                   20230160.0204
 -10709407.30546  -8330594.40343  24599667.4534                   24599670.6054
 -22190321.27347 -17276141.49252  23262897.8594                   23262895.5784
  -8678450.69547  -6748844.39243  23282634.5704                   23282636.0314
 -17421925.88348 -13561911.58144  21313017.0554                   21313015.9964
  -7082782.02047  -5508825.46453  22999236.5634                   22999236.8834
 -20874811.85947 -16250946.07743  22375350.6174                   22375349.8634
 -13676016.27747 -10641573.80543  23279296.1564                   23279298.9654
 -20788474.66448 -16185329.40943  21137847.5634                   21137846.5554
  -8263458.68047  -6436323.97243  23440721.6644                   23440718.9184
 11  9 24  1 29  0.0000000  0 10G29G12G02G30G15G18G05G25G26G21
 -26416713.85548 -20572179.62245  20221680.2114                   20221679.1994
 -10635964.992 6                  24613642.703
 -22148184.05147 -17243307.26943  23270916.2194                   23270914.5474
  -8636782.30547  -6716375.68243  23290564.0314                   23290565.5354
 -17507696.15648 -13628745.46644  21296695.2424                   21296694.2424
  -7170132.60947  -5576890.59143  22982614.6724                   22982612.9344
 -20809752.28547 -16200250.31743  22387731.5784                   22387730.9184
 -13614116.68047 -10593340.30943  23291075.2034                   23291078.1804
 -20828595.87548 -16216592.65243  21130213.0394                   21130211.7384
  -8343355.39547  -6498580.89343  23425517.6174                   23425515.5434
 11  9 24  1 29 30.0000000  0  9G29G02G30G15G18G05G25G26G21
 -26460773.63748 -20606511.90445  20213295.8914                   20213294.2774
 -22105892.74247 -17210353.03143  23278964.1884                   23278961.4104
  -8594809.60246  -6683669.77843  23298551.0314                   23298551.9924
 -17593029.89548 -13695239.23544  21280456.5084                   21280455.3054
  -7257221.78547  -5644752.28743  22966041.4694                   22966041.4774
 -20744573.76247 -16149461.82443  22400134.7974                   22400133.2344
 -13552086.39147 -10545005.08643  23302879.1884                   23302883.8674
 -20868043.15648 -16247330.73444  21122706.2584                   21122705.4534
  -8423275.75047  -6560856.39243  23410309.4774                   23410306.4844
 11  9 24  1 30  0.0000000  0  9G29G02G30G15G18G05G25G26G21
 -26504321.81248 -20640445.51245  20205008.8914                   20205007.8714
 -22063444.73847 -17177276.65043  23287041.6954                   23287039.6294
  -8552533.41447  -6650727.39643  23306596.0864                   23306598.2384
 -17677922.16848 -13761388.95444  21264302.0634                   21264301.1684
  -7344047.03947  -5712408.08843  22949519.1644                   22949517.6684
 -20679275.66847 -16098580.23043  22412560.6564                   22412559.3914
 -13489926.29747 -10496568.56943  23314707.6094                   23314711.2854
 -20906812.78148 -16277540.81243  21115328.5704                   21115327.0634
  -8503216.94147  -6623148.13743  23395097.0314                   23395094.3134
 11  9 24  1 30 30.0000000  0  9G29G02G30G15G18G05G25G26G21
 -26547351.50448 -20673975.08345  20196820.5234                   20196819.1844
 -22020834.43447 -17144073.78043  23295150.0164                   23295147.4574
  -8509951.46947  -6617546.84143  23314699.3834                   23314701.5904
 -17762365.08248 -13827188.64944  21248233.3364                   21248232.2734
  -7430602.55947  -5779853.90143  22933047.6174                   22933046.5394
 -20613854.89547 -16047602.97743  22425009.7974                   22425009.0004
 -13427634.17247 -10448029.27043  23326561.7344                   23326565.0434
 -20944898.05148 -16307217.56943  21108081.0394                   21108080.2624
  -8583173.89547  -6685452.07943  23379881.2194                   23379879.1524
 11  9 24  1 31  0.0000000  0  9G29G02G30G15G18G05G25G26G21
 -26589856.01248 -20707095.43745  20188732.0004                   20188731.0864
 -21978056.73047 -17110740.62643  23303290.4384                   23303287.5864
  -8467062.17647  -6584126.45243  23322860.7344                   23322862.1294
 -17846351.48448 -13892632.43944  21232251.1954                   21232250.3594
  -7516883.04347  -5847085.12643  22916629.1094                   22916627.8834
 -20548308.67647 -15996528.00243  22437482.5394                   22437481.1914
 -13365208.48447 -10399385.97443  23338440.5704                   23338443.3874
 -20982292.68448 -16336356.18043  21100964.9694                   21100964.0354
  -8663141.75047  -6747764.77643  23364663.8444                   23364662.6294
 11  9 24  1 31 30.0000000  0  9G29G02G30G15G18G05G25G26G21
 -26631838.47348 -20739809.00045  20180743.0784                   20180742.1524
 -21935115.68747 -17077279.98243  23311461.7894                   23311459.0314
  -8423872.84847  -6550472.45143  23331079.3284                   23331080.3954
 -17929882.76648 -13957721.69144  21216355.5554                   21216354.7194
  -7602892.74647  -5914105.55943  22900261.7734                   22900259.5354
 -20482643.27747 -15945360.12143  22449978.5234                   22449977.5554
 -13302656.44147 -10350644.15043  23350343.6644                   23350347.8714
 -21018999.60948 -16364958.91944  21093980.2114                   21093979.2704
  -8743124.55147  -6810088.85543  23349443.5944                   23349441.8164
 11  9 24  1 32  0.0000000  0  9G29G02G30G15G18G05G25G26G21
 -26673299.62148 -20772116.38545  20172853.1414                   20172852.0704
 -21892013.12547 -17043693.49343  23319664.4454                   23319661.7234
  -8380388.99646  -6516588.97743  23339354.5084                   23339354.7234
 -18012958.81648 -14022456.22844  21200546.5474                   21200544.7704
  -7688633.29747  -5980916.32443  22883945.9304                   22883944.1604
 -20416863.11347 -15894102.92143  22462496.1334                   22462495.3554
 -13239983.68447 -10301808.25243  23362270.4224                   23362273.7584
 -21055020.13748 -16393026.79744  21087125.3524                   21087124.0354
  -8823124.62947  -6872426.55143  23334220.2274                   23334219.5124
 11  9 24  1 32 30.0000000  0  9G29G02G30G15G18G05G25G26G21
 -25138816.05548 -19576414.85745  20464855.7974                   20464854.6564
 -20273329.59847 -15782381.69043  23627688.6644                   23627685.6174
  -6761194.62146  -5254879.19543  23647477.1644                   23647478.1214
 -16520153.78148 -12859231.44944  21484618.0864                   21484616.9654
  -6198681.09047  -4819914.40243  23167474.2974                   23167473.3094
 -18775551.69947 -14615158.93743  22774827.2734                   22774827.0274
 -11601774.75447  -9025281.78543  23674011.1414                   23674014.9654
 -19514930.81248 -15192957.14944  21380194.5944                   21380193.6914
  -7327718.51247  -5707174.91743  23618786.2814                   23618784.9774
 11  9 24  1 33  0.0000000  0  9G29G02G30G15G18G05G25G26G21
 -25179233.42248 -19607908.87645  20457164.7974                   20457163.5904
 -20229906.44546 -15748545.25643  23635952.5004                   23635949.3954
  -6717134.14546  -5220546.28953  23655861.0004                   23655861.9804
 -16602315.23448 -12923253.29344  21468983.3204                   21468981.8594
  -6283885.67647  -4886307.48743  23151260.5394                   23151260.3594
 -18709551.04347 -14563729.88343  22787386.6804                   22787385.4304
 -11538872.87947  -8976267.30843  23685981.0944                   23685985.1094
 -19549577.43748 -15219954.46044  21373601.4454                   21373600.2424
  -7407754.85557  -5769540.56153  23603555.8524                   23603554.9574
 11  9 24  1 33 30.0000000  0  9G29G02G30G15G18G05G25G26G21
 -25219128.71548 -19638996.08145  20449572.7894                   20449571.4574
 -20186324.52047 -15714585.16243  23644245.5164                   23644241.5234
  -6672791.97346  -5185994.07143  23664299.1724                   23664301.8284
 -16684017.32848 -12986917.17044  21453436.0084                   21453434.3714
  -6368824.32847  -4952493.32443  23135096.1804                   23135094.6994
 -18643445.07847 -14512218.74443  22799966.3364                   22799964.5554
 -11475863.17647  -8927169.00143  23697971.5554                   23697974.8364
 -19583537.09448 -15246416.50944  21367139.1414                   21367137.9844
  -7487812.68447  -5831923.34443  23588321.1564                   23588319.4104
 11  9 24  1 34  0.0000000  0  9G29G02G30G15G18G05G25G26G21
 -25258500.47748 -19669675.36545  20442080.3364                   20442079.0434
 -20142583.82047 -15680501.73852  23652569.0164                   23652565.4184
  -6628171.42247  -5151224.83743  23672790.4454                   23672790.9344
 -16765258.03947 -13050221.55244  21437976.3054                   21437975.3284
  -6453496.35247  -5018471.35543  23118984.8204                   23118983.3674
 -18577235.78147 -14460627.08343  22812565.3364                   22812563.7304
 -11412748.84447  -8877989.02443  23709981.2114                   23709985.0944
 -19616809.01248 -15272342.63443  21360807.8594                   21360806.8554
  -7567890.80546  -5894321.80053  23573083.1414                   23573081.0234
 11  9 24  1 34 30.0000000  0  9G29G02G30G15G18G05G25G26G21
 -25297348.93748 -19699946.84645  20434688.0084                   20434686.5394
 -20098685.52347 -15646295.35753  23660922.4614                   23660916.3594
  -6583277.25847  -5116242.40652  23681333.9534                   23681334.4694
 -16846036.27347 -13113165.55944  21422604.3914                   21422603.1374
  -6537903.00047  -5084242.57143  23102922.4614                   23102920.4774
 -18510926.87947 -14408957.79843  22825183.6564                   22825182.5204
 -11349534.62947  -8828731.25243  23722011.1564                   23722014.5084
 -19649393.58248 -15297733.18044  21354606.9694                   21354606.3754
  -7647990.77746  -5956737.26343  23557840.0944                   23557838.2504
 11  9 24  1 35  0.0000000  0  9G29G02G30G15G18G05G25G26G21
 -25335673.46148 -19729810.08545  20427395.2734                   20427393.4024
 -20054629.48046 -15611965.85952  23669306.0474                   23669303.0124
  -6538113.04347  -5081049.48643  23689928.3834                   23689928.7464
 -16926350.24247 -13175747.76144  21407321.1254                   21407319.6684
  -6622044.31247  -5149807.33243  23086910.9144                   23086908.9344
 -18444520.61747 -14357212.57743  22837820.5004                   22837819.0474
 -11286223.99247  -8779398.23543  23734058.9224                   23734062.1724
 -19681290.07048 -15322587.48744  21348537.2664                   21348536.9614
  -7728112.89846  -6019169.94142  23542593.3444                   23542591.4224
 11  9 24  1 35 30.0000000  0  9G29G02G30G15G18G05G25G26G21
 -25373470.90248 -19759262.61145  20420202.3984                   20420201.1174
 -20010414.20346 -15577512.57843  23677720.1954                   23677717.6764
  -6492680.23446  -5045647.35343  23698573.2194                   23698575.7384
 -17006195.79347 -13237965.05444  21392126.8914                   21392125.1884
  -6705918.81247  -5215164.03143  23070949.5864                   23070948.2664
 -18378017.49247 -14305392.04743  22850475.4384                   22850474.6684
 -11222818.49247  -8729991.37443  23746124.5474                   23746127.9574
 -19712495.77048 -15346903.57143  21342598.9224                   21342597.2234
  -7808255.76646  -6081618.80942  23527343.0704                   23527340.0514
 11  9 24  1 36  0.0000000  0  9G29G02G30G15G18G05G25G26G21
 -25410742.52348 -19788305.40845  20413109.6174                   20413108.3714
 -19966042.17646 -15542936.70352  23686163.9384                   23686161.5784
  -6446984.99246  -5010040.56642  23707269.2274                   23707270.4414
 -17085573.24247 -13299817.52144  21377021.7034                   21377021.1684
  -6789528.95747  -5280314.58843  23055039.0864                   23055038.1134
 -18311421.77347 -14253499.29843  22863147.9694                   22863146.8164
 -11159324.05147  -8680515.21743  23758206.8054                   23758210.9414
 -19743012.46148 -15370682.79844  21336791.8914                   21336790.7934
  -7888421.46147  -6144085.58143  23512087.9064                   23512085.8014
 11  9 24  1 36 30.0000000  0  9G29G02G30G15G18G05G25G26G21
 -25447484.72748 -19816935.65245  20406117.8444                   20406116.6524
 -19921510.87947 -15508237.12643  23694638.1024                   23694636.2704
  -6401028.15647  -4974230.04943  23716014.4064                   23716015.0744
 -17164478.19148 -13361301.82744  21362006.6564                   21362005.0514
  -6872872.31247  -5345257.41043  23039179.7114                   23039178.3324
 -18244733.58247 -14201534.47143  22875837.9844                   22875836.9534
 -11095741.68447  -8630970.63043  23770306.7664                   23770308.7774
 -19772837.18048 -15393922.82544  21331116.1414                   21331115.6644
  -7968608.12147  -6206568.49054  23496828.5634                   23496826.3284
 11  9 24  1 37  0.0000000  0  9G29G02G30G15G18G05G25G26G21
 -25483697.68448 -19845153.54945  20399227.0314                   20399225.9654
 -19876820.89546 -15473413.60643  23703142.3204                   23703140.5434
  -6354813.90246  -4938219.07953  23724808.9924                   23724810.9224
 -17242909.07448 -13422416.75944  21347081.5864                   21347080.5044
  -6955949.55147  -5409992.74643  23023370.2194                   23023368.7974
 -18177955.55947 -14149499.63343  22888545.8834                   22888544.2544
 -11032075.29747  -8581360.38654  23782422.1254                   23782425.4804
 -19801969.73048 -15416623.39544  21325572.5634                   21325572.0124
  -8048816.19947  -6269068.19853  23481565.2114                   23481563.4614
 11  9 24  1 37 30.0000000  0  9G29G02G30G15G18G05G25G26G21
 -25519379.95348 -19872957.87345  20392436.7344                   20392435.5514
 -19831972.14847 -15438466.63343  23711676.5314                   23711675.7304
  -6308345.23047  -4902009.51143  23733651.2504                   23733652.2274
 -17320863.58248 -13483160.43344  21332247.3134                   21332245.8794
  -7038760.35547  -5474520.52943  23007611.9304                   23007610.4694
 -18111089.73047 -14097396.38843  22901270.2664                   22901268.9064
 -10968327.91447  -8531687.14953  23794552.7344                   23794556.3954
 -19830409.13748 -15438783.94344  21320160.8364                   21320159.5634
  -8129045.39147  -6331584.42643  23466298.3674                   23466295.6724
 11  9 24  1 38  0.0000000  0  9G29G02G30G15G18G05G25G26G21
 -25554531.01648 -19900348.29845  20385747.6954                   20385746.8634
 -19786964.96947 -15403396.14142  23720241.3754                   23720239.6484
  -6261626.18447  -4865605.17543  23742541.5314                   23742543.1954
 -17398339.97747 -13543531.58344  21317504.0784                   21317502.3914
  -7121305.48047  -5538841.34643  22991903.9694                   22991902.0084
 -18044138.89147 -14045226.84543  22914010.0474                   22914009.3244
 -10904503.50047  -8481953.93442  23806698.0784                   23806701.2704
 -19858155.12948 -15460404.10744  21314881.0164                   21314879.7584
  -8209296.36347  -6394117.62543  23451026.8054                   23451024.6414
 11  9 24  1 38 30.0000000  0  9G29G02G30G15G18G05G25G26G21
 -25589149.26648 -19927323.50345  20379160.1644                   20379157.9654
 -19741798.85246 -15368201.82453  23728836.1724                   23728834.7664
  -6214659.78147  -4829007.82353  23751479.4144                   23751479.4414
 -17475335.74248 -13603528.23744  21302852.1254                   21302851.2854
  -7203584.43447  -5602954.58753  22976247.0084                   22976246.1644
 -17977104.64547 -13992992.37343  22926766.4694                   22926765.6294
 -10840604.85947  -8432162.66443  23818857.6564                   23818860.6294
 -19885207.01248 -15481483.48143  21309733.0784                   21309732.5594
  -8289568.57047  -6456667.23643  23435751.7584                   23435748.3284
 11  9 24  1 39  0.0000000  0  9G29G02G30G15G18G05G25G26G21
 -25623232.18448 -19953881.61545  20372674.2664                   20372672.8364
 -19696472.38346 -15332882.38443  23737460.7734                   23737459.3754
  -6167447.83247  -4792219.44942  23760463.1414                   23760464.6374
 -17551847.33248 -13663147.58744  21288292.6174                   21288290.9144
  -7285595.61347  -5666859.43843  22960640.7734                   22960639.2504
 -17909987.46547 -13940693.31743  22939538.5084                   22939537.8914
 -10776633.89547  -8382315.37942  23831030.5554                   23831033.9694
 -19911562.17248 -15502019.95643  21304717.3204                   21304716.7504
  -8369860.73447  -6519232.51243  23420472.2664                   23420470.6454
 11  9 24  1 39 30.0000000  0  9G29G02G30G15G18G05G25G26G21
 -25656780.90648 -19980023.44945  20366290.0784                   20366288.8984
 -19650987.50847 -15297439.75943  23746116.8984                   23746115.7194
  -6119995.85547  -4755243.78343  23769493.0394                   23769494.1134
 -17627874.96548 -13722389.84044  21273824.6954                   21273823.6024
  -7367341.19547  -5730557.19643  22945084.4614                   22945082.5044
 -17842791.72747 -13888332.98743  22952325.3284                   22952324.4494
 -10712595.99647  -8332415.71143  23843216.8524                   23843220.9614
 -19937222.60548 -15522015.02944  21299834.7274                   21299833.8524
  -8450175.18447  -6581815.17843  23405188.4614                   23405187.0514
 11  9 24  1 40  0.0000000  0  9G29G02G30G15G18G05G25G26G21
 -25689793.72748 -20005747.71145  20360007.7194                   20360006.3404
 -19605343.48846 -15261872.90642  23754802.7584                   23754801.5434
  -6072306.43047  -4718083.09643  23778568.2424                   23778569.5394
 -17703415.36348 -13781252.43144  21259450.2814                   21259448.3674
  -7448820.45347  -5794047.28243  22929579.5314                   22929578.7544
 -17775518.58647 -13835912.34543  22965127.6564                   22965126.1884
 -10648493.44547  -8282465.76743  23855414.7194                   23855419.5124
 -19962186.57447 -15541467.46343  21295084.2974                   21295083.0664
  -8530510.91447  -6644414.24943  23389900.9534                   23389899.1684
 11  9 24  1 40 30.0000000  0  9G29G02G30G15G18G05G25G26G21
 -25722268.55548 -20031052.73345  20353828.2034                   20353826.5044
 -19559539.52347 -15226181.56343  23763519.0554                   23763517.8834
  -6024382.07847  -4680739.41453  23787687.8134                   23787691.0314
 -17778465.84048 -13839733.23444  21245168.2034                   21245166.8794
  -7530032.67247  -5857329.41643  22914124.7274                   22914124.3244
 -17708168.95347 -13783432.20943  22977943.1564                   22977941.8634
 -10584328.81247  -8232467.33943  23867625.4924                   23867629.9344
 -19986452.80148 -15560376.11844  21290466.2814                   21290464.6174
  -8610867.00447  -6707029.42743  23374610.0164                   23374607.4574
 11  9 24  1 41  0.0000000  0  9G29G02G30G15G18G05G25G26G21
 -25754205.04748 -20055938.29145  20347750.8984                   20347749.2194
 -19513575.62547 -15190365.34643  23772265.5474                   23772263.2034
  -5976226.35247  -4643215.58642  23796851.0474                   23796852.9304
 -17853024.37548 -13897830.72344  21230979.7734                   21230978.8554
  -7610977.57047  -5920403.39343  22898722.2194                   22898720.2544
 -17640745.14147 -13730894.11543  22990773.8284                   22990773.1684
 -10520105.51647  -8182423.09043  23879845.9534                   23879850.1024
 -20010021.09047 -15578740.99644  21285981.3834                   21285980.4454
  -8691243.24247  -6769660.22243  23359315.3914                   23359313.4024
 11  9 24  1 41 30.0000000  0  9G29G02G30G15G18G05G25G26G21
 -25785601.69948 -20080403.18945  20341775.9454                   20341775.0354
 -19467451.12147 -15154424.30253  23781042.6254                   23781041.7114
  -5927842.31647  -4605513.76053  23806059.1644                   23806060.4924
 -17927088.77348 -13955543.18344  21216885.9534                   21216885.2074
  -7691655.57047  -5983269.17543  22883368.9534                   22883367.8714
 -17573248.91047 -13678299.65943  23003617.8204                   23003617.2704
 -10455826.31247  -8132335.65243  23892078.2584                   23892081.8014
 -20032890.35248 -15596561.16044  21281629.8594                   21281628.5904
  -8771639.29747  -6832306.28643  23344016.1254                   23344014.2194
 11  9 24  1 42  0.0000000  0  9G29G02G30G15G18G05G25G26G21
 -25816458.27048 -20104447.25845  20335904.4064                   20335903.6414
 -19421167.10546 -15118358.80053  23789849.8914                   23789847.9534
  -5879234.07447  -4567637.23753  23815308.0234                   23815310.9184
 -18000657.61748 -14012869.49744  21202885.8834                   21202884.3524
  -7772067.14147  -6045927.34143  22868067.4304                   22868064.6764
 -17505683.22747 -13625651.02643  23016475.0164                   23016474.4614
 -10391495.39847  -8082207.78843  23904320.4384                   23904324.2584
 -20055061.16047 -15613837.10944  21277410.6484                   21277409.2344
  -8852056.02047  -6894968.59043  23328713.3364                   23328711.3714
 11  9 24  1 42 30.0000000  0  9G29G02G30G15G18G05G25G26G21
 -25846773.09048 -20128069.15645  20330135.7894                   20330134.0164
 -19374722.46546 -15082168.06243  23798688.2424                   23798685.7734
  -5830404.07447  -4529587.74753  23824600.3054                   23824601.3244
 -18073728.00848 -14069807.38644  21188981.7974                   21188980.4144
  -7852211.47347  -6108377.47043  22852816.1334                   22852814.0984
 -17438048.81647 -13572948.89043  23029345.5554                   23029343.9264
 -10327114.99647  -8032041.14143  23916571.3204                   23916574.6564
 -20076532.09047 -15630567.65844  21273324.4924                   21273324.0394
  -8932492.16047  -6957646.05643  23313406.9224                   23313404.1914
 11  9 24  1 43  0.0000000  0  9G29G02G30G15G18G05G25G26G21
 -25876545.90248 -20151268.71245  20324470.0634                   20324468.8794
 -19328117.70746 -15045852.75043  23807557.5634                   23807554.9884
  -5781356.50846  -4491368.86943  23833933.7664                   23833934.5594
 -18146298.56248 -14126355.83144  21175171.2974                   21175170.8524
  -7932089.12947  -6170619.83343  22837616.1254                   22837613.2624
 -17370348.54347 -13520195.53043  23042227.8674                   23042226.6994
 -10262689.07447  -7981839.30243  23928831.6024                   23928835.4844
 -20097303.59048 -15646753.21244  21269371.8594                   21269370.6524
  -9012948.15247  -7020338.93743  23298096.5864                   23298094.3914
 11  9 24  1 43 30.0000000  0  9G29G02G30G15G18G05G25G26G21
 -25905775.74648 -20174045.20945  20318907.8524                   20318906.5744
 -19281352.66847 -15009412.50053  23816456.1174                   23816453.8794
  -5732094.37146  -4452982.84842  23843308.2034                   23843308.2194
 -18218367.14148 -14182513.09244  21161457.3284                   21161455.4344
  -8011700.23447  -6232654.37043  22822466.6414                   22822463.9534
 -17302584.18047 -13467392.05143  23055123.1804                   23055122.5084
 -10198220.52747  -7931604.05443  23941099.6024                   23941103.5744
 -20117374.79748 -15662393.06844  21265552.5234                   21265550.9104
  -9093424.77047  -7083047.93343  23282782.2584                   23282780.1604
 11  9 24  1 44  0.0000000  0  9G29G02G30G15G18G05G25G26G21
 -25934462.80948 -20196398.72645  20313448.7274                   20313447.7304
 -19234428.91846 -14972848.34743  23825385.7114                   23825382.2814
  -5682622.44146  -4414433.23953  23852722.2274                   23852725.8244
 -18289933.55148 -14238279.07844  21147839.0864                   21147837.1804
  -8091046.09847  -6294482.03943  22807367.2194                   22807364.7974
 -17234759.01647 -13414541.34643  23068030.3834                   23068029.3244
 -10133713.97347  -7881339.28243  23953374.3134                   23953379.0664
 -20136746.77348 -15677488.09243  21261866.1334                   21261865.8914
  -9173922.71947  -7145773.51543  23267463.4614                   23267461.6454
 11  9 24  1 44 30.0000000  0  9G29G02G30G15G18G05G25G26G21
 -25962605.62548 -20218328.18445  20308093.4064                   20308092.0784
 -19187345.72346 -14936160.29343  23834344.3444                   23834342.9144
  -5632943.63746  -4375722.34643  23862175.7974                   23862178.7194
 -18360994.64548 -14293651.26044  21134316.4224                   21134314.7584
  -8170126.37947  -6356102.90443  22792318.9924                   22792318.5234
 -17166874.44147 -13361644.21643  23080948.4454                   23080947.0864
 -10069172.10546  -7831046.96543  23965656.1094                   23965660.9344
 -20155418.85248 -15692037.72044  21258312.6884                   21258311.3594
  -9254440.92247  -7208514.98443  23252141.6174                   23252138.8164
 11  9 24  1 45  0.0000000  0  9G29G02G30G15G18G05G25G26G21
 -25990200.78948 -20239830.88845  20302842.3284                   20302840.8324
 -19140099.98446 -14899345.42343  23843335.2814                   23843332.4574
  -5583058.18746  -4336850.66042  23871669.1174                   23871670.4804
 -18431545.62148 -14348626.03144  21120890.8284                   21120889.4534
  -8248938.09847  -6417514.53643  22777321.6644                   22777320.1564
 -17098928.89147 -13308699.66743  23093877.8134                   23093876.0434
 -10004595.01646  -7780727.43153  23977944.7114                   23977949.9224
 -20173387.78948 -15706039.45243  21254893.6024                   21254892.5904
  -9334976.31247  -7271269.81043  23236816.1334                   23236813.7154
 11  9 24  1 45 30.0000000  0  9G29G02G30G15G18G05G25G26G21
 -26017250.51648 -20260908.57345  20297694.8134                   20297692.7384
 -19092694.57847 -14862406.23553  23852356.4534                   23852352.6564
  -5532972.35246  -4297822.72342  23881198.8284                   23881201.2584
 -18501587.61348 -14403204.14244  21107562.2274                   21107561.0704
  -8327484.12947  -6478719.05543  22762374.2814                   22762372.3874
 -17030927.71947 -13255711.78843  23106818.6254                   23106816.5164
  -9939988.80546  -7730384.78143  23990239.2274                   23990243.9574
 -20190656.26648 -15719495.35744  21251607.7664                   21251606.6214
  -9415531.85547  -7334040.16943  23221486.6644                   23221484.7114
 11  9 24  1 46  0.0000000  0  9G29G02G30G15G18G05G25G26G21
 -26043753.25448 -20281560.06045  20292651.4774                   20292650.5394
 -19045128.90246 -14825341.95653  23861407.4694                   23861406.4304
  -5482689.00046  -4258640.84042  23890768.5314                   23890769.4654
 -18571118.09048 -14457383.67344  21094330.9534                   21094329.7664
  -8405764.11747  -6539716.38843  22747477.7734                   22747476.4414
 -16962872.16447 -13202681.38143  23119768.8284                   23119767.6414
  -9875356.07846  -7680021.74843  24002538.6484                   24002542.1054
 -20207223.42248 -15732404.82044  21248454.8204                   21248452.8484
  -9496106.66447  -7396825.70343  23206154.0004                   23206151.4064
 11  9 24  1 46 30.0000000  0  9G29G02G30G15G18G05G25G26G21
 -26069706.14848 -20301783.08545  20287712.8754                   20287711.3014
 -18997400.68747 -14788151.38953  23870490.2114                   23870485.9064
  -5432209.24246  -4219305.97053  23900374.6024                   23900375.6334
 -18640133.22348 -14511161.63344  21081198.0164                   21081196.0204
  -8483775.96147  -6600504.75843  22732632.5164                   22732631.0004
 -16894762.11747 -13149608.74543  23132729.7734                   23132727.9844
  -9810697.93447  -7629638.78753  24014842.9844                   24014843.8404
 -20223086.96548 -15744765.96743  21245435.7194                   21245434.6484
  -9576698.50847  -7459624.48143  23190817.7114                   23190816.3984
 11  9 24  1 47  0.0000000  0  9G29G02G30G15G18G05G25G26G21
 -26095108.20348 -20321576.87945  20282878.8834                   20282877.0824
 -18949509.93446 -14750833.79753  23879602.7814                   23879600.5514
  -5381536.57446  -4179820.93442  23910016.6414                   23910017.6254
 -18708630.94948 -14564536.46244  21068163.0944                   21068162.1334
  -8561519.73047  -6661084.07643  22717838.6954                   22717837.4964
 -16826599.02747 -13096494.59843  23145700.1564                   23145699.0554
  -9746017.34047  -7579238.14343  24027150.9694                   24027153.7774
 -20238246.78948 -15756578.77343  21242551.1334                   21242549.5744
  -9657306.96147  -7522436.14943  23175478.7584                   23175476.3674
 11  9 24  1 47 30.0000000  0  9G29G02G30G15G18G05G25G26G21
 -26119960.00448 -20340941.88545  20278149.9694                   20278148.1524
 -18901457.99646 -14713390.68442  23888747.5784                   23888745.2194
  -5330675.59446  -4140188.91442  23919695.1954                   23919694.6334
 -18776610.65648 -14617507.57444  21055226.9694                   21055225.8914
  -8638997.01647  -6721455.99343  22703095.1414                   22703093.6604
 -16758386.44147 -13043341.84743  23158681.0234                   23158680.0124
  -9681318.92647  -7528823.84452  24039463.1414                   24039465.1214
 -20252704.03948 -15767844.13343  21239799.9144                   21239798.3594
  -9737933.05147  -7585261.70143  23160135.6414                   23160133.3524
 11  9 24  1 48  0.0000000  0  9G29G02G30G15G18G05G25G26G21
 -26144260.42648 -20359877.26545  20273525.7424                   20273524.3834
 -18853244.35546 -14675821.51252  23897922.7504                   23897919.2504
  -5279629.21946  -4100412.58242  23929409.2734                   23929410.0634
 -18844070.27048 -14670073.45645  21042389.7974                   21042388.4494
  -8716207.57447  -6781619.94243  22688402.3834                   22688400.5784
 -16690125.61747 -12990151.63643  23171670.3984                   23171669.5004
  -9616605.30547  -7478397.66243  24051777.2664                   24051780.8674
 -20266458.22748 -15778561.67743  21237182.6564                   21237181.5944
  -9818576.44147  -7648100.60443  23144789.7664                   23144787.7544
 11  9 24  1 48 30.0000000  0  9G29G02G30G15G18G05G25G26G21
 -26168007.92248 -20378381.77945  20269006.4774                   20269004.8244
 -18804868.06246 -14638125.77342  23907127.8754                   23907125.4654
  -5228399.66447  -4060493.46853  23939158.0394                   23939159.9964
 -18911006.69548 -14722231.65144  21029652.1334                   21029650.9694
  -8793150.30947  -6841575.21143  22673760.3284                   22673758.8404
 -16621817.23447 -12936924.37643  23184669.0314                   23184668.8444
  -9551878.52347  -7427961.07153  24064094.3284                   24064100.5514
 -20279508.33647 -15788730.56444  21234699.6094                   21234698.0474
  -9899235.67247  -7710951.80543  23129440.8134                   23129439.9414
 11  9 24  1 49  0.0000000  0  9G29G02G30G15G18G05G25G26G21
 -26191201.46548 -20396454.66745  20264593.1564                   20264591.1954
 -18756328.72346 -14600302.77042  23916363.8054                   23916362.1524
  -5176990.03547  -4020433.94152  23948941.2114                   23948943.0474
 -18977418.07048 -14773980.73344  21017014.3834                   21017013.6134
  -8869824.95347  -6901321.53243  22659169.7424                   22659167.4184
 -16553462.98847 -12883661.34443  23197676.4924                   23197675.9454
  -9487141.39547  -7377516.71942  24076413.7894                   24076418.7344
 -20291853.91848 -15798350.41843  21232349.6484                   21232348.0664
  -9979910.08247  -7773814.96443  23114089.0394                   23114086.3364
 11  9 24  1 49 30.0000000  0  9G29G02G30G15G18G05G25G26G21
 -26213841.23848 -20414096.01645  20260284.8594                   20260283.6724
 -18707626.89146 -14562353.32442  23925632.5474                   23925629.5354
  -5125404.61347  -3980237.45342  23958757.6414                   23958759.0354
 -19043303.19548 -14825319.78944  21004476.9924                   21004475.4494
  -8946232.85247  -6960860.13543  22644629.8834                   22644627.1954
 -16485065.25446 -12830364.36543  23210692.0314                   23210691.5274
  -9422397.85947  -7327067.13853  24088733.9614                   24088737.1414
 -20303496.00048 -15807422.11643  21230134.6334                   21230133.0234
 -10060600.78147  -7836690.71043  23098734.4144                   23098732.1884
 11  9 24  1 50  0.0000000  0  9G29G02G30G15G18G05G25G26G21
 -26235927.67648 -20431306.18545  20256081.7194                   20256080.4414
 -18658763.85946 -14524278.58253  23934930.8054                   23934931.3484
  -5073647.76647  -3939907.19555  23968606.7114                   23968604.8524
 -19108661.53548 -14876248.26744  20992039.5314                   20992038.1994
  -9022375.06247  -7020191.62243  22630140.3444                   22630138.8634
 -16416627.12947 -12777035.95243  23223715.4144                   23223714.7114
  -9357652.32047  -7276616.22453  24101054.5784                   24101057.0164
 -20314435.77048 -15815946.62044  21228052.8364                   21228051.6914
 -10141308.30147  -7899579.64143  23083375.6884                   23083372.6524
 11  9 24  1 50 30.0000000  0  9G29G02G30G15G18G05G25G26G21
 -26257457.72748 -20448082.82745  20251984.7194                   20251983.1764
 -18609737.22347 -14486075.76642  23944260.5314                   23944259.3794
  -5021720.39547  -3899444.70853  23978488.0394                   23978487.1024
 -19173488.90648 -14926763.07544  20979703.2974                   20979702.1414
  -9098249.37947  -7079314.43243  22615701.9454                   22615700.6884
 -16348147.97746 -12723675.64743  23236746.9224                   23236745.3714
  -9292905.24247  -7226163.91253  24113375.8524                   24113379.2154
 -20324670.81248 -15823921.90943  21226104.7584                   21226103.5594
 -10222029.94147  -7962479.63643  23068014.7584                   23068012.1764
 11  9 24  1 51  0.0000000  0  9G29G02G30G15G18G05G25G26G21
 -26278431.34848 -20464425.89845  20247993.5704                   20247991.7854
 -18560547.30146 -14447745.74843  23953620.1884                   23953618.4064
  -4969626.39546  -3858852.05143  23988400.9924                   23988401.5124
 -19237784.09048 -14976863.16844  20967468.5004                   20967466.8244
  -9173856.72347  -7138229.10143  22601314.2734                   22601312.8164
 -16279629.48446 -12670284.61943  23249785.2734                   23249785.1214
  -9228160.36746  -7175713.42243  24125695.6094                   24125699.2734
 -20334201.83248 -15831348.61643  21224291.3914                   21224289.7464
 -10302766.16447  -8025390.89143  23052650.7344                   23052649.2154
 11  9 24  1 51 30.0000000  0  9G29G02G30G15G18G05G25G26G21
 -26298847.57448 -20480334.61245  20244108.2734                   20244107.0314
 -18511193.70747 -14409288.67653  23963012.5864                   23963008.3484
  -4917368.46947  -3818131.38653  23998345.3364                   23998351.0704
 -19301544.96148 -15026546.91744  20955334.9924                   20955333.7344
  -9249195.93047  -7196934.79943  22586977.7664                   22586975.6094
 -16211073.70746 -12616864.43343  23262831.3834                   23262830.8244
  -9163420.02746  -7125266.52443  24138015.8054                   24138020.3014
 -20343028.49648 -15838226.52344  21222611.5554                   21222610.9184
 -10383515.52046  -8088312.35643  23037285.3914                   23037282.8984
 11  9 24  1 52  0.0000000  0  9G29G02G30G15G18G05G25G26G21
 -26318708.17248 -20495810.36845  20240329.2664                   20240327.6684
 -18461678.92647 -14370705.45743  23972434.6484                   23972430.8754
  -4864952.47347  -3777287.70843  24008320.2814                   24008323.3204
 -19364772.21548 -15075814.86944  20943303.1954                   20943301.2344
  -9324270.17247  -7255434.11543  22572691.6954                   22572689.2034
 -16142484.89146 -12563418.65843  23275882.9844                   23275882.0084
  -9098689.90247  -7074827.59453  24150333.4614                   24150337.1684
 -20351153.33648 -15844557.56943  21221065.3444                   21221063.4884
 -10464280.62147  -8151246.10243  23021916.4454                   23021914.8444
 11  9 24  1 52 30.0000000  0  9G29G02G30G15G18G05G25G26G21
 -26338010.51648 -20510851.15645  20236656.0164                   20236654.1684
 -18412000.98047 -14331995.51043  23981887.9534                   23981885.5084
  -4812379.586 6                  24018323.188
 -19427462.05148 -15124664.00444  20931373.8674                   20931371.6804
  -9399078.06647  -7313725.96843  22558455.7274                   22558453.4884
 -16073862.22747 -12509946.44343  23288941.8444                   23288939.9924
  -9033970.84447  -7024397.28643  24162649.5234                   24162653.2934
 -20358574.56248 -15850340.26943  21219653.3674                   21219652.2194
 -10545058.86347  -8214190.20543  23006544.5314                   23006541.9614
 11  9 24  1 53  0.0000000  0  9G29G02G30G15G18G05G25G26G21
 -26356755.87948 -20525457.90145  20233088.7814                   20233087.4414
 -18362161.11747 -14293159.34453  23991372.4064                   23991370.8284
  -4759654.828 6                  24028357.328
 -19489614.50448 -15173094.49844  20919546.2894                   20919544.9414
  -9473621.00447  -7371811.42443  22544271.1254                   22544268.7664
 -16005209.07847 -12456450.44043  23302005.7274                   23302004.2584
  -8969267.69947  -6973979.09042  24174961.7664                   24174965.2544
 -20365293.88748 -15855576.08544  21218374.5704                   21218373.3284
 -10625851.69947  -8277145.51343  22991170.1254                   22991167.0394
 11  9 24  1 53 30.0000000  0  9G29G02G30G15G18G05G25G26G21
 -26374940.69548 -20539627.85745  20229628.6644                   20229626.6604
 -18312156.56647 -14254194.77643  24000887.8364                   24000886.1914
  -4706778.664 6                  24038419.000
 -19551225.05548 -15221102.61444  20907822.4064                   20907821.0864
  -9547896.39847  -7429688.13243  22530136.9304                   22530133.9144
 -15936524.87547 -12402930.33043  23315076.1884                   23315075.1764
  -8904580.59047  -6923573.59443  24187272.4844                   24187274.7194
 -20371309.10548 -15860263.22543  21217230.1644                   21217227.8164
 -10706655.88747  -8340109.70743  22975793.4224                   22975790.7894
 11  9 24  1 54  0.0000000  0  9G29G02G30G15G18G05G25G26G21
 -26392566.93748 -20553362.57945  20226274.3754                   20226272.1954
 -18261989.71947 -14215103.66443  24010434.5314                   24010431.7344
  -4653756.64146  -3612723.74652  24048508.7034                   24048511.9104
 -19612294.37948 -15268689.07044  20896201.1884                   20896199.8244
  -9621906.43747  -7487358.27443  22516052.8204                   22516050.8554
 -15867813.21547 -12349388.72143  23328151.5164                   23328150.2344
  -8839914.66447  -6873184.60343  24199577.0084                   24199580.1804
 -20376622.59048 -15864403.59543  21216218.9304                   21216217.6054
 -10787473.28147  -8403084.29343  22960414.3204                   22960411.3484
 11  9 24  1 54 30.0000000  0  9G29G02G30G15G18G05G25G26G21
 -26409634.01648 -20566661.60745  20223026.3364                   20223024.9774
 -18211660.63747 -14175886.26853  24020011.7584                   24020008.9884
  -4600592.09047  -3571296.30553  24058626.1884                   24058626.5594
 -19672820.92248 -15315852.56344  20884683.4144                   20884681.5474
  -9695651.56247  -7544821.86943  22502019.5084                   22502016.5744
 -15799075.42247 -12295826.80043  23341232.4064                   23341229.9454
  -8775273.16847  -6822814.71142  24211878.1884                   24211882.2814
 -20381234.60248 -15867997.37243  21215340.9384                   21215340.2854
 -10868303.52047  -8466068.83343  22945033.0084                   22945031.0124
 11  9 24  1 55  0.0000000  0  9G29G02G30G15G18G05G25G26G21
 -26426140.19948 -20579523.52345  20219885.3594                   20219883.7114
 -18161167.93747 -14136541.10843  24029619.8364                   24029618.7194
  -4547286.93047  -3529759.90053  24068769.2974                   24068773.8404
 -19732801.46948 -15362590.60544  20873269.1414                   20873267.0434
  -9769130.55947  -7602078.16543  22488037.1804                   22488034.9804
 -15730311.99647 -12242244.87043  23354317.1334                   23354316.2734
  -8710657.57047  -6772464.82443  24224173.8284                   24224178.6524
 -20385144.23848 -15871043.77543  21214597.1954                   21214595.5204
 -10949145.01647  -8529062.17343  22929648.8834                   22929647.2034
 11  9 24  1 55 30.0000000  0  9G29G02G30G15G18G05G25G26G21
 -26442086.01648 -20591948.82745  20216850.9534                   20216849.6024
 -18110512.32847 -14097069.05043  24039259.1884                   24039256.8404
  -4493845.37546  -3488117.25052  24078938.4224                   24078939.8594
 -19792235.84048 -15408903.04244  20861959.2114                   20861958.0044
  -9842344.71947  -7659128.07043  22474104.5634                   22474102.7974
 -15661526.06247 -12188645.51543  23367406.8594                   23367405.9224
  -8646071.85947  -6722138.36143  24236464.4454                   24236469.0234
 -20388352.97348 -15873544.13343  21213986.4144                   21213985.3714
 -11029997.96147  -8592064.38543  22914262.7114                   22914261.9384
 11  9 24  1 56  0.0000000  0  9G29G02G30G15G18G05G25G26G21
 -26457470.11748 -20603936.43545  20213923.6644                   20213922.0744
 -18059693.02346 -14057469.86752  24048930.1484                   24048928.0984
  -4440269.783 6                  24089134.273
 -19851121.34848 -15454787.82544  20850753.8674                   20850751.8364
  -9915293.56247  -7715971.34643  22460222.8834                   22460220.6844
 -15592717.83647 -12135028.77743  23380500.0314                   23380498.9104
  -8581518.04747  -6671836.69952  24248747.9924                   24248755.0634
 -20390860.19548 -15875497.70643  21213509.3984                   21213508.1914
 -11110861.23047  -8655074.62943  22898875.0234                   22898872.4414
 11  9 24  1 56 30.0000000  0  9G29G02G30G15G18G05G25G26G21
 -26472292.72348 -20615486.49545  20211102.7114                   20211101.2624
 -18008710.53947 -14017743.17642  24058632.3444                   24058628.2734
  -4386563.94946  -3404521.18452  24099353.5394                   24099354.3984
 -19909456.99648 -15500244.12944  20839652.8054                   20839651.0664
  -9987977.42647  -7772607.97443  22446391.2194                   22446388.4064
 -15523889.09047 -12081395.99443  23393597.7274                   23393596.7074
  -8516999.56646  -6621562.68042  24261025.9924                   24261030.1684
 -20392666.93448 -15876905.52743  21213165.1564                   21213163.8984
 -11191735.00447  -8718093.09243  22883485.6484                   22883482.9614
 11  9 24  1 57  0.0000000  0  9G29G02G30G15G18G05G25G26G21
 -26486552.73848 -20626598.18745  20208389.3834                   20208387.8984
 -17957564.20347 -13977888.81243  24068365.6254                   24068361.4264
  -4332730.42246  -3362573.20153  24109597.8594                   24109602.6414
 -19967240.30548 -15545270.02444  20828656.8284                   20828655.3794
 -10060395.89547  -7829037.92243  22432610.6094                   22432608.9774
 -15455041.37947 -12027748.43543  23406699.2344                   23406698.4184
  -8452518.770 6                  24273296.313
 -20393772.83248 -15877767.24943  21212955.4614                   21212953.3404
 -11272617.93047  -8781118.56943  22868093.6724                   22868092.4844
 11  9 24  1 57 30.0000000  0  9G29G02G30G15G18G05G25G26G21
 -26500249.42648 -20637270.90845  20205783.0394                   20205781.4534
 -17906253.59047 -13937906.69653  24078129.1884                   24078126.1804
  -4278772.25047  -3320527.93653  24119866.3054                   24119864.4884
 -20024469.93048 -15589864.50344  20817766.5864                   20817764.7194
 -10132548.53947  -7885260.70543  22418880.7894                   22418878.6214
 -15386175.61747 -11974086.78243  23419804.0234                   23419802.4844
  -8388078.207 6                  24285558.438
 -20394178.32048 -15878083.18644  21212877.8524                   21212876.7384
 -11353509.28947  -8844150.78343  22852700.7664                   22852697.8204
 11  9 24  1 58  0.0000000  0  9G29G02G30G15G18G05G25G26G21
 -26513382.87148 -20647504.77145  20203283.5394                   20203281.8554
 -17854779.24646 -13897797.03443  24087922.9064                   24087921.9924
  -4224693.055 6                  24130156.883
 -20081144.72748 -15634026.65144  20806981.5234                   20806979.7774
 -10204436.95747  -7941277.53443  22405200.3914                   22405198.6334
 -15317294.07847 -11920412.91143  23432911.3674                   23432910.5314
  -8323681.242 6                  24297813.438
 -20393884.33248 -15877854.06843  21212933.7114                   21212932.0554
 -11434409.28147  -8907189.65243  22837306.1804                   22837303.7814
 11  9 24  1 58 30.0000000  0  9G29G02G30G15G18G05G25G26G21
 -26525950.82448 -20657297.96245  20200892.0474                   20200890.4774
 -17803138.91846 -13857557.51943  24097750.7344                   24097748.4024
  -4170493.90646  -3236155.09852  24140470.7344                   24140470.8874
 -20137260.96548 -15677753.51444  20796303.1484                   20796301.1414
 -10276058.75447  -7997086.50443  22391571.6954                   22391569.3714
 -15248395.80947 -11866725.88143  23446022.2894                   23446020.7504
  -8259328.645 6                  24310059.258
 -20392889.18448 -15877078.62943  21213123.1254                   21213121.4304
 -11515314.90647  -8970232.92843  22821910.3914                   22821907.5204
 11  9 24  1 59  0.0000000  0  9G29G02G30G15G18G05G25G26G21
 -26537953.94148 -20666651.03445  20198608.0234                   20198606.1804
 -17751334.03546 -13817189.70752  24107608.5634                   24107609.3834
  -4116179.41446  -3193832.04742  24150806.3524                   24150806.7304
 -20192818.44948 -15721045.02644  20785731.0704                   20785729.3014
 -10347415.04347  -8052689.02243  22377992.6414                   22377989.8404
 -15179483.95347 -11813028.46943  23459136.2584                   23459135.3634
  -8195024.67246  -6370668.41753  24322296.1724                   24322295.0234
 -20391194.85948 -15875758.32143  21213445.4924                   21213444.0824
 -11596227.18047  -9033281.43843  22806513.5234                   22806510.4964
 11  9 24  1 59 30.0000000  0  9G29G02G30G15G18G05G25G26G21
 -26549393.15248 -20675564.72045  20196431.1484                   20196429.8244
 -17699365.699 6                  24117498.453
  -4061753.91046  -3151422.64842  24161162.6804                   24161163.3984
 -20247816.93748 -15763900.94444  20775265.0394                   20775262.9104
 -10418507.98847  -8108085.92843  22364463.9774                   22364461.6764
 -15110560.85247 -11759321.89143  23472251.8754                   23472250.5474
  -8130773.230 6                  24334522.469
 -20388803.09848 -15873894.57843  21213900.5474                   21213899.4804
 -11677146.64847  -9096335.48443  22791114.6094                   22791111.6604
 11  9 24  2  0  0.0000000  0  9G29G02G30G15G18G05G25G26G21
 -26560265.90648 -20684036.98845  20194362.0864                   20194360.2464
 -17647231.35546 -13736070.90653  24127419.3054                   24127414.4734
  -4007217.94547  -3108926.92153  24171541.1884                   24171547.0474
 -20302252.34448 -15806318.10944  20764906.2344                   20764904.2384
 -10489335.06647  -8163275.82443  22350986.3674                   22350984.0084
 -15041625.57847 -11705606.28843  23485369.7584                   23485369.2774
  -8066574.65246  -6270578.55053  24346739.3754                   24346743.0554
 -20385711.98848 -15871485.96744  21214488.7974                   21214487.7624
 -11758070.12547  -9159392.63243  22775714.8594                   22775713.5594
 11  9 24  2  0 30.0000000  0  9G29G02G30G15G18G05G25G26G21
 -26570573.36748 -20692068.74245  20192400.4534                   20192397.9614
 -17594932.371 6                  24137371.352
  -3952576.41447  -3066349.29053  24181939.0474                   24181941.0474
 -20356125.22748 -15848296.93744  20754654.3054                   20754652.2384
 -10559898.11347  -8218259.95343  22337558.5314                   22337556.5824
 -14972681.78147 -11651883.77043  23498489.1564                   23498488.5474
  -8002433.42647  -6220598.36342  24358945.0164                   24358949.6604
 -20381924.00048 -15868534.28143  21215209.6884                   21215207.4734
 -11838998.59447  -9222453.69643  22760314.9844                   22760312.9844
 11  9 24  2  1  0.0000000  0  9G29G02G30G15G18G05G25G26G21
 -26580315.16448 -20699659.76945  20190546.6884                   20190545.0474
 -17542468.609 6                  24147354.734
  -3897832.27747  -3023691.34853  24192356.5704                   24192359.4614
 -20409433.75848 -15889836.00344  20744510.1954                   20744508.2304
 -10630196.43447  -8273037.81243  22324181.0634                   22324179.3404
 -14903730.00047 -11598155.13743  23511610.6174                   23511609.8524
  -7938352.18447  -6170665.05142  24371139.0314                   24371144.3404
 -20377439.38348 -15865039.65143  21216063.3204                   21216061.8834
 -11919931.50847  -9285518.28543  22744914.2814                   22744911.2814
 11  9 24  2  1 30.0000000  0  9G29G02G30G15G18G05G25G26G21
 -26589488.48448 -20706807.80445  20188801.3444                   20188799.4104
 -17489838.258 6                  24157370.297
  -3842986.73847  -2980954.81743  24202792.6804                   24202794.3204
 -20462174.35248 -15930932.54444  20734474.0864                   20734471.8554
 -10700229.28147  -8327608.75943  22310854.0164                   22310851.5704
 -14834769.72747 -11544419.87743  23524733.4224                   23524732.6484
  -7874331.64847  -6120778.91843  24383321.9774                   24383326.7734
 -20372257.00847 -15861001.47744  21217049.1094                   21217048.0124
 -12000866.17247  -9348584.14143  22729512.3054                   22729509.9344
 11  9 24  2  2  0.0000000  0  9G29G02G30G15G18G05G25G26G21
 -26598093.12148 -20713512.69645  20187163.6024                   20187162.2344
 -17437039.953 6                  24167416.859
  -3788041.71547  -2938140.44343  24213249.6564                   24213249.2384
 -20514344.80148 -15971584.81944  20724546.1254                   20724543.9304
 -10769995.38747  -8381971.86443  22297577.9694                   22297575.3954
 -14765801.53146 -11490678.44743  23537857.5234                   23537857.0004
  -7810373.53947  -6070941.59443  24395492.8834                   24395497.7774
 -20366376.30147 -15856419.06143  21218168.2344                   21218166.5904
 -12081800.65247  -9411649.94443  22714111.3594                   22714108.2774
 11  9 24  2  2 30.0000000  0  9G29G02G30G15G18G05G25G26G21
 -26606130.10948 -20719775.28945  20185634.7274                   20185632.5514
 -17384075.48046 -13531014.31553  24177496.6334                   24177488.9844
  -3733002.28947  -2895252.55443  24223722.9224                   24223723.4264
 -20565945.56648 -16011793.18144  20714726.9224                   20714724.8524
 -10839496.86347  -8436128.84643  22284352.3054                   22284349.3164
 -14696828.28147 -11436933.08743  23550982.6094                   23550982.2424
  -7746482.35247  -6021156.23743  24407651.0554                   24407654.9614
 -20359800.38747 -15851294.88343  21219419.7194                   21219418.2774
 -12162736.52347  -9474716.76843  22698709.3054                   22698706.6094
 11  9 24  2  3  0.0000000  0  9G29G02G30G15G18G05G25G26G21
 -26613597.20748 -20725593.77245  20184213.4774                   20184211.8954
 -17330942.855 6                  24187605.383
  -3677869.50446  -2852291.95653  24234213.8834                   24234216.1524
 -20616973.24247 -16051554.93544  20705016.6174                   20705014.9924
 -10908732.03147  -8490078.29043  22271176.8204                   22271175.3364
 -14627849.62546 -11383183.49343  23564109.0234                   23564108.0274
  -7682658.90647  -5971423.70742  24419796.3834                   24419800.8554
 -20352527.51647 -15845627.78544  21220803.8524                   21220801.7304
 -12243670.73847  -9537782.26243  22683308.2114                   22683305.3244
 11  9 24  2  3 30.0000000  0  9G29G02G30G15G18G05G25G26G21
 -26620495.52048 -20730969.06745  20182900.6334                   20182899.1994
 -17277643.286 6                  24197750.242
  -3622647.707 6                  24244722.063
 -20667427.71947 -16090870.12044  20695415.4304                   20695413.4574
 -10977702.09447  -8543821.04843  22258052.8134                   22258050.2424
 -14558868.19146 -11329431.79043  23577235.4924                   23577235.5514
  -7618907.18747  -5921747.19043  24431927.7584                   24431932.3284
 -20344559.96147 -15839419.25844  21222319.9304                   21222318.3634
 -12324603.83247  -9600847.04543  22667907.2424                   22667904.9574
 11  9 24  2  4  0.0000000  0  9G29G02G30G15G18G05G25G26G21
 -26626823.77348 -20735900.17145  20181696.4614                   20181694.3984
 -17224175.46147 -13406418.49153  24207924.5084                   24207919.9574
  -3567338.992 6                  24255247.602
 -20717306.86747 -16129736.94144  20685923.4924                   20685921.4804
 -11046406.36747  -8597356.81643  22244978.6484                   22244975.2854
 -14489884.35946 -11275678.10553  23590362.8364                   23590361.2544
  -7555228.77347  -5872127.59743  24444045.3284                   24444048.7234
 -20335897.55547 -15832669.33043  21223967.5944                   21223966.7034
 -12405534.16447  -9663909.55843  22652506.2814                   22652503.2704
 11  9 24  2  4 30.0000000  0  9G29G02G30G15G18G05G25G26G21
 -26632582.59448 -20740387.53145  20180600.7504                   20180598.6334
 -17170540.11346 -13364624.42652  24218130.3834                   24218125.7464
  -3511947.13746  -2723001.86752  24265788.3594                   24265788.6374
 -20766609.77047 -16168154.73844  20676541.6024                   20676539.4454
 -11114845.88347  -8650686.25243  22231954.5474                   22231952.3134
 -14420899.63746 -11221923.77043  23603489.8284                   23603489.8094
  -7491627.09447  -5822567.83943  24456148.5474                   24456151.4734
 -20326541.55547 -15825378.96143  21225749.0004                   21225746.4804
 -12486461.48847  -9726969.74343  22637106.2664                   22637103.1294
 11  9 24  2  5  0.0000000  0  9G29G02G30G15G18G05G25G26G21
 -26637772.08648 -20744431.29845  20179613.1254                   20179611.5274
 -17116737.578 6                  24228369.289
  -3456475.42646  -2679777.08753  24276343.4774                   24276345.0634
 -20815335.59847 -16206122.86544  20667269.5004                   20667267.1954
 -11183020.71947  -8703809.41143  22218981.9144                   22218979.5514
 -14351915.50846 -11168169.93443  23616617.6954                   23616615.2934
  -7428105.09046  -5773070.27752  24468236.5704                   24468243.3714
 -20316493.35947 -15817549.11743  21227660.6334                   21227658.7074
 -12567385.92647  -9790027.74043  22621707.2974                   22621705.3954
 11  9 24  2  5 30.0000000  0  9G29G02G30G15G18G05G25G26G21
 -26642390.80548 -20748030.29545  20178734.4454                   20178731.9344
 -17062766.65647 -13280644.84153  24238639.8134                   24238635.9344
  -3400925.645 6                  24286914.617
 -20863481.75047 -16243639.35844  20658107.4144                   20658105.2034
 -11250930.18747  -8756725.84443  22206058.7504                   22206056.9184
 -14282932.34046 -11114416.93043  23629744.3444                   23629743.1844
  -7364664.121 5                  24480308.523
 -20305752.62147 -15809179.66243  21229704.3754                   21229702.9734
 -12648305.21147  -9853081.57443  22606308.4924                   22606305.7624
 11  9 24  2  6  0.0000000  0  8G29G30G15G18G05G25G26G21
 -26646440.23048 -20751185.68445  20177963.6174                   20177961.7854
  -3345302.324 6                  24297499.047
 -20911048.50448 -16280704.29844  20649055.8364                   20649053.8094
 -11318575.87547  -8809436.67843  22193185.9844                   22193183.9534
 -14213952.98047 -11060666.81543  23642870.9844                   23642868.5084
  -7301308.227 5                  24492363.984
 -20294321.61747 -15800272.42143  21231879.7974                   21231878.5594
 -12729219.68047  -9916131.84143  22590911.0004                   22590908.2274
 11  9 24  2  6 30.0000000  0  8G29G30G15G18G05G25G26G21
 -26649916.94948 -20753894.79945  20177301.8834                   20177300.4224
  -3289605.152 6                  24308097.953
 -20958031.34448 -16317314.26644  20640115.3594                   20640113.4654
 -11385954.64547  -8861939.57343  22180364.3134                   22180362.2234
 -14144974.98847 -11006917.67443  23655997.0234                   23655995.8324
  -7238036.855 5                  24504402.836
 -20282197.98047 -15790825.40243  21234186.6484                   21234184.7074
 -12810125.39147  -9979175.09343  22575515.1094                   22575512.1724
 11  9 24  2  7  0.0000000  0  8G29G30G15G18G05G25G26G21
 -26652816.37148 -20756154.08345  20176750.3284                   20176748.8874
  -3233832.719 5                  24318711.875
 -21004424.59447 -16353464.83544  20631287.1414                   20631284.9024
 -11453062.32847  -8914231.24243  22167594.2194                   22167591.7704
 -14075995.33647 -10953167.22143  23669123.3364                   23669122.2274
  -7174848.047 6                  24516429.977
 -20269378.33247 -15780836.00144  21236626.5554                   21236625.0944
 -12891017.03547 -10042207.45643  22560122.0554                   22560119.2464
 11  9 24  2  7 30.0000000  0  8G29G30G15G18G05G25G26G21
 -26655136.72348 -20757962.13345  20176308.8594                   20176306.9654
  -3177986.297 5                  24329337.875
 -21050225.44948 -16389153.76244  20622571.0474                   20622569.9184
 -11519897.82447  -8966310.83743  22154875.9144                   22154873.6564
 -14007013.62947 -10899415.08643  23682250.3364                   23682248.1134
  -7111742.898 6                  24528438.164
 -20255862.03947 -15770303.85743  21239198.5944                   21239195.9064
 -12971892.28547 -10105227.20943  22544731.7664                   22544728.7274
 11  9 24  2  8  0.0000000  0  8G29G30G15G18G05G25G26G21
 -26656879.71148 -20759320.30945  20175977.0634                   20175974.9804
  -3122070.672 6                  24339978.758
 -21095434.04348 -16424381.21444  20613968.3834                   20613965.8834
 -11586462.71547  -9018179.49443  22142209.0164                   22142206.3094
 -13938032.87947 -10845664.09043  23695377.1724                   23695374.4384
  -7048725.48047  -5477449.77055  24540430.4064                   24540420.7464
 -20241651.80147 -15759230.84143  21241902.5314                   21241901.1804
 -13052751.84047 -10168234.47843  22529344.5704                   22529342.5594
 11  9 24  2  8 30.0000000  0  8G29G30G15G18G05G25G26G21
 -26658046.75448 -20760229.68545  20175754.8754                   20175753.4264
  -3066089.988 6                  24350631.742
 -21140050.86348 -16459147.52744  20605477.8674                   20605476.3014
 -11652758.35947  -9069838.35043  22129593.2974                   22129590.3794
 -13869055.14547 -10791915.04543  23708502.9614                   23708501.8714
  -6985799.72747  -5428420.05353  24552404.5634                   24552410.3714
 -20226749.77347 -15747618.84943  21244738.5554                   21244737.0554
 -13133596.20747 -10231230.06743  22513960.6484                   22513958.2704
 11  9 24  2  9  0.0000000  0  8G29G30G15G18G05G25G26G21
 -26658640.37148 -20760692.23245  20175641.7894                   20175640.2664
  -3010050.031 6                  24361296.133
 -21184077.60948 -16493454.08544  20597100.0944                   20597098.4224
 -11718787.96947  -9121289.93943  22117028.4064                   22117026.0234
 -13800084.12547 -10738171.56143  23721626.8284                   23721626.1994
  -6922970.83247  -5379462.60743  24564360.5704                   24564364.8554
 -20211160.05948 -15735471.01443  21247705.2664                   21247703.0394
 -13214426.93047 -10294215.07043  22498578.8134                   22498576.3594
 11  9 24  2  9 30.0000000  0  8G29G30G15G18G05G25G26G21
 -26658660.72748 -20760708.09445  20175637.6954                   20175636.1684
  -2953953.781 6                  24371970.734
 -21227513.06648 -16527299.81044  20588833.9144                   20588831.9264
 -11784551.90647  -9172534.55043  22104513.9304                   22104510.4224
 -13731121.50447 -10684434.40443  23734750.5004                   23734748.9264
  -6860241.47747  -5330582.79943  24576297.8754                   24576302.5474
 -20194883.78148 -15722788.25643  21250802.1254                   21250800.1604
 -13295243.56247 -10357188.90843  22483200.0554                   22483197.4694
 11  9 24  2 10  0.0000000  0  8G29G30G15G18G05G25G26G21
 -26658108.79348 -20760277.99145  20175742.9534                   20175741.4264
  -2897805.434 6                  24382655.523
 -21270357.34048 -16560684.96144  20580681.5234                   20580679.9774
 -11850051.52047  -9223573.08943  22092049.2664                   22092046.4184
 -13662169.37146 -10630705.40443  23747872.1414                   23747869.5784
  -6797615.32047  -5281783.18943  24588215.0164                   24588219.6954
 -20177923.20748 -15709572.20643  21254029.7974                   21254028.3594
 -13376046.27748 -10420152.11743  22467823.9614                   22467820.8014
 11  9 24  2 10 30.0000000  0  7G29G30G15G18G05G26G21
 -26656985.60948 -20759402.79245  20175956.7344                   20175955.3524
  -2841608.477 6                  24393349.305
 -21312610.02348 -16593609.09944  20572640.7194                   20572638.8204
 -11915287.61348  -9274406.34843  22079635.1094                   22079631.8164
 -13593229.352 6                  23760990.727
 -20160280.03948 -15695824.23244  21257387.2114                   21257385.6054
 -13456834.54747 -10483103.95543  22452449.9694                   22452446.7624
 11  9 24  2 11  0.0000000  0  7G29G30G15G18G05G26G21
 -26655290.18448 -20758081.67645  20176279.5944                   20176277.6454
  -2785364.91046  -2156840.21953  24404052.2584                   24404055.9884
 -21354268.80948 -16626070.47044  20564713.3914                   20564711.6524
 -11980259.43047  -9325033.75143  22067271.7734                   22067268.2304
 -13524301.60947 -10523276.05952  23774107.0704                   23774107.1374
 -20141954.65648 -15681544.68143  21260874.0554                   21260872.0984
 -13537606.24647 -10546042.83643  22437079.5394                   22437077.1024
 11  9 24  2 11 30.0000000  0  7G29G30G15G18G05G26G21
 -26653017.03948 -20756310.39145  20176712.1884                   20176710.5864
  -2729071.93746  -2112975.47143  24414765.1644                   24414766.7154
 -21395327.22348 -16658064.02544  20556900.0474                   20556898.4774
 -12044961.45747  -9375450.80243  22054959.0554                   22054956.7894
 -13455381.58247 -10469572.03143  23787222.1644                   23787220.3484
 -20122942.50448 -15666730.05044  21264492.3674                   21264490.7304
 -13618355.30548 -10608964.10843  22421714.2344                   22421710.3524
 11  9 24  2 12  0.0000000  0  7G29G30G15G18G05G26G21
 -26650165.14148 -20754088.10545  20177254.8284                   20177253.3714
  -2672731.67247  -2069074.01043  24425486.0234                   24425486.0394
 -21435783.53148 -16689588.37345  20549201.7274                   20549199.6174
 -12109393.23447  -9425657.32343  22042697.8834                   22042695.1294
 -13386469.66046 -10415874.46243  23800335.6174                   23800332.9184
 -20103243.71548 -15651380.24844  21268240.1804                   21268239.8984
 -13699079.85247 -10671866.37943  22406352.4844                   22406349.4534
 11  9 24  2 12 30.0000000  0  7G29G30G15G18G05G26G21
 -26646733.82048 -20751414.35545  20177907.4844                   20177906.2344
  -2616346.00047  -2025137.06953  24436215.5864                   24436213.0434
 -21475635.68748 -16720641.97944  20541617.9694                   20541615.7154
 -12173553.93747  -9475652.66143  22030488.6644                   22030486.1724
 -13317565.64846 -10362183.20043  23813447.3674                   23813444.8484
 -20082858.88348 -15635495.96543  21272119.5004                   21272117.7304
 -13779777.64547 -10734747.63443  22390996.1094                   22390993.2154
 11  9 24  2 13  0.0000000  0  7G29G30G15G18G05G26G21
 -26642728.02348 -20748292.96145  20178669.9774                   20178668.5944
  -2559922.93446  -1981171.06443  24446952.3284                   24446952.5234
 -21514887.67648 -16751227.92844  20534148.7344                   20534147.1374
 -12237448.91447  -9525440.87943  22018329.7424                   22018327.0514
 -13248675.89146 -10308502.64653  23826556.7814                   23826555.0314
 -20061794.33648 -15619082.06043  21276128.2814                   21276125.9454
 -13860453.16848 -10797611.62943  22375644.1094                   22375641.4494
 11  9 24  2 13 30.0000000  0  7G29G30G15G18G05G26G21
 -26638151.03948 -20744726.48045  20179540.7034                   20179539.7344
  -2503467.64146  -1937180.07543  24457696.0554                   24457695.6884
 -21553541.12548 -16781347.45944  20526792.7664                   20526791.4734
 -12301081.06648  -9575024.28043  22006220.8284                   22006218.4344
 -13179803.49646 -10254836.07043  23839662.9384                   23839661.4184
 -20040053.87548 -15602141.40444  21280265.3364                   21280263.4494
 -13941107.60947 -10860459.22943  22360295.9844                   22360293.2934
 11  9 24  2 14  0.0000000  0  7G29G30G15G18G05G26G21
 -26633004.79748 -20740716.39145  20180520.2274                   20180518.5084
  -2446985.207 6                  24468443.828
 -21591597.02048 -16811001.35444  20519551.3914                   20519549.4654
 -12364452.85548  -9624404.85343  21994161.6564                   21994158.2704
 -13110951.74247 -10201185.39543  23852764.7194                   23852763.5634
 -20017640.82448 -15584676.70043  21284530.5314                   21284528.6914
 -14021741.68447 -10923290.87943  22344951.8754                   22344948.5474
 11  9 24  2 14 30.0000000  0  7G29G30G15G18G05G26G21
 -26627288.16448 -20736261.86945  20181607.8674                   20181606.0864
  -2390477.12946  -1849135.17253  24479197.1724                   24479198.3594
 -21629053.29748 -16840188.03644  20512423.6094                   20512422.0824
 -12427562.35947  -9673581.00943  21982152.2504                   21982149.6884
 -13042120.33247 -10147550.55543  23865862.5944                   23865861.5044
 -19994555.26248 -15566687.93043  21288923.3524                   21288922.0704
 -14102353.04347 -10986104.96843  22329611.7034                   22329609.0084
 11  9 24  2 15  0.0000000  0  7G29G30G15G18G05G26G21
 -26621001.12948 -20731362.87145  20182804.3594                   20182803.0664
  -2333946.098 6                  24489954.063
 -21665908.93448 -16868906.68744  20505410.3674                   20505408.5164
 -12490410.53548  -9722553.57543  21970192.7894                   21970190.0394
 -12973309.85247 -10093931.79143  23878957.7344                   23878956.6374
 -19970798.35547 -15548176.03544  21293444.1024                   21293442.8834
 -14182940.39847 -11048900.24943  22314276.4614                   22314273.8834
 11  9 24  2 15 30.0000000  0  7G29G30G15G18G05G26G21
 -26614147.54748 -20726022.45145  20184108.6724                   20184106.7734
  -2277398.516 6                  24500714.664
 -21702166.73448 -16897159.48445  20498510.4924                   20498508.2154
 -12553001.04348  -9771325.31843  21958281.9774                   21958279.4964
 -12904525.00446 -10040333.43043  23892046.7504                   23892045.6054
 -19946375.28947 -15529145.04643  21298091.3594                   21298089.9454
 -14263506.97347 -11111679.22843  22298945.2034                   22298942.2974
 11  9 24  2 16  0.0000000  0  7G29G30G15G18G05G26G21
 -25031308.60548 -19492641.46745  20485312.8754                   20485311.8984
   -645419.594 5                  24811270.109
 -20162405.10948 -15697345.23045  20791517.5314                   20791515.5474
 -11039912.63748  -8592295.35143  22246213.1954                   22246210.9844
 -11260349.44546  -8759157.53443  24204923.2194                   24204922.0864
 -18345868.70747 -14281997.05843  21602657.9224                   21602656.1484
 -12768629.03947  -9946839.28143  22583411.0394                   22583407.9964
 11  9 24  2 16 30.0000000  0  7G29G30G15G18G05G26G21
 -25023324.33648 -19486419.93345  20486832.0784                   20486830.5704
   -588848.793 5                  24822035.422
 -20197465.80948 -15724665.22144  20784845.7274                   20784843.3164
 -11101990.05547  -8640667.29443  22234400.2034                   22234398.1334
 -11191620.02046  -8705602.12453  24218001.4064                   24217997.4304
 -18320118.86347 -14261932.28443  21607557.9144                   21607557.2424
 -12849151.28547 -10009583.88043  22568087.9774                   22568084.9224
 11  9 24  2 17  0.0000000  0  7G29G30G15G18G05G26G21
 -25014773.77048 -19479757.15045  20488459.2584                   20488457.7384
   -532269.301 5                  24832802.063
 -20231925.55548 -15751516.92344  20778288.3674                   20778285.7384
 -11163809.88347  -8688838.56143  22222636.0944                   22222634.0904
 -11122918.35246  -8652068.49043  24231075.4144                   24231072.7344
 -18293706.68447 -14241351.31643  21612583.9454                   21612582.9184
 -12929648.55147 -10072309.01243  22552769.9224                   22552766.5354
 11  9 24  2 17 30.0000000  0  7G29G30G15G18G05G26G21
 -25005657.59448 -19472653.61945  20490193.8754                   20490192.5164
   -475684.422 5                  24843569.031
 -20265784.20748 -15777900.27344  20771844.8914                   20771842.5044
 -11225372.87147  -8736809.62743  22210920.9534                   22210919.2074
 -11054245.98846  -8598557.63743  24244143.1804                   24244142.1094
 -18266633.96547 -14220255.69243  21617735.8054                   21617734.2114
 -13010119.98847 -10135013.92743  22537456.7194                   22537453.2854
 11  9 24  2 18  0.0000000  0  7G29G30G15G18G05G26G21
 -24995977.96948 -19465111.07645  20492036.1414                   20492034.3014
   -419098.430 5                  24854336.836
 -20299042.25448 -15803815.58945  20765516.1564                   20765514.5274
 -11286681.00447  -8784582.18543  22199254.6174                   22199251.8014
 -10985604.871 6                  24257204.742
 -18238903.97347 -14198647.88843  21623012.4614                   21623011.3794
 -13090566.09047 -10197699.09143  22522148.1724                   22522145.5474
 11  9 24  2 18 30.0000000  0  7G29G30G15G18G05G26G21
 -24985734.76648 -19457129.34345  20493985.2814                   20493983.5274
   -362513.402 5                  24865105.789
 -20331698.39548 -15829261.90945  20759301.8524                   20759299.6414
 -11347733.80147  -8832155.75043  22187636.8674                   22187633.9414
 -10916995.59046  -8491609.27052  24270261.2974                   24270260.5204
 -18210517.34047 -14176528.36143  21628414.6414                   21628412.6914
 -13170985.03547 -10260363.21143  22506844.5704                   22506841.3134
 11  9 24  2 19  0.0000000  0  7G29G30G15G18G05G26G21
 -24974929.23848 -19448709.44445  20496041.4774                   20496039.3284
   -305933.328 6                  24875872.336
 -20363753.21548 -15854239.65944  20753202.0234                   20753199.9064
 -11408532.86347  -8879531.55643  22176067.0944                   22176063.7584
 -10848419.93746  -8438173.51443  24283310.9614                   24283308.6094
 -18181477.09447 -14153899.62943  21633940.6484                   21633939.0314
 -13251376.70347 -10323006.08943  22491546.8754                   22491543.1334
 11  9 24  2 19 30.0000000  0  7G29G30G15G18G05G26G21
 -24963561.07847 -19439851.16345  20498204.3444                   20498203.4574
   -249360.090 6                  24886637.813
 -20395205.15247 -15878747.65744  20747216.5944                   20747214.6764
 -11469077.55147  -8926709.24443  22164545.4384                   22164542.7344
 -10779878.17246  -8384764.46343  24296353.2424                   24296352.5044
 -18151783.87947 -14130762.03843  21639591.0314                   21639588.9614
 -13331739.19547 -10385626.06643  22476254.2274                   22476252.3244
 11  9 24  2 20  0.0000000  0  7G29G30G15G18G05G26G21
 -24951632.00448 -19430555.75045  20500474.6954                   20500473.1764
   -192797.641 6                  24897402.695
 -20426054.54748 -15902786.10544  20741346.2814                   20741343.8674
 -11529369.52747  -8973689.98443  22153072.4844                   22153070.7974
 -10711372.24246  -8331383.18643  24309389.6094                   24309387.8444
 -18121440.80947 -14107118.05543  21645364.8444                   21645362.7154
 -13412072.63347 -10448223.50843  22460967.7114                   22460964.9264
 11  9 24  2 20 30.0000000  0  7G29G30G15G18G05G26G21
 -24939144.03148 -19420824.86445  20502850.8284                   20502849.8324
   -136250.379 6                  24908162.070
 -20456302.74648 -15926356.11045  20735590.2584                   20735587.7974
 -11589410.30547  -9020474.92943  22141646.4844                   22141643.4184
 -10642904.35246  -8278031.47543  24322419.1254                   24322416.7624
 -18090450.55147 -14082969.86043  21651262.2424                   21651260.4144
 -13492377.06247 -10510798.35443  22445685.8284                   22445682.4844
 11  9 24  2 21  0.0000000  0  7G29G30G15G18G05G26G21
 -24926096.25048 -19410657.78245  20505334.2584                   20505332.7934
    -79719.566 6                  24918919.984
 -20485947.37548 -15949455.77244  20729949.3444                   20729947.3014
 -11649199.28947  -9067063.68643  22130269.5314                   22130266.5354
 -10574474.30146  -8224709.40652  24335441.2344                   24335439.3244
 -18058814.02047 -14058317.96243  21657282.4924                   21657281.1334
 -13572650.21148 -10573348.78143  22430410.4454                   22430407.3204
 11  9 24  2 21 30.0000000  0  6G29G15G18G05G26G21
 -24912488.15248 -19400054.08445  20507923.6954                   20507922.3794
 -20514987.47748 -15972084.41544  20724422.8984                   20724420.2344
 -11708735.60947  -9113455.65443  22118939.9614                   22118937.3754
 -10506081.87546  -8171416.60543  24348455.3524                   24348454.5594
 -18026531.82847 -14033162.98343  21663425.1334                   21663423.7624
 -13652889.93747 -10635873.20943  22415141.1644                   22415138.8874
 11  9 24  2 22  0.0000000  0  6G29G15G18G05G26G21
 -24898319.87148 -19389013.85445  20510619.5704                   20510618.6334
 -20543421.71548 -15994240.92845  20719012.0234                   20719010.2974
 -11768019.26648  -9159650.67543  22107658.8914                   22107657.1484
 -10437727.15247  -8118153.29742  24361463.1954                   24361462.7704
 -17993605.23847 -14007505.88343  21669690.9144                   21669688.7974
 -13733094.69147 -10698370.43043  22399878.7974                   22399875.5514
 11  9 24  2 22 30.0000000  0  6G29G15G18G05G26G21
 -24883587.43448 -19377534.03745  20513423.1724                   20513421.5664
 -20571245.18748 -16015921.53445  20713717.7814                   20713715.7814
 -11827046.01647  -9205645.46943  22096426.5554                   22096423.5394
 -10369406.652 6                  24374463.789
 -17960031.50447 -13981344.56443  21676079.9384                   21676078.6564
 -13813257.84047 -10760835.12643  22384624.2344                   22384620.6994
 11  9 24  2 23  0.0000000  0  6G29G15G18G05G26G21
 -24868288.30148 -19365612.61045  20516334.5554                   20516332.6134
 -20598454.21948 -16037123.35444  20708539.8524                   20708537.7544
 -11885813.01248  -9251437.92543  22085243.2734                   22085239.9454
 -10301118.30146  -8011704.68753  24387458.5634                   24387458.6844
 -17925809.42247 -13954678.00143  21682592.3524                   21682591.1994
 -13893375.70747 -10823264.60843  22369378.1644                   22369374.0394
 11  9 24  2 23 30.0000000  0  6G29G15G18G05G26G21
 -24852424.10548 -19353250.89545  20519353.4144                   20519352.3834
 -20625049.21948 -16057846.70845  20703478.8754                   20703477.2344
 -11944321.48048  -9297028.81143  22074109.0944                   22074106.2544
 -10232863.055 6                  24400446.547
 -17890941.66847 -13927508.26643  21689227.9304                   21689225.6334
 -13973447.82448 -10885658.41743  22354140.7894                   22354138.0434
 11  9 24  2 24  0.0000000  0  6G29G15G18G05G26G21
 -24836000.60248 -19340453.38045  20522478.2974                   20522476.3914
 -20651035.27348 -16078095.54045  20698533.9924                   20698531.7344
 -12002576.90248  -9342422.66443  22063023.5944                   22063021.3054
 -10164647.30946  -7905363.87552  24413428.3524                   24413424.9454
 -17855435.35247 -13899841.02943  21695983.9774                   21695982.7194
 -14053478.69148 -10948020.08144  22338911.5944                   22338907.4454
 11  9 24  2 24 30.0000000  0  6G29G15G18G05G26G21
 -24819019.52048 -19327221.37245  20525710.2274                   20525709.0704
 -20676412.74248 -16097870.19144  20693704.6174                   20693702.2854
 -12060580.85248  -9387620.48544  22051986.0004                   22051982.5824
 -10096472.69546  -7852240.94753  24426401.0944                   24426397.2934
 -17819293.46547 -13871678.57143  21702861.6564                   21702860.3324
 -14133467.42248 -11010348.93743  22323689.9534                   22323686.6524
 11  9 24  2 25  0.0000000  0  6G29G15G18G05G26G21
 -24801481.63748 -19313555.49645  20529047.4454                   20529045.9224
 -20701181.09848 -16117170.18345  20688991.1094                   20688989.5984
 -12118333.75448  -9432622.74643  22040995.9064                   22040992.5634
 -10028340.01646  -7799150.45643  24439366.0944                   24439365.5354
 -17782517.82047 -13843022.13443  21709859.6804                   21709858.5904
 -14213412.75847 -11072643.94443  22308476.9534                   22308474.4184
 11  9 24  2 25 30.0000000  0  6G29G15G18G05G26G21
 -24783388.68748 -19299457.08945  20532490.3984                   20532489.0984
 -20725341.50848 -16135996.45045  20684393.9454                   20684391.8054
 -12175837.39548  -9477430.68643  22030053.4384                   22030050.0354
  -9960250.91846  -7746094.10943  24452323.8524                   24452322.8634
 -17745111.55547 -13813874.41143  21716978.0554                   21716976.4774
 -14293314.90247 -11134905.31543  22293271.8524                   22293268.6914
 11  9 24  2 26  0.0000000  0  6G29G15G18G05G26G21
 -24764742.32048 -19284927.47245  20536038.7894                   20536036.7704
 -20748894.39547 -16154349.31545  20679911.8754                   20679910.4024
 -12233092.75448  -9522045.20543  22019157.9924                   22019154.8054
  -9892207.14546  -7693072.98643  24465272.3444                   24465272.0354
 -17707077.42647 -13784237.43943  21724215.6414                   21724213.9924
 -14373173.06247 -11197132.37843  22278075.7664                   22278072.3914
 11  9 24  2 26 30.0000000  0  6G29G15G18G05G26G21
 -24745543.75448 -19269967.53245  20539691.8984                   20539689.6684
 -20771840.07448 -16172229.04145  20675545.1884                   20675542.9844
 -12290100.75448  -9566467.03443  22008309.4534                   22008306.5904
  -9824210.22346  -7640088.31843  24478211.1564                   24478210.9924
 -17668417.81247 -13754113.06243  21731572.5084                   21731570.6134
 -14452986.11747 -11259324.31744  22262887.7344                   22262884.4414
 11  9 24  2 27  0.0000000  0  6G29G15G18G05G26G21
 -24725792.42248 -19254576.89145  20543450.5784                   20543448.7584
 -20794176.69547 -16189634.19245  20671294.4304                   20671292.9304
 -12346860.21548  -9610695.12643  21997508.6484                   21997506.0904
  -9756259.117 6                  24491142.539
 -17629133.57447 -13723501.90543  21739047.8984                   21739046.5084
 -14532751.85247 -11321479.41044  22247708.8594                   22247705.6724
 11  9 24  2 27 30.0000000  0  6G29G15G18G05G26G21
 -24705490.55148 -19238757.27745  20547314.1254                   20547312.1644
 -20815905.82848 -16206565.96545  20667160.0784                   20667157.8054
 -12403373.22348  -9654731.15043  21986754.5554                   21986751.1884
  -9688356.32446  -7534228.09953  24504063.6884                   24504062.3094
 -17589228.26247 -13692406.90343  21746641.4534                   21746640.4184
 -14612470.75447 -11383598.00043  22232538.4924                   22232535.4264
 11  9 24  2 28  0.0000000  0  6G29G15G18G05G26G21
 -24684638.47348 -19222508.86545  20551281.9924                   20551280.6414
 -20837026.54748 -16223023.63945  20663140.8674                   20663138.5904
 -12459639.67648  -9698575.08443  21976047.4384                   21976045.2774
  -9620501.73446  -7481354.44142  24516975.5554                   24516973.8054
 -17548703.19947 -13660828.88243  21754353.0554                   21754351.9264
 -14692140.64847 -11445678.40443  22217377.9774                   22217374.5204
 11  9 24  2 28 30.0000000  0  6G29G15G18G05G26G21
 -24663237.61748 -19205832.89345  20555354.2584                   20555352.5394
 -20857539.03147 -16239007.36245  20659237.2504                   20659235.5634
 -12515660.45748  -9742227.60843  21965386.7974                   21965384.3834
  -9552696.457 6                  24529878.563
 -17507561.28147 -13628770.33043  21762182.2734                   21762180.3714
 -14771760.24247 -11507719.55643  22202226.9454                   22202223.2234
 11  9 24  2 29  0.0000000  0  6G29G15G18G05G26G21
 -24641289.52748 -19188730.45945  20559531.0084                   20559528.9844
 -20877444.03948 -16254517.76745  20655449.5474                   20655447.3834
 -12571436.73048  -9785689.62243  21954772.9304                   21954770.2504
  -9484941.945 6                  24542771.688
 -17465805.11347 -13596233.00643  21770127.9924                   21770126.0204
 -14851329.29347 -11569721.39243  22187084.9454                   22187081.5474
 11  9 24  2 29 30.0000000  0  6G29G15G18G05G26G21
 -24618795.20748 -19171202.41545  20563811.5234                   20563809.9734
 -20896741.50448 -16269554.70844  20651777.3594                   20651774.8634
 -12626969.00848  -9828961.47843  21944205.4694                   21944203.7034
  -9417239.09046  -7322967.84452  24555655.3914                   24555653.4344
 -17423437.00047 -13563218.88943  21778190.5394                   21778189.2664
 -14930846.53947 -11631682.84843  22171953.6414                   22171950.3634
 11  9 24  2 30  0.0000000  0  6G29G15G18G05G26G21
 -24595755.61348 -19153249.49645  20568195.7894                   20568194.3134
 -20915431.62948 -16284118.39144  20648220.8524                   20648218.5234
 -12682257.65648  -9872043.52343  21933684.2974                   21933681.1214
  -9349588.535 6                  24568527.930
 -17380459.28147 -13529729.73943  21786368.9534                   21786367.7894
 -15010310.79347 -11693603.01343  22156832.0234                   22156828.6254
 11  9 24  2 30 30.0000000  0  7G29G22G15G18G05G26G21
 -24572173.76648 -19134874.04545  20572683.3444                   20572681.7774
   6168629.55916                  24731045.930
 -20933516.05548 -16298210.17345  20644779.4844                   20644777.4104
 -12737305.65648  -9914938.02143  21923209.3134                   21923206.7974
  -9281992.895 6                  24581391.422
 -17336876.05147 -13495768.75343  21794662.6804                   21794660.8674
 -15089722.64147 -11755482.35943  22141720.5634                   22141716.8444
 11  9 24  2 31  0.0000000  0  7G29G22G15G18G05G26G21
 -24548056.74648 -19116081.54445  20577272.5634                   20577271.1524
   6077773.953 6                  24713756.727
 -20951001.27048 -16311834.99045  20641451.9924                   20641449.8094
 -12792118.91848  -9957649.53343  21912778.3444                   21912775.3834
  -9214458.930 6                  24594243.422
 -17292695.73447 -13461342.52743  21803069.9064                   21803068.5354
 -15169086.67647 -11817324.45444  22126618.2584                   22126614.9774
 11  9 24  2 31 30.0000000  0  7G29G22G15G18G05G26G21
 -24523407.99248 -19096874.72945  20581962.9924                   20581960.9774
   5987073.395 6                  24696496.383
 -20967889.12948 -16324994.33544  20638238.3524                   20638235.8134
 -12846700.53548 -10000180.65243  21902392.2034                   21902388.9574
  -9146989.488 6                  24607081.945
 -17247922.87147 -13426454.61343  21811590.2344                   21811587.9344
 -15248403.57848 -11879129.83843  22111524.4924                   22111520.7734
 11  9 24  2 32  0.0000000  0  7G29G22G15G18G05G26G21
 -24498224.95348 -19077251.61745  20586755.2734                   20586753.5394
   5896531.957 6                  24679267.656
 -20984176.31248 -16337685.61045  20635139.0474                   20635136.7624
 -12901047.66448 -10042529.05343  21892049.7424                   21892047.4414
  -9079581.63746  -7059861.38453  24619909.7194                   24619908.3244
 -17202556.14147 -13391103.83843  21820222.6484                   21820220.5904
 -15327668.50047 -11940894.62443  22096441.0864                   22096437.4024
 11  9 24  2 32 30.0000000  0  7G29G22G15G18G05G26G21
 -24472507.10248 -19057211.72945  20591649.0234                   20591647.8674
   5806151.270 6                  24662068.922
 -20999861.61348 -16349907.91445  20632154.4774                   20632151.5944
 -12955158.97748 -10084693.64443  21881752.7114                   21881750.0864
  -9012234.852 6                  24632725.086
 -17156596.61747 -13355291.30443  21828968.3444                   21828966.4884
 -15406879.10948 -12002617.15344  22081367.3524                   22081364.1174
 11  9 24  2 33  0.0000000  0  7G29G22G15G18G05G26G21
 -24446254.56648 -19036755.21145  20596644.9694                   20596643.9344
   5715932.941 6                  24644900.477
 -21014943.94148 -16361660.36945  20629283.9844                   20629281.6564
 -13009034.43448 -10126674.53843  21871500.5704                   21871497.4844
  -8944949.014 6                  24645528.938
 -17110045.29347 -13319017.45743  21837827.3284                   21837825.5904
 -15486032.39147 -12064295.02544  22066305.4534                   22066301.5164
 11  9 24  2 33 30.0000000  0  7G29G22G15G18G05G26G21
 -24419467.57848 -19015882.22745  20601742.0314                   20601740.2934
   5625878.25846   4392226.88352  24627763.4064                   24627762.1024
 -21029422.67647 -16372942.47945  20626528.8204                   20626527.0864
 -13062673.10948 -10168470.87043  21861293.7664                   21861291.0554
  -8877722.719 6                  24658322.484
 -17062903.37947 -13282283.52543  21846797.9384                   21846795.3404
 -15565126.42248 -12125926.68543  22051253.8134                   22051251.0864
 11  9 24  2 34  0.0000000  0  7G29G22G15G18G05G26G21
 -24392145.87148 -18994592.58644  20606941.3524                   20606939.6804
   5535988.05146   4322179.69753  24610658.5314                   24610652.6414
 -21043296.36348 -16383753.11445  20623888.7504                   20623886.6524
 -13116074.48448 -10210082.28543  21851131.3754                   21851128.4454
  -8810556.254 6                  24671103.445
 -17015172.61747 -13245090.69543  21855880.8444                   21855878.1564
 -15644158.59848 -12187510.19244  22036215.0004                   22036211.0474
 11  9 24  2 34 30.0000000  0  7G29G22G15G18G05G26G21
 -24364291.48848 -18972887.90745  20612242.1804                   20612240.7894
   5446262.145 6                  24593584.281
 -21056566.15648 -16394093.21145  20621363.5554                   20621361.3054
 -13169239.59048 -10251509.65943  21841014.3204                   21841011.7974
  -8743450.691 6                  24683873.461
 -16966855.81247 -13207441.31743  21865075.0394                   21865073.9454
 -15723127.74648 -12249044.60144  22021187.2194                   22021184.5514
 11  9 24  2 35  0.0000000  0  7G29G22G15G18G05G26G21
 -24335905.82847 -18950769.20644  20617643.6644                   20617641.5634
   5356700.62146   4182475.49252  24576540.9144                   24576537.5904
 -21069232.57047 -16403963.11344  20618953.0084                   20618951.0634
 -13222169.50046 -10292753.62543  21830942.1174                   21830939.4614
  -8676406.773 6                  24696631.430
 -16917955.94146 -13169337.44643  21874380.1644                   21874379.0354
 -15802032.95746 -12310529.12343  22006172.4844                   22006168.6254
 11  9 24  2 35 30.0000000  0  7G29G22G15G18G05G26G21
 -24306989.40248 -18928236.90845  20623146.2344                   20623144.9344
   5267304.19546   4112816.26643  24559529.2194                   24559526.1294
 -21081295.04348 -16413362.40644  20616657.7814                   20616655.9614
 -13274863.93048 -10333814.23043  21820914.7424                   21820911.8834
  -8609424.53946  -6693505.30053  24709377.6254                   24709374.9494
 -16868474.40247 -13130780.41243  21883796.3914                   21883794.1414
 -15880872.31648 -12371962.34244  21991169.6954                   21991166.4534
 11  9 24  2 36  0.0000000  0  7G29G22G15G18G05G26G21
 -24277544.71148 -18905293.02944  20628749.2274                   20628747.8674
   5178072.27046   4043284.87643  24542548.2734                   24542545.2074
 -21092755.09848 -16422292.32944  20614476.9774                   20614474.7624
 -13327324.53548 -10374692.60143  21810931.9614                   21810928.6454
  -8542505.51246  -6641360.53443  24722111.5234                   24722110.0664
 -16818414.77047 -13091772.92443  21893322.1334                   21893321.3794
 -15959645.27047 -12433343.81544  21976179.5634                   21976175.7704
 11  9 24  2 36 30.0000000  0  7G29G22G15G18G05G26G21
 -24247572.27748 -18881937.88644  20634452.6484                   20634451.6954
   5089005.72746   3973882.38043  24525599.5784                   24525596.8364
 -21103612.50848 -16430752.61945  20612410.7504                   20612408.7194
 -13379551.55948 -10415388.99943  21800993.2114                   21800990.7304
  -8475650.094 6                  24734833.773
 -16767779.14547 -13052316.55343  21902957.9614                   21902957.8754
 -16038349.72747 -12494672.00043  21961202.2894                   21961199.3204
 11  9 24  2 37  0.0000000  0  7G29G22G15G18G05G26G21
 -24217072.94548 -18858172.15945  20640256.8134                   20640254.8794
   5000104.75447   3904609.19143  24508682.3754                   24508679.5314
 -21113867.14848 -16438743.20945  20610459.3444                   20610457.2934
 -13431544.64848 -10455903.04243  21791099.4844                   21791097.5314
  -8408857.85246  -6537219.51153  24747543.8364                   24747543.3634
 -16716569.22347 -13012412.68243  21912702.7504                   21912701.0124
 -16116983.66847 -12555945.10143  21946238.6954                   21946235.8714
 11  9 24  2 37 30.0000000  0  7G29G22G15G18G05G26G21
 -24186049.51648 -18833998.06445  20646160.4844                   20646158.5904
   4911368.36346   3835463.98943  24491796.6414                   24491793.8794
 -21123520.50448 -16446265.32145  20608622.4614                   20608619.8914
 -13483305.99248 -10496236.51843  21781249.7664                   21781247.2584
  -8342130.730 6                  24760241.453
 -16664789.50047 -12972064.86743  21922556.2114                   21922554.8244
 -16195546.53147 -12617162.87644  21931288.6954                   21931285.7344
 11  9 24  2 38  0.0000000  0  7G29G22G15G18G05G26G21
 -24154501.26248 -18809415.04745  20652163.9384                   20652163.1644
   4822799.03146   3766449.33043  24474942.1724                   24474938.6174
 -21132571.21948 -16453317.78045  20606900.2194                   20606897.5314
 -13534834.03948 -10536388.19244  21771444.0234                   21771440.9414
  -8275467.43446  -6433279.06652  24772926.7504                   24772921.9344
 -16612440.00447 -12931273.14043  21932518.4924                   21932516.2384
 -16274035.93747 -12678323.46044  21916352.6884                   21916350.5554
 11  9 24  2 38 30.0000000  0  7G29G22G15G18G05G26G21
 -24122429.32048 -18784423.91945  20658267.0234                   20658265.5944
   4734396.699 6                  24458119.055
 -21141019.45748 -16459900.83145  20605292.4844                   20605290.4534
 -13586129.62548 -10576358.76344  21761682.7424                   21761679.6414
  -8208868.609 6                  24785600.602
 -16559523.54747 -12890039.47643  21942587.3054                   21942586.1524
 -16352450.03148 -12739425.25443  21901431.2504                   21901427.9534
 11  9 24  2 39  0.0000000  0  7G29G22G15G18G05G26G21
 -24089836.06248 -18759026.57245  20664469.2734                   20664467.7034
   4646160.324 6                  24441327.695
 -21148866.62948 -16466015.46045  20603798.9304                   20603796.2704
 -13637194.01248 -10616149.18444  21751965.3524                   21751963.5084
  -8142335.410 6                  24798262.711
 -16506043.64547 -12848366.85843  21952764.8674                   21952763.6374
 -16430788.07848 -12800467.81844  21886523.9224                   21886520.5084
 11  9 24  2 39 30.0000000  0  7G29G22G15G18G05G26G21
 -24056722.21948 -18733223.57844  20670770.4694                   20670769.2424
   4558091.234 6                  24424569.125
 -21156113.05948 -16471662.01645  20602420.3364                   20602417.4964
 -13688027.37148 -10655759.52443  21742292.0944                   21742289.6884
  -8075867.770 6                  24810910.023
 -16452002.37547 -12806256.71043  21963048.5944                   21963047.2074
 -16509047.98848 -12861449.59844  21871630.8914                   21871628.1214
 11  9 24  2 40  0.0000000  0  6G29G22G15G18G26G21
 -24023091.70748 -18707017.95144  20677170.1724                   20677168.6374
   4470186.91846   3491687.07653  24407841.8524                   24407836.9924
 -21162760.92648 -16476842.16445  20601155.2424                   20601153.2384
 -13738632.36748 -10695192.02143  21732662.5634                   21732659.6334
 -16397404.42647 -12763712.85443  21973438.2114                   21973437.0744
 -16587230.58648 -12922371.08343  21856753.7734                   21856750.6024
 11  9 24  2 40 30.0000000  0  6G29G22G15G18G26G21
 -23988944.39848 -18680409.73644  20683668.2504                   20683666.8094
   4382449.184 6                  24391145.352
 -21168809.04348 -16481554.95445  20600004.2424                   20600002.0784
 -13789007.62148 -10734445.41044  21723076.6644                   21723073.2154
 -16342250.84047 -12720736.13743  21983933.0784                   21983932.3674
 -16665332.47347 -12983229.66643  21841891.2664                   21841888.5004
 11  9 24  2 41  0.0000000  0  6G29G22G15G18G26G21
 -23954274.59848 -18653394.24345  20690265.7814                   20690264.2664
   4294885.336 6                  24374482.148
 -21174251.60548 -16485795.89545  20598968.7114                   20598966.2424
 -13839147.39148 -10773515.34343  21713534.7194                   21713531.8014
 -16286537.41047 -12677323.07443  21994535.1414                   21994533.4224
 -16743345.46547 -13044018.97644  21827045.5704                   21827041.8094
 11  9 24  2 41 30.0000000  0  6G29G22G15G18G26G21
 -23919082.32048 -18625971.71945  20696962.6024                   20696960.6604
   4207496.602 6                  24357852.422
 -21179087.55548 -16489564.15845  20598048.3364                   20598045.8164
 -13889050.87148 -10812401.16844  21704038.7424                   21704035.3714
 -16230265.37547 -12633474.58843  22005243.5004                   22005241.6134
 -16821266.44548 -13104736.61444  21812218.0234                   21812214.4184
 11  9 24  2 42  0.0000000  0  6G29G22G15G18G26G21
 -23883370.53548 -18598144.36144  20703758.2504                   20703756.6054
   4120282.012 6                  24341256.820
 -21183318.70748 -16492861.12744  20597243.0164                   20597241.0554
 -13938719.64848 -10851104.06744  21694587.0864                   21694583.5234
 -16173438.79747 -12589194.28143  22016057.2114                   22016054.9654
 -16899095.42648 -13165382.54343  21797407.8364                   21797404.4844
 11  9 24  2 42 30.0000000  0  6G29G22G15G18G26G21
 -23847140.91848 -18569913.49745  20710652.8204                   20710650.7344
   4033241.508 6                  24324692.008
 -21186946.09848 -16495687.63544  20596552.6254                   20596550.9844
 -13988154.56247 -10889624.74444  21685179.5864                   21685177.0234
 -16116060.67247 -12544484.05543  22026976.2344                   22026974.3094
 -16976830.83247 -13225955.50843  21782615.1954                   21782611.4534
 11  9 24  2 43  0.0000000  0  6G29G22G15G18G26G21
 -23810397.69148 -18541282.43044  20717644.2504                   20717643.1804
   3946372.434 6                  24308161.977
 -21189972.91448 -16498046.18045  20595976.7814                   20595975.3524
 -14037359.16048 -10927965.91543  21675816.3594                   21675813.0084
 -16058136.31247 -12499348.14743  22037998.6414                   22037996.8324
 -17054473.88348 -13286456.55244  21767840.2034                   21767837.2194
 11  9 24  2 43 30.0000000  0  6G29G22G15G18G26G21
 -23773143.42248 -18512253.10444  20724733.8594                   20724731.9654
   3859673.617 6                  24291663.586
 -21192400.73448 -16499938.04045  20595514.9144                   20595512.6334
 -14086335.20747 -10966129.01843  21666496.8134                   21666494.1374
 -15999669.46547 -12453789.58443  22049124.2344                   22049122.3444
 -17132023.82847 -13346885.12044  21753083.1334                   21753079.5904
 11  9 24  2 44  0.0000000  0  6G29G22G15G18G26G21
 -23735382.28948 -18482828.87844  20731919.3594                   20731918.0514
   3773142.86747   2948531.11053  24275197.7424                   24275191.5554
 -21194233.09848 -16501365.78445  20595166.2274                   20595164.4614
 -14135085.38747 -11004116.18943  21657219.8444                   21657217.1994
 -15940665.57047 -12407812.62543  22060352.2504                   22060350.8984
 -17209481.57047 -13407241.77043  21738343.0314                   21738339.5514
 11  9 24  2 44 30.0000000  0  6G29G22G15G18G26G21
 -23697114.65648 -18453009.93544  20739201.5554                   20739199.7344
   3686781.32847   2881235.38753  24258763.8594                   24258754.9144
 -21195469.87548 -16502329.54345  20594930.9614                   20594929.3364
 -14183609.46147 -11041927.14543  21647985.8364                   21647982.6804
 -15881126.11347 -12361418.21643  22071682.8984                   22071681.2424
 -17286844.50447 -13467524.62744  21723621.6884                   21723618.4734
 11  9 24  2 45  0.0000000  0  6G29G22G15G18G26G21
 -23658342.84848 -18422798.18045  20746579.7974                   20746578.2034
   3600588.62147   2814071.39152  24242361.9384                   24242355.7274
 -21196111.67648 -16502829.59545  20594808.8914                   20594806.6764
 -14231908.84847 -11079563.00743  21638795.0704                   21638792.6024
 -15821054.59447 -12314609.17543  22083113.6954                   22083111.8714
 -17364111.94547 -13527732.94644  21708917.8284                   21708914.6524
 11  9 24  2 45 30.0000000  0  6G29G22G15G18G26G21
 -23619068.11348 -18392194.47244  20754053.4694                   20754051.4654
   3514565.12147   2747040.17543  24225991.5634                   24225987.2774
 -21196159.01248 -16502866.47845  20594799.5164                   20594797.6684
 -14279983.69547 -11117023.87643  21629646.3984                   21629643.4574
 -15760453.26647 -12267387.39843  22094645.9844                   22094643.9844
 -17441281.58248 -13587865.08644  21694233.0474                   21694229.0554
 11  9 24  2 46  0.0000000  0  6G29G22G15G18G26G21
 -23579293.51648 -18361201.28044  20761622.1024                   20761620.5904
   3428709.40647   2680139.89843  24209654.3594                   24209651.1804
 -21195614.34848 -16502442.03645  20594903.0634                   20594900.9804
 -14327835.89847 -11154311.26944  21620540.4774                   21620537.4844
 -15699326.66447 -12219756.26643  22106278.4064                   22106275.7584
 -17518353.55547 -13647921.20344  21679566.7034                   21679562.9924
 11  9 24  2 46 30.0000000  0  7G29G22G09G15G18G26G21
 -23539019.50448 -18329818.92344  20769285.9534                   20769284.6134
   3343022.79747   2613371.12943  24193347.7424                   24193344.4384
   6151565.42216                  24821325.563
 -21194477.72348 -16501556.36745  20595119.2274                   20595117.1094
 -14375465.06247 -11191424.89644  21611477.0164                   21611473.8954
 -15637676.31247 -12171717.07343  22118009.5164                   22118007.1484
 -17595324.80147 -13707898.70843  21664919.5084                   21664916.3404
 11  9 24  2 47  0.0000000  0  7G29G22G09G15G18G26G21
 -23498255.90247 -18298055.09944  20777043.2114                   20777041.5944
   3257496.96147   2546727.76853  24177073.2584                   24177069.2544
   6048850.148 6                  24801779.242
 -21192757.71948 -16500216.07345  20595446.8364                   20595444.9064
 -14422880.04347 -11228371.60944  21602453.8984                   21602451.2154
 -15575513.43747 -12123278.50443  22129838.6644                   22129836.5904
 -17672201.96947 -13767802.99744  21650290.1804                   21650286.9884
 11  9 24  2 47 30.0000000  0  7G29G22G09G15G18G26G21
 -23457004.94147 -18265911.48644  20784893.2894                   20784891.4804
   3172131.88347   2480209.60743  24160828.4304                   24160824.5204
   5946038.37146   4642613.76553  24782214.3984                   24782211.8324
 -21190455.39848 -16498422.02745  20595884.8364                   20595882.5044
 -14470081.29347 -11265151.76144  21593472.1024                   21593469.0394
 -15512840.69147 -12074442.60943  22141765.2734                   22141763.0084
 -17748983.82847 -13827632.99444  21635679.2894                   21635675.8284
 11  9 24  2 48  0.0000000  0  7G29G22G09G15G18G26G21
 -23415267.65247 -18233388.94644  20792835.2504                   20792834.4844
   3086928.33646   2413817.32842  24144614.3754                   24144609.3554
   5843133.543 6                  24762632.992
 -21187571.15248 -16496174.57644  20596433.5864                   20596431.7344
 -14517068.83647 -11301765.37644  21584530.7504                   21584527.7734
 -15449660.62147 -12025211.30343  22153787.5864                   22153786.2274
 -17825666.86747 -13887386.02144  21621086.8984                   21621083.5514
 11  9 24  2 48 30.0000000  0  7G29G22G09G15G18G26G21
 -23373045.12547 -18200488.26144  20800870.0164                   20800868.4264
   3001886.65246   2347551.18042  24128431.7274                   24128426.4614
   5740139.375 6                  24743033.531
 -21184105.23048 -16493473.83945  20597093.0864                   20597090.9184
 -14563843.73447 -11338213.41443  21575629.3984                   21575626.8674
 -15385975.39847 -11975586.50943  22165906.9844                   22165905.6134
 -17902250.51247 -13947061.59644  21606513.5394                   21606511.0744
 11  9 24  2 49  0.0000000  0  7G29G22G09G15G18G26G21
 -23330335.25448 -18167207.88044  20808997.5004                   20808996.0434
   2917010.60246   2281414.23243  24112280.3284                   24112276.3834
   5637062.473 7                  24723418.648
 -21180055.23048 -16490317.97745  20597863.8054                   20597861.7034
 -14610402.19947 -11374492.67844  21566769.7974                   21566767.9884
 -15321784.37947 -11925567.53643  22178121.5864                   22178120.9304
 -17978728.21547 -14006654.52344  21591960.3594                   21591956.5474
 11  9 24  2 49 30.0000000  0  7G29G22G09G15G18G26G21
 -23287141.84048 -18133550.68344  20817216.9144                   20817215.2344
   2832298.46546   2215404.82053  24096160.1334                   24096155.1954
   5533904.023 6                  24703788.250
 -21175423.87148 -16486709.11144  20598745.1884                   20598743.2384
 -14656746.87148 -11410605.40344  21557950.7814                   21557947.6954
 -15257092.34847 -11875158.21843  22190432.5394                   22190429.8754
 -18055100.56647 -14066165.41344  21577426.8834                   21577423.7034
 11  9 24  2 50  0.0000000  0  7G29G22G09G15G18G26G21
 -23243464.82448 -18099516.64845  20825528.2344                   20825526.7274
   2747752.47746   2149524.90443  24080070.8444                   24080066.6454
   5430669.094 6                  24684142.508
 -21170209.92248 -16482646.31445  20599737.3054                   20599735.4264
 -14702876.43448 -11446550.48843  21549172.6724                   21549169.8634
 -15191900.09847 -11824359.05843  22202838.2814                   22202836.5704
 -18131364.15647 -14125591.63244  21562914.5554                   21562910.5704
 11  9 24  2 50 30.0000000  0  7G29G22G09G15G18G26G21
 -23199305.29347 -18065106.65644  20833931.5084                   20833930.4104
   2663372.80946   2083774.58652  24064013.8834                   24064009.3404
   5327361.066 6                  24664483.813
 -21164413.73848 -16478129.78044  20600840.2504                   20600838.3444
 -14748790.38347 -11482327.55244  21540435.4224                   21540432.2894
 -15126210.07447 -11773172.14043  22215338.1884                   22215336.4344
 -18207516.71147 -14184931.27644  21548423.3364                   21548419.2814
 11  9 24  2 51  0.0000000  0  7G29G22G09G15G18G26G21
 -23154665.55147 -18030322.43144  20842426.1484                   20842424.4924
   2579159.266 6                  24047988.344
   5223982.480 6                  24644811.344
 -21158036.86348 -16473160.77545  20602053.9304                   20602051.5864
 -14794490.63747 -11517938.10444  21531738.9844                   21531736.6914
 -15060025.69947 -11721599.72043  22227933.0704                   22227930.8324
 -18283556.61747 -14244183.09144  21533953.1644                   21533949.9884
 11  9 24  2 51 30.0000000  0  7G29G22G09G15G18G26G21
 -23109547.54347 -17995165.55044  20851012.1094                   20851010.8954
   2495111.84446   1952662.46653  24031994.5234                   24031990.4964
   5120536.430 6                  24625126.133
 -21151080.73848 -16467740.39345  20603377.6644                   20603375.2274
 -14839977.77747 -11553382.61443  21523082.9064                   21523079.2734
 -14993349.87947 -11669644.64543  22240620.7504                   22240618.9304
 -18359482.28547 -14303345.91244  21519504.6254                   21519501.2464
 11  9 24  2 52  0.0000000  0  7G29G22G09G15G18G26G21
 -23063956.08647 -17959639.73944  20859687.6724                   20859685.9804
   2411227.46146   1887298.07143  24016031.7344                   24016027.9264
   5017022.96546   3918703.11353  24605428.5234                   24605423.9654
 -21143549.28548 -16461871.70044  20604810.6564                   20604809.0204
 -14885255.12547 -11588663.63744  21514466.7974                   21514464.0084
 -14926188.59847 -11617311.29843  22253401.0634                   22253399.9654
 -18435295.03147 -14362420.75044  21505078.3674                   21505074.4574
 11  9 24  2 52 30.0000000  0  7G29G22G09G15G18G26G21
 -23017889.57447 -17923743.77544  20868454.1254                   20868452.5434
   2327509.66846   1822063.59042  24000101.3204                   24000096.4734
   4913448.398 5                  24585719.203
 -21135439.99648 -16455552.76944  20606353.8284                   20606352.0664
 -14930320.21547 -11623779.29243  21505891.1564                   21505888.5514
 -14858541.59847 -11564599.25243  22266273.9224                   22266272.3014
 -18510989.17247 -14421403.17344  21490674.2034                   21490670.8324
 11  9 24  2 53  0.0000000  0  7G29G22G09G15G18G26G21
 -22971352.70347 -17887481.28044  20877309.3674                   20877307.7704
   2243955.39546   1756956.46853  23984201.2974                   23984194.0784
   4809813.141 6                  24565997.617
 -21126757.07848 -16448786.86345  20608005.9454                   20608003.7274
 -14975176.37547 -11658732.11043  21497355.6174                   21497352.2814
 -14790414.19547 -11511512.87343  22279238.1954                   22279236.2854
 -18586566.40647 -14480294.52744  21476292.4454                   21476289.0434
 11  9 24  2 53 30.0000000  0  7G29G22G09G15G18G26G21
 -22924345.09447 -17850852.00044  20886254.9454                   20886252.7194
   2160566.67247   1691978.28843  23968332.5634                   23968326.5784
   4706121.83645   3676442.92252  24546265.9844                   24546265.8204
 -21117499.73448 -16441573.31945  20609767.8914                   20609765.5044
 -15019822.30947 -11693521.12843  21488859.5784                   21488856.7664
 -14721808.00847 -11458053.54143  22292293.4614                   22292290.8324
 -18662023.12147 -14539091.94144  21461933.3834                   21461930.6724
 11  9 24  2 54  0.0000000  0  7G29G22G09G15G18G26G21
 -22876869.73848 -17813858.22644  20895289.0164                   20895287.8714
   2077343.27347   1627129.10053  23952496.4694                   23952491.5164
   4602377.61346   3595603.30542  24526523.4384                   24526522.8324
 -21107669.19548 -16433913.18444  20611638.4614                   20611635.9454
 -15064259.09447 -11728147.20144  21480403.6254                   21480400.5124
 -14652726.10246 -11404223.50743  22305439.2114                   22305436.8204
 -18737357.39147 -14597793.95744  21447597.5634                   21447594.2894
 11  9 24  2 54 30.0000000  0  7G29G22G09G15G18G26G21
 -22828929.76648 -17776502.40744  20904411.8754                   20904410.0474
   1994283.82447   1562407.35542  23936690.9844                   23936685.7034
   4498581.926 5                  24506772.203
 -21097268.02748 -16425808.35844  20613617.7664                   20613615.5434
 -15108488.28547 -11762611.48844  21471986.6804                   21471983.9964
 -14583172.64847 -11350025.95343  22318674.7274                   22318673.9734
 -18812568.82847 -14656400.22744  21433285.4844                   21433282.2344
 11  9 24  2 55  0.0000000  0  7G29G22G09G15G18G26G21
 -22780526.96148 -17738785.95944  20913622.5944                   20913621.5004
   1911388.34447   1497813.60542  23920915.8594                   23920912.7934
   4394737.746 6                  24487011.719
 -21086297.57448 -16417259.92444  20615705.5944                   20615703.4344
 -15152511.04347 -11796914.89944  21463609.8594                   21463607.0474
 -14513151.00047 -11295463.81043  22331999.9064                   22331997.6484
 -18887655.92648 -14714909.64244  21418996.8284                   21418993.8914
 11  9 24  2 55 30.0000000  0  7G29G22G09G15G18G26G21
 -22731660.94148 -17700708.53644  20922921.6644                   20922919.7424
   1828659.02347   1433349.38742  23905171.9694                   23905168.2304
   4290850.66046   3352856.15652  24467241.6484                   24467240.9104
 -21074756.66448 -16408266.98045  20617901.5784                   20617898.9574
 -15196325.64147 -11831056.10144  21455272.0944                   21455268.7704
 -14442661.80947 -11240537.17443  22345413.3444                   22345411.1334
 -18962614.65647 -14773319.02444  21404732.5084                   21404729.3164
 11  9 24  2 56  0.0000000  0  7G29G22G09G15G18G26G21
 -22682336.34448 -17662273.78444  20932307.6094                   20932306.8204
   1746093.05947   1369012.34543  23889461.6174                   23889457.1334
   4186921.254 5                  24447464.453
 -21062649.36348 -16398832.72545  20620205.6254                   20620203.3874
 -15239935.32447 -11865037.66044  21446973.2734                   21446969.9574
 -14371710.44546 -11185250.29043  22358914.9774                   22358913.4654
 -19037445.55547 -14831628.83844  21390492.9534                   21390488.7074
 11  9 24  2 56 30.0000000  0  8G29G22G09G06G15G18G26G21
 -22632557.93448 -17623485.45444  20941780.1094                   20941778.5434
   1663688.07847   1304800.76143  23873779.7194                   23873774.7504
   4082950.090 6                  24427679.453
   6151276.45316                  24704599.852
 -21049979.32848 -16388959.98244  20622616.3054                   20622614.2544
 -15283343.52747 -11898862.20043  21438713.1334                   21438710.1914
 -14300302.78147 -11129608.01443  22372503.6094                   22372502.1294
 -19112148.95748 -14889839.18344  21376277.1644                   21376273.2704
 11  9 24  2 57  0.0000000  0  8G29G22G09G06G15G18G26G21
 -22582330.58248 -17584347.27144  20951338.2734                   20951336.9534
   1581440.93047   1240711.90453  23858128.2814                   23858122.2624
   3978937.07846   3109807.75052  24407886.8444                   24407880.2424
   6048791.746 5                  24685096.266
 -21036751.22347 -16378652.32545  20625133.9224                   20625131.3444
 -15326553.82847 -11932532.54643  21430490.3204                   21430487.0594
 -14228444.87546 -11073614.83343  22386177.6954                   22386175.0474
 -19186726.86747 -14947951.85944  21362085.4224                   21362082.0984
 11  9 24  2 57 30.0000000  0  8G29G22G09G06G15G18G26G21
 -22531659.07448 -17544862.97344  20960980.4844                   20960979.3134
   1499348.82847   1176744.28743  23842507.3914                   23842501.5984
   3874882.965 6                  24388085.906
   5946564.414 5                  24665642.977
 -21022968.46947 -16367912.50344  20627756.1804                   20627753.5904
 -15369569.46147 -11966051.18444  21422304.7034                   21422301.9024
 -14156142.57046 -11017275.35643  22399936.1724                   22399933.9844
 -19261179.97347 -15005967.22044  21347917.2034                   21347913.9454
 11  9 24  2 58  0.0000000  0  8G29G22G09G06G15G18G26G21
 -22480543.67248 -17505032.81144  20970707.3524                   20970706.1884
   1417413.28547   1112898.58543  23826914.4534                   23826909.6914
   3770792.398 6                  24368278.555
   5844598.359 6                  24646240.406
 -21008631.31247 -16356740.70844  20630484.6334                   20630482.3404
 -15412389.59447 -11999417.52243  21414155.9454                   21414153.8914
 -14083397.35946 -10960590.65243  22413779.1094                   22413777.5664
 -19335504.52347 -15063882.44144  21333774.2194                   21333771.3164
 11  9 24  2 58 30.0000000  0  8G29G22G09G06G15G18G26G21
 -22428986.40648 -17464858.27644  20980518.7974                   20980516.6804
   1335634.47347   1049174.91243  23811352.6414                   23811348.1054
   3666668.75446   2866481.99153  24348464.3674                   24348462.3634
   5742896.461 6                  24626888.234
 -20993740.22348 -16345137.26844  20633318.2814                   20633316.1414
 -15455014.27347 -12032631.48644  21406044.9924                   21406041.9414
 -14010211.64147 -10903563.02443  22427706.0704                   22427704.2774
 -19409698.34847 -15121695.81344  21319655.5704                   21319652.3014
 11  9 24  2 59  0.0000000  0  8G29G22G09G06G15G18G26G21
 -22376987.07848 -17424339.34444  20990413.6484                   20990412.3324
   1254014.71547    985575.12343  23795821.6094                   23795816.4454
   3562517.28146   2785325.14643  24328644.3524                   24328643.0314
   5641463.012 6                  24607584.297
 -20978294.88347 -16333101.91945  20636257.3134                   20636254.7624
 -15497442.19547 -12065692.17143  21397971.4534                   21397968.3244
 -13936586.65246 -10846192.86943  22441716.4774                   22441715.0274
 -19483757.23448 -15179404.02044  21305562.3984                   21305559.6094
 11  9 24  2 59 30.0000000  0  8G29G22G09G06G15G18G26G21
 -22324544.66448 -17383475.15944  21000393.2274                   21000391.2194
   1172556.92247    922101.61343  23780320.4224                   23780316.2974
   3458344.20346   2704151.28053  24308820.8054                   24308820.5004
   5540303.719 6                  24588335.563
 -20962293.80948 -16320633.53644  20639302.7424                   20639300.6414
 -15539671.21547 -12098597.93144  21389935.2664                   21389932.6764
 -13862522.46946 -10788480.71343  22455810.5004                   22455808.6644
 -19557676.84848 -15237003.68944  21291496.1884                   21291492.6604
 11  9 24  3  0  0.0000000  0  8G29G22G09G06G15G18G26G21
 -22271663.00848 -17342268.68044  21010456.0864                   21010454.2734
   1091259.26647    858752.71143  23764849.1564                   23764845.4614
   3354151.05546   2622961.84042  24288993.4844                   24288992.4734
   5439419.230 5                  24569136.781
 -20945739.56247 -16307734.13045  20642452.5944                   20642450.3984
 -15581703.43747 -12131350.25144  21381936.9064                   21381933.9184
 -13788023.56246 -10730429.45753  22469986.4304                   22469985.9844
 -19631456.87147 -15294494.60044  21277456.0164                   21277452.9304
 11  9 24  3  0 30.0000000  0  8G29G22G09G06G15G18G26G21
 -22218342.60248 -17300720.31544  21020602.9694                   21020601.2814
   1010123.50846    795530.38653  23749409.6954                   23749406.2194
   3249942.703 6                  24269163.297
                                  24549991.281
 -20928632.35247 -16294403.81145  20645708.1094                   20645705.2664
 -15623537.75847 -12163948.41243  21373976.3204                   21373973.2304
 -13713091.60246 -10672040.86943  22484245.8054                   22484242.9224
 -19705093.34847 -15351873.64844  21263443.2974                   21263439.7464
 11  9 24  3  1  0.0000000  0  8G29G22G09G06G15G18G26G21
 -22164588.00848 -17258833.63944  21030831.9064                   21030829.6414
    929147.04346    732431.94943  23734000.4064                   23733995.5354
   3145719.477 6                  24249330.742
   5238486.723 6                  24530901.430
 -20910975.71148 -16280645.38544  20649068.1254                   20649065.5984
 -15665177.51647 -12196394.93644  21366052.0554                   21366048.5944
 -13637732.10546 -10613319.29043  22498586.5234                   22498585.1484
 -19778587.18448 -15409141.59144  21249458.4224                   21249454.5704
 11  9 24  3  1 30.0000000  0  8G29G22G09G06G15G18G26G21
 -22110399.94548 -17216609.17844  21041143.8204                   21041141.6684
    848331.10247    669458.60843  23718622.0314                   23718617.9734
   3041486.605 6                  24229494.992
   5138442.51245   4013368.01853  24511862.6884                   24511860.6564
 -20892770.03148 -16266459.17044  20652532.1884                   20652529.8364
 -15706622.16448 -12228689.42344  21358165.6414                   21358162.3164
 -13561946.80946 -10554265.83943  22513008.6334                   22513007.1524
 -19851934.20348 -15466295.06044  21235500.5784                   21235497.4964
 11  9 24  3  2  0.0000000  0  8G29G22G09G06G15G18G26G21
 -20480362.81648 -15946450.41744  21351329.4614                   21351327.7194
   2343097.90247   1834211.87643  24003066.0234                   24003061.7344
   4512670.55946   3525704.57452  24509452.3134                   24509446.4264
   6614106.105 6                  24792671.758
 -19298597.45748 -15024246.73844  20955893.6414                   20955891.5514
 -14172451.10248 -11033231.50344  21650108.5234                   21650105.5784
 -11910321.67647  -9267285.06343  22827301.6724                   22827299.6054
 -18349711.71148 -14295732.08244  21521364.0864                   21521360.7464
 11  9 24  3  2 30.0000000  0  8G29G22G09G06G15G18G26G21
 -20425313.63748 -15903554.94944  21361804.9144                   21361803.2034
   2262603.46546   1771489.09843  23987748.7894                   23987744.4924
   4408428.559 6                                                  24489615.563
   6514634.820 6                  24773742.742
 -19279297.39848 -15009207.72344  20959565.8594                   20959563.3244
 -14213506.42647 -11065222.61244  21642296.0784                   21642292.9884
 -11833693.31647  -9207574.63143  22841884.2344                   22841882.7034
 -18422760.46148 -14352653.15544  21507463.2894                   21507459.7464
 11  9 24  3  3  0.0000000  0  8G29G22G09G06G15G18G26G21
 -20369837.63348 -15860326.91544  21372361.7504                   21372359.9694
   2182269.43047   1708891.43143  23972461.2814                   23972458.3404
   4304186.32446   3363249.32853  24469779.0634                   24469779.5664
   6415453.211 6                  24754870.297
 -19259452.46147 -14993744.11144  20963342.3524                   20963339.6994
 -14254368.41847 -11097063.14144  21634520.3754                   21634517.6054
 -11756648.57047  -9147539.95043  22856545.3754                   22856543.1414
 -18495657.69148 -14409456.18444  21493591.2034                   21493588.2234
 11  9 24  3  3 30.0000000  0  8G29G22G09G06G15G18G26G21
 -20313936.52048 -15816767.61144  21382999.3754                   21382997.2664
   2102095.80147   1646418.46853  23957205.1094                   23957200.8874
   4199947.734 6                                                  24449943.523
   6316564.03556   4931382.21553  24736050.6094                   24736052.7704
 -19239064.11348 -14977857.08044  20967222.0634                   20967219.7974
 -14295037.34447 -11128753.15044  21626781.4384                   21626777.9104
 -11679189.94147  -9087182.56453  22871284.3134                   22871284.7344
 -18568400.57448 -14466138.94844  21479748.9534                   21479745.9924
 11  9 24  3  4  0.0000000  0  8G29G22G09G06G15G18G26G21
 -20257611.90648 -15772878.32744  21393717.3364                   21393715.9024
   2022083.23447   1584071.03153  23941979.1484                   23941974.4884
   4095716.34846   3200805.52053  24430108.7814                   24430105.5044
   6217970.402 6                  24717290.234
 -19218133.30148 -14961547.37044  20971205.1804                   20971202.9734
 -14335513.37547 -11160292.90044  21619078.8054                   21619075.8054
 -11601320.23846  -9026504.91052  22886102.5314                   22886101.2274
 -18640986.37948 -14522699.27644  21465936.1954                   21465933.0084
 11  9 24  3  4 30.0000000  0  8G29G22G09G06G15G18G26G21
 -20200865.60948 -15728660.42244  21404515.6804                   21404514.6054
   1942232.25447   1521849.62643  23926783.2974                   23926779.8794
   3991496.10947   3119594.90643  24410276.6414                   24410273.6454
   6119674.969 6                  24698585.086
 -19196661.17648 -14944815.84544  20975291.1024                   20975289.2624
 -14375796.73447 -11191682.52544  21611412.9064                   21611410.6094
 -11523042.26646  -8965509.15943  22900998.4144                   22900996.1454
 -18713413.25848 -14579135.83444  21452154.0944                   21452150.3134
 11  9 24  3  5  0.0000000  0  8G29G22G09G06G15G18G26G21
 -20143701.45748 -15684116.95944  21415394.1024                   21415392.3094
   1862540.94547   1459752.57543  23911619.1334                   23911614.3554
   3887288.66446   3038394.40443  24390446.6334                   24390444.7814
   6021678.629 6                  24679936.430
 -19174650.76648 -14927664.84245  20979479.5864                   20979477.9694
 -14415889.32848 -11222923.48044  21603783.7974                   21603780.8094
 -11444360.31646  -8904198.36943  22915971.4144                   22915969.1844
 -18785680.78148 -14635448.16344  21438401.9304                   21438398.6884
 11  9 24  3  5 30.0000000  0  8G29G22G09G06G15G18G26G21
 -20086120.89548 -15639248.99844  21426351.3284                   21426349.7344
   1783009.99647   1397780.47243  23896484.8914                   23896480.3554
   3783098.00046   2957206.92253  24370618.6254                   24370617.3834
   5923984.57046   4625468.23452  24661347.1414                   24661343.8634
 -19152103.12948 -14910095.27044  20983770.3674                   20983767.6764
 -14455791.30548 -11254015.90444  21596190.7114                   21596187.6564
 -11365277.00046  -8842575.13742  22931020.6644                   22931017.8284
 -18857785.78948 -14691633.89544  21424680.4384                   21424677.1804
 11  9 24  3  6  0.0000000  0  8G29G22G09G06G15G18G26G21
 -20028125.08248 -15594057.43844  21437387.7734                   21437385.5744
   1703640.45347   1335933.88543  23881381.6644                   23881376.4414
   3678928.70346   2876036.06642  24350796.3284                   24350794.7814
   5826596.14846   4549581.17253  24642813.1804                   24642813.9264
 -19129018.30148 -14892107.07644  20988163.2034                   20988160.5944
 -14495501.97348 -11284959.26344  21588634.0634                   21588631.1684
 -11285794.160 6                  22946145.773
 -18929725.04748 -14747690.37544  21410991.1484                   21410988.3324
 11  9 24  3  6 30.0000000  0  8G29G22G09G06G15G18G26G21
 -19969717.60548 -15548545.14744  21448502.1564                   21448500.3634
   1624430.57447   1274212.29943  23866308.2894                   23866302.3754
   3574782.58247   2794883.13853  24330978.0864                   24330977.4574
   5729514.32446   4473932.79443  24624339.3524                   24624337.8674
 -19105399.83248 -14873703.07144  20992657.7894                   20992655.6844
 -14535023.66848 -11315755.36744  21581113.3914                   21581111.0984
 -11205916.69946  -8718398.22153  22961345.6564                   22961345.7464
 -19001498.43448 -14803617.74644  21397332.7194                   21397329.1954
 11  9 24  3  7  0.0000000  0  8G29G22G09G06G15G18G26G21
 -19910900.94548 -15502713.96944  21459694.7424                   21459693.1024
   1545380.18447   1212614.59043  23851264.2194                   23851259.2384
   3470662.68846   2713751.03043  24311164.5864                   24311163.2114
   5632741.37146   4398525.76853  24605925.0554                   24605926.5944
 -19081249.56648 -14854884.68445  20997253.1484                   20997251.3054
 -14574357.12948 -11346404.77544  21573628.4384                   21573625.6524
 -11125647.82047  -8655851.10543  22976620.5474                   22976618.3094
 -19073103.79748 -14859414.10844  21383706.9304                   21383703.0594
 11  9 24  3  7 30.0000000  0  8G29G22G09G06G15G18G26G21
 -19851676.24248 -15456564.86844  21470964.3984                   21470962.9454
   1466490.45747   1151142.03343  23836252.7894                   23836247.9734
   3366573.39147   2632642.44142  24291357.4064                   24291356.1294
   5536280.691 6                  24587568.172
 -19056568.14548 -14835652.39144  21001949.6414                   21001948.0124
 -14613502.03548 -11376907.31544  21566179.2974                   21566176.8404
 -11044989.410 6                  22991969.195
 -19144538.69148 -14915077.63744  21370113.2114                   21370110.4574
 11  9 24  3  8  0.0000000  0  8G29G22G09G06G15G18G26G21
 -19792044.23448 -15410098.35044  21482312.0234                   21482310.0124
   1387762.99647   1089796.23543  23821271.6804                   23821266.3204
   3262519.95746   2551561.81943  24271556.2034                   24271555.2194
   5440136.266 6                  24569271.531
 -19031355.19948 -14816005.94144  21006748.0164                   21006745.6804
 -14652457.01248 -11407261.84244  21558766.2584                   21558762.9144
 -10963943.11747  -8529847.48353  23007392.0474                   23007390.5704
 -19215798.62948 -14970604.90244  21356553.3364                   21356549.5204
 11  9 24  3  8 30.0000000  0  8G29G22G09G06G15G18G26G21
 -19732009.31648 -15363317.91744  21493736.3444                   21493734.8984
   1309195.32047   1028574.58443  23806320.7894                   23806314.8634
   3158503.551 6                  24251762.094
   5344308.34846   4173765.76353  24551037.6564                   24551036.5354
 -19005614.64148 -14795948.38644  21011645.9224                   21011643.9964
 -14691225.02048 -11437470.63744  21551389.2974                   21551386.1804
 -10882514.02747  -8466396.06443  23022887.7664                   23022886.0664
 -19286883.86348 -15025995.97244  21343025.8594                   21343022.1994
 11  9 24  3  9  0.0000000  0  8G29G22G09G06G15G18G26G21
 -19671573.94148 -15316225.42544  21505236.8364                   21505235.7274
   1230786.92647    967477.25543  23791399.5314                   23791395.0634
   3054527.53546   2389489.94653  24231975.8444                   24231974.6564
   5248799.078 6                  24532861.344
 -18979348.55148 -14775481.30244  21016644.2504                   21016642.2114
 -14729807.04348 -11467534.54544  21544046.9694                   21544045.0164
 -10800705.62147  -8402649.33243  23038454.8524                   23038453.9884
 -19357792.87948 -15081249.72044  21329532.5784                   21329529.2934
 11  9 24  3  9 30.0000000  0  8G29G22G09G06G15G18G26G21
 -19610737.73048 -15268820.64444  21516813.6564                   21516812.2584
   1152540.63347    906506.17543  23776509.6174                   23776504.8954
   2950597.58646   2308506.20343  24212199.3834                   24212198.1724
   5153613.60246   4025171.71152  24514749.7894                   24514741.4964
 -18952555.92648 -14754603.89844  21021742.8594                   21021740.3014
 -14768200.77748 -11497451.72444  21536740.8444                   21536738.0784
 -10718518.43047  -8338607.39953  23054095.0084                   23054091.8984
 -19428520.86748 -15136362.43644  21316073.2664                   21316070.2774
 11  9 24  3 10  0.0000000  0  8G29G22G09G06G15G18G26G21
 -19549502.17248 -15221104.60944  21528466.5474                   21528465.0354
   1074457.26647    845662.05743  23761651.5704                   23761646.7154
   2846717.992 6                  24192431.523
   5058755.105 6                  24496698.617
 -18925237.62548 -14733316.91244  21026941.3364                   21026938.3324
 -14806406.09448 -11527222.09144  21529471.1254                   21529467.9104
 -10635954.47346  -8274271.84653  23069806.0704                   23069803.4414
 -19499064.18048 -15191331.26544  21302649.2734                   21302645.5434
 11  9 24  3 10 30.0000000  0  8G29G22G09G06G15G18G26G21
 -19487871.87148 -15173081.00844  21540194.2894                   21540193.0004
    996534.27047    784942.79843  23746823.0784                   23746819.1844
   2742889.72346   2146655.24253  24172674.2114                   24172671.8984
   4964223.508 6                  24478708.313
 -18897397.69548 -14711623.42044  21032239.1644                   21032236.7234
 -14844426.05148 -11556848.00044  21522236.1024                   21522232.6724
 -10553019.35246  -8209647.39143  23085587.5864                   23085586.9654
 -19569423.89548 -15246156.97544  21289260.0084                   21289257.0204
 11  9 24  3 11  0.0000000  0  8G29G22G09G06G15G18G26G21
 -19425848.82048 -15124751.35444  21551997.0944                   21551994.7934
    918772.18047    724349.12643  23732025.4924                   23732020.9654
   2639116.89846   2065793.57452  24152926.3134                   24152924.5664
   4870021.78946   3804191.15653  24460782.5784                   24460782.4264
 -18869037.43448 -14689524.55844  21037635.8204                   21037633.4774
 -14882260.54348 -11586329.41544  21515036.2974                   21515034.1684
 -10469715.62546  -8144735.08043  23101439.4614                   23101439.2074
 -19639597.09448 -15300837.37944  21275906.7504                   21275903.0704
 11  9 24  3 11 30.0000000  0  8G29G22G09G06G15G18G26G21
 -19363434.71548 -15076117.02244  21563873.9774                   21563872.7424
    841171.51247    663880.97153  23717258.0164                   23717252.2234
   2535403.79746   1984978.10543  24133190.6884                   24133186.6954
   4776152.957 6                  24442920.555
 -18840157.88748 -14667020.99844  21043131.5004                   21043129.3794
 -14919909.60548 -11615666.34644  21507871.9534                   21507868.9694
 -10386045.85947  -8079538.01253  23117362.3524                   23117360.7344
 -19709580.98048 -15355370.24544  21262589.1804                   21262586.5084
 11  9 24  3 12  0.0000000  0  8G29G22G09G06G15G18G26G21
 -19300631.84448 -15027179.69144  21575824.9844                   21575823.9064
    763731.80947    603538.67453  23702522.2664                   23702517.7114
   2431753.59847   1904211.90654  24113465.9614                   24113462.0234
   4682618.973 6                  24425121.453
 -18810760.90648 -14644114.23444  21048725.5944                   21048723.4264
 -14957373.95348 -11644859.30744  21500742.6954                   21500739.2814
 -10302013.35947  -8014058.11343  23133353.1484                   23133351.7424
 -19779373.66848 -15409754.17244  21249308.0944                   21249305.1334
 11  9 24  3 12 30.0000000  0  8G29G22G09G06G15G18G26G21
 -19237441.08248 -14977940.18244  21587849.9224                   21587847.2734
    686454.45347    543322.39043  23687816.9534                   23687813.5984
   2328171.08246   1823498.16052  24093755.2504                   24093752.4104
   4589424.02746   3585543.95853  24407387.5784                   24407384.3834
 -18780847.08648 -14620804.74444  21054417.9694                   21054414.9184
 -14994652.69548 -11673907.63944  21493648.6414                   21493645.4884
 -10217619.79746  -7948296.83642  23149412.1644                   23149410.4104
 -19848971.02748 -15463985.84044  21236064.4614                   21236060.5864
 11  9 24  3 13  0.0000000  0  8G29G22G09G06G15G18G26G21
 -19173865.73448 -14928400.94844  21599947.6174                   21599946.2194
    609338.53947    483231.98043  23673141.8754                   23673137.0784
   2224658.87546   1742839.18053  24074057.0234                   24074052.3754
   4496569.262 6                  24389716.992
 -18750419.03548 -14597094.60644  21060208.1484                   21060205.7664
 -15031747.44148 -11702812.65244  21486590.0554                   21486586.5394
 -10132869.00046  -7882257.30743  23165540.5084                   23165537.6954
 -19918372.36748 -15518064.84044  21222857.6884                   21222854.1994
 11  9 24  3 13 30.0000000  0  8G29G22G09G06G15G18G26G21
 -19109906.83648 -14878562.87244  21612118.4144                   21612118.1024
    532385.23447    423268.69143  23658497.9534                   23658493.5514
   2121221.57046   1662239.09343  24054373.4454                   24054370.9024
   4404058.504 6                  24372113.414
 -18719477.00448 -14572983.89844  21066096.1724                   21066093.7894
 -15068657.23848 -11731573.55144  21479566.2274                   21479562.9494
 -10047762.64846  -7815940.72353  23181734.9924                   23181732.1994
 -19987574.28148 -15571988.36944  21209688.7584                   21209684.6174
 11  9 24  3 14  0.0000000  0  8G29G22G09G06G15G18G26G21
 -19045569.01648 -14828429.50044  21624361.7424                   21624361.3134
    455592.37147    363430.15243  23643884.5234                   23643879.0514
   2017860.83247   1581698.14553  24034705.3524                   24034703.7234
   4311891.777 6                  24354574.336
 -18688025.39848 -14548476.18744  21072081.3754                   21072078.7624
 -15105384.93048 -11760192.50244  21472577.0704                   21472573.4804
  -9962306.37547  -7749351.37142  23197997.5634                   23197994.9304
 -20056576.82448 -15625756.54144  21196558.2344                   21196554.2704
 11  9 24  3 14 30.0000000  0  8G29G22G09G06G15G18G26G21
 -18980853.53548 -14778001.91644  21636676.7114                   21636675.0784
    378960.59047    303716.97643  23629302.0704                   23629297.0664
   1914580.94547   1501220.34653  24015051.4064                   24015049.4064
   4220072.52346   3297738.72653  24337100.5394                   24337101.2934
 -18656064.95748 -14523571.93844  21078163.2974                   21078161.0084
 -15141929.93048 -11788669.12944  21465622.6094                   21465619.6174
  -9876502.04346  -7682490.86742  23214324.9144                   23214323.3014
 -20125376.41448 -15679366.59144  21183465.8284                   21183462.4344
 11  9 24  3 15  0.0000000  0  8G29G22G09G06G15G18G26G21
 -18915763.21148 -14727282.15844  21649063.3834                   21649061.4694
    302489.64147    244129.12643  23614750.1954                   23614746.5824
   1811385.28547   1420808.63343  23995413.7504                   23995410.9614
   4128602.67247   3226463.54742  24319696.0234                   24319693.7774
 -18623597.63348 -14498272.71944  21084341.4144                   21084339.0394
 -15178293.14548 -11817004.06144  21458702.9694                   21458700.2934
  -9790353.43747  -7615362.21542  23230718.1564                   23230716.7464
 -20193971.25848 -15732817.14544  21170412.8754                   21170409.6914
 11  9 24  3 15 30.0000000  0  8G29G22G09G06G15G18G26G21
 -18850299.99248 -14676271.87344  21661520.3204                   21661518.6644
    226179.74247    184667.04243  23600228.6174                   23600225.1994
   1708277.68047   1340464.80553  23975793.3284                   23975792.5704
   4037485.13746   3155462.92652  24302355.7274                   24302352.9804
 -18590624.79748 -14472579.55344  21090616.1094                   21090613.8874
 -15214475.14148 -11845197.82844  21451818.0314                   21451814.5744
  -9703862.79747  -7547966.97153  23247177.2734                   23247175.6454
 -20262358.96548 -15786106.22144  21157399.1254                   21157395.6564
 11  9 24  3 16  0.0000000  0  8G29G22G09G06G15G18G26G21
 -18784466.43048 -14624972.96444  21674047.8444                   21674046.9454
    150030.86747    125330.26143  23585737.6884                   23585734.0984
   1605261.49247   1260192.49143  23956190.2114                   23956187.5904
   3946721.91446   3084738.45153  24285083.9924                   24285078.9064
 -18557148.52348 -14446494.17444  21096986.4384                   21096983.9574
 -15250476.45748 -11873250.80244  21444966.8054                   21444964.0394
  -9617033.62147  -7480307.83242  23263700.1884                   23263699.0554
 -20330537.34848 -15839232.26744  21144425.0314                   21144422.1844
 11  9 24  3 16 30.0000000  0  8G29G22G09G06G15G18G26G21
 -18718265.34848 -14573387.73344  21686645.4304                   21686644.7154
     74041.84847     66118.17143  23571278.0864                   23571271.8874
   1502339.44147   1179993.43852  23936604.2584                   23936601.3954
   3856314.79746   3014291.34442  24267880.8284                   24267878.1954
 -18523171.54348 -14420018.61344  21103452.1174                   21103449.5234
 -15286298.07848 -11901163.73844  21438150.2814                   21438146.8834
  -9529869.34846  -7412387.69542  23280286.9224                   23280285.9734
 -20398504.78948 -15892193.87844  21131490.9694                   21131488.4924
 11  9 24  3 17  0.0000000  0  8G29G22G09G06G15G18G26G21
 -18651701.30947 -14521519.66744  21699312.5314                   21699310.6214
     -1789.25847      7029.02543  23556847.5864                   23556843.0664
   1399513.27747   1099869.18943  23917036.9924                   23917034.8874
   3766264.07047   2944124.92353  24250744.7974                   24250740.4264
 -18488697.74248 -14393155.89044  21110012.0314                   21110009.4884
 -15321942.57448 -11928938.65244  21431367.2504                   21431364.5784
  -9442375.49647  -7344210.65652  23296936.7194                   23296934.4654
 -20466261.00048 -15944990.93144  21118597.5314                   21118595.0594
 11  9 24  3 17 30.0000000  0  8G29G22G09G06G15G18G26G21
 -18584774.91847 -14469369.22544  21712048.0704                   21712047.1724
    -77460.54747    -51935.50443  23542448.1024                   23542442.7274
   1296788.00047   1019823.76253  23897489.3524                   23897488.3364
   3676573.645 6                  24233676.211
 -18453727.39848 -14365906.24444  21116666.4384                   21116664.1604
 -15357408.65648 -11956574.54244  21424618.4614                   21424615.3984
  -9354553.15247  -7275777.34243  23313648.9224                   23313646.8054
 -20533802.22348 -15997620.47744  21105745.3914                   21105742.1644
 11  9 24  3 18  0.0000000  0  8G29G22G09G06G15G18G26G21
 -18517489.83247 -14416939.32844  21724852.1484                   21724851.1994
   -152973.66847   -110776.85243  23528078.0314                   23528073.0234
   1194166.23447    939858.63843  23877960.5704                   23877957.8364
   3587244.84446   2804629.34753  24216678.6644                   24216674.8244
 -18418263.34048 -14338271.94144  21123415.1884                   21123412.9884
 -15392698.28148 -11984072.93844  21417902.9844                   21417899.7194
  -9266406.64147  -7207092.17953  23330422.3754                   23330419.1644
 -20601127.40248 -16050081.63144  21092933.7034                   21092930.1764
 11  9 24  3 18 30.0000000  0  8G29G22G09G06G15G18G26G21
 -18449849.66047 -14364232.72944  21737723.6334                   21737722.4734
   -228329.89147   -169496.00143  23513738.1254                   23513734.3484
   1091650.34447    859976.08143  23858452.4064                   23858450.4924
   3498278.570 6                  24199747.531
 -18382308.99248 -14310255.57344  21130257.0004                   21130254.7854
 -15427813.34448 -12011435.35244  21411220.7584                   21411218.3204
  -9177940.11347  -7138157.03153  23347257.2974                   23347255.9064
 -20668235.46548 -16102373.61544  21080163.2974                   21080160.0984
 11  9 24  3 19  0.0000000  0  8G29G22G09G06G15G18G26G21
 -18381856.44947 -14311251.06344  21750662.3444                   21750660.8714
   -303528.64547   -228092.37343  23499429.1724                   23499424.3984
    989244.15647    780179.28243  23838965.1414                   23838964.2774
   3409677.71947   2666255.47752  24182887.9384                   24182887.2344
 -18345865.44148 -14281857.99745  21137192.3444                   21137190.4264
 -15462753.52748 -12038661.44744  21404571.8834                   21404568.9224
  -9089156.47747  -7068975.12043  23364152.5554                   23364150.9104
 -20735123.46948 -16154494.12644  21067435.1564                   21067431.3204
 11  9 24  3 19 30.0000000  0  8G29G22G09G06G15G18G26G21
 -18313511.27747 -14257995.01344  21763667.9534                   21763666.3444
   -378568.95347   -286565.30043  23485148.9924                   23485144.4614
    886952.91447    700471.73743  23819499.7194                   23819498.1214
   3321446.00047   2597503.38843  24166098.1954                   24166096.7424
 -18308933.32848 -14253079.72444  21144220.4454                   21144217.2424
 -15497517.69148 -12065750.35744  21397956.6024                   21397953.8094
  -9000057.16447  -6999546.89152  23381107.1884                   23381103.7854
 -20801788.10948 -16206440.58344  21054749.2194                   21054745.7034
 11  9 24  3 20  0.0000000  0  8G29G22G09G06G15G18G26G21
 -18244819.11747 -14204468.68143  21776739.1564                   21776737.8674
   -453453.50847   -344916.85043  23470898.9224                   23470893.2194
    784777.24647    620854.40242  23800056.6334                   23800054.4384
   3233582.605 6                  24149377.586
 -18271517.44148 -14223924.46444  21151339.9844                   21151337.9964
 -15532109.66448 -12092705.18844  21391373.7734                   21391370.6764
  -8910648.254 6                  23398120.328
 -20868229.55948 -16258213.14744  21042105.8054                   21042102.8594
 11  9 24  3 20 30.0000000  0  8G29G22G09G06G15G18G26G21
 -18175784.02347 -14150675.18543  21789876.7734                   21789875.5354
   -528183.60947   -403148.14443  23456678.0634                   23456673.0124
    682719.60947    541329.14453  23780636.1484                   23780635.4734
   3146089.08247   2460861.79352  24132729.0634                   24132725.9494
 -18233621.34048 -14194395.03944  21158551.4534                   21158548.1054
 -15566531.18448 -12119527.10244  21384823.7504                   21384820.4494
  -8820933.87946  -6859970.48052  23415192.4614                   23415190.9384
 -20934447.16448 -16309811.29044  21029504.7814                   21029501.5824
 11  9 24  3 21  0.0000000  0  8G29G22G09G06G15G18G26G21
 -18106408.57047 -14096616.35444  21803078.2894                   21803075.8094
   -602760.07047   -461259.58743  23442486.8364                   23442482.2664
    580783.33647    461898.21853  23761237.4144                   23761236.1764
   3058966.93446   2392974.41743  24116149.5784                   24116148.6604
 -18195247.29348 -14164493.18344  21165853.7814                   21165851.6914
 -15600783.04348 -12146216.82344  21378305.8594                   21378302.6024
  -8730917.422 6                  23432322.969
 -21000438.95748 -16361233.42444  21016947.1954                   21016943.8594
 11  9 24  3 21 30.0000000  0  8G29G22G09G06G15G18G26G21
 -18036695.48047 -14042294.42844  21816344.3364                   21816342.4454
   -677183.00847   -519251.43843  23428325.0554                   23428320.2034
    478971.65247    382564.46943  23741863.8134                   23741861.7074
   2972218.24647   2325378.21643  24099641.7114                   24099640.5984
 -18156396.91048 -14134220.18744  21173246.4774                   21173244.5554
 -15634866.05948 -12172775.02644  21371819.9774                   21371816.7664
  -8640602.328 6                  23449508.602
 -21066202.37148 -16412477.63244  21004432.5554                   21004429.3794
 11  9 24  3 22  0.0000000  0  8G29G22G09G06G15G18G26G21
 -17966647.62147 -13987711.74644  21829673.8674                   21829672.1374
   -751452.87147   -577124.07243  23414191.2584                   23414186.1684
    377287.76647    303330.20643  23722513.5394                   23722512.3714
   2885845.02347   2258074.14353  24083205.8914                   24083200.9344
 -18117072.97348 -14103578.10644  21180730.1484                   21180727.2624
 -15668780.70748 -12199201.99044  21365366.2814                   21365363.3284
  -8549991.70746  -6648846.76153  23466751.3674                   23466752.0204
 -21131735.89848 -16463542.74844  20991962.1884                   20991958.1294
 11  9 24  3 22 30.0000000  0  8G29G22G09G06G15G18G26G21
 -17896267.60547 -13932870.17943  21843066.4924                   21843064.8674
   -825569.96947   -634877.53443  23400087.1254                   23400082.9144
    275734.97747    224198.28443  23703188.9614                   23703186.6094
   2799849.090 6                  24066840.977
 -18077277.87148 -14072568.95344  21188302.7424                   21188299.8674
 -15702527.87148 -12225498.49244  21358944.3134                   21358941.0664
  -8459089.12147  -6578012.42553  23484049.6724                   23484054.2384
 -21197037.70748 -16514427.24244  20979535.6024                   20979531.6454
 11  9 24  3 23  0.0000000  0  8G29G22G09G06G15G18G26G21
 -17825557.93747 -13877771.73444  21856522.6024                   21856520.9574
   -899534.71947   -692512.47243  23386011.8524                   23386007.8954
    174317.30147    145171.57343  23683889.5784                   23683888.1454
   2714232.93047   2124351.89753  24050549.4454                   24050546.4494
 -18037013.32848 -14041193.97844  21195964.4224                   21195962.5744
 -15736108.12148 -12251664.87644  21352554.2974                   21352550.8674
  -8367897.16047  -6506952.15253  23501403.4534                   23501404.7544
 -21262104.96548 -16565128.96644  20967153.9224                   20967150.6884
 11  9 24  3 23 30.0000000  0  8G29G22G09G06G15G18G26G21
 -17754521.89547 -13822418.97244  21870039.6954                   21870037.7544
   -973348.01647   -750029.29643  23371966.4224                   23371960.8204
     73037.39147     66252.08853  23664616.6024                   23664616.3014
   2628997.742 6                  24034329.445
 -17996282.45748 -14009455.64344  21203715.1954                   21203712.7114
 -15769523.21548 -12277702.64744  21346195.6254                   21346192.5944
  -8276420.52347  -6435671.53453  23518810.0944                   23518802.5704
 -21326936.55148 -16615647.12544  20954816.6724                   20954813.5664
 11  9 24  3 24  0.0000000  0  8G29G22G09G06G15G18G26G21
 -17683161.96148 -13766813.87344  21883619.4304                   21883617.5314
  -1047009.70747   -807428.07943  23357948.6954                   23357944.4104
    -28101.10947    -12557.54143  23645370.7734                   23645368.9964
   2544145.74646   1991816.37753  24018183.0554                   24018180.6684
 -17955087.12148 -13977355.40544  21211555.0704                   21211552.2624
 -15802773.12148 -12303611.62944  21339868.2344                   21339865.5904
  -8184661.85547  -6364171.17954  23536272.1094                   23536272.0824
 -21391529.90248 -16665979.61344  20942524.8754                   20942521.4884
 11  9 24  3 24 30.0000000  0  8G29G22G09G06G15G18G26G21
 -17611482.35247 -13710959.61543  21897259.5394                   21897257.6454
  -1120521.62547   -864710.03043  23343959.3134                   23343954.8054
   -129095.98847    -91254.51343  23626152.6334                   23626149.9924
   2459677.89147   1925997.29343  24002109.5864                   24002107.2734
 -17913430.92648 -13944896.00944  21219482.0474                   21219479.5904
 -15835859.71948 -12329393.43644  21333572.2114                   21333568.8404
  -8092625.30147  -6292454.37952  23553785.9304                   23553782.7624
 -21455884.21948 -16716125.80644  20930278.5004                   20930275.2274
 11  9 24  3 25  0.0000000  0  8G29G22G09G06G15G18G26G21
 -17539487.18447 -13654859.49543  21910959.7814                   21910957.8634
  -1193885.68047   -921876.64643  23329998.6414                   23329994.1644
   -229945.49247   -169838.37043  23606961.0944                   23606958.5784
   2375594.133 6                  23986108.297
 -17871317.76248 -13912080.57944  21227495.5944                   21227493.0824
 -15868785.47748 -12355049.83744  21327306.6804                   21327303.4924
  -8000316.28547  -6220525.33953  23571351.7034                   23571347.1414
 -21519999.24648 -16766085.59744  20918077.8364                   20918074.6214
 11  9 24  3 25 30.0000000  0  8G29G22G09G06G15G18G26G21
 -17467181.03547 -13598517.08243  21924719.3054                   21924717.7774
  -1267104.12547   -978929.89743  23316066.2734                   23316061.5904
   -330648.11747   -248307.85553  23587798.2194                   23587795.2274
   2291894.85546   1795257.31553  23970180.5864                   23970177.1374
 -17828751.86347 -13878912.34544  21235595.6954                   21235592.9224
 -15901553.13747 -12380583.05844  21321071.2814                   21321068.5904
  -7907739.42247  -6148387.43752  23588968.5314                   23588965.5784
 -21583874.69548 -16815858.62744  20905922.8914                   20905919.5514
 11  9 24  3 26  0.0000000  0  8G29G22G09G06G15G18G26G21
 -17394565.00847 -13541933.06743  21938537.7424                   21938536.0554
  -1340175.80547  -1035868.94843  23302161.5164                   23302156.6054
   -431198.84447   -326659.13853  23568663.7504                   23568661.5124
   2208583.60946   1730339.15343  23954326.4614                   23954324.5904
 -17785733.90248 -13845391.89244  21243781.5004                   21243779.5594
 -15934161.50848 -12405992.17644  21314866.0164                   21314862.6334
  -7814896.53146  -6076041.35653  23606635.8444                   23606635.8014
 -21647506.69948 -16865441.98544  20893814.0554                   20893810.8594
 11  9 24  3 26 30.0000000  0  8G29G22G09G06G15G18G26G21
 -17321645.04347 -13485112.44243  21952413.5944                   21952411.4064
  -1413104.00447  -1092696.11543  23288282.8204                   23288279.0984
   -531597.40647   -404891.68843  23549558.4694                   23549557.0124
   2125659.31346   1665722.84243  23938547.0784                   23938545.0204
 -17742269.21148 -13811523.28044  21252052.6094                   21252050.2774
 -15966614.40247 -12431280.08844  21308690.3054                   21308687.4144
  -7721794.07046  -6003494.04143  23624352.6644                   23624352.3444
 -21710896.29748 -16914836.46444  20881751.6804                   20881748.0354
 11  9 24  3 27  0.0000000  0  8G29G22G09G06G15G18G26G21
 -17248423.06247 -13428056.31443  21966347.5084                   21966345.4454
  -1485887.68747  -1149410.72343  23274432.6414                   23274426.9774
   -631839.38747   -483002.31943  23530482.9924                   23530480.3364
   2043124.71547   1601410.49252  23922842.0784                   23922837.5164
 -17698359.29347 -13777307.73744  21260408.2734                   21260405.7234
 -15998911.63748 -12456446.80444  21302544.1254                   21302540.9844
  -7628434.29746  -5930746.22352  23642117.7664                   23642112.9534
 -21774040.49648 -16964039.72644  20869735.4844                   20869732.0744
 11  9 24  3 27 30.0000000  0  9G29G22G09G06G15G18G14G26G21
 -17174903.66447 -13370768.51743  21980337.8914                   21980336.1994
  -1558530.14547  -1206015.22143  23260608.9694                   23260604.0634
   -731923.40647   -560989.83143  23511437.3524                   23511435.5004
   1960979.65246   1537401.19443  23907209.8914                   23907206.8914
 -17654008.50848 -13742748.69244  21268848.1334                   21268845.4224
 -16031056.31648 -12481494.57144  21296427.4384                   21296424.2814
   7695972.63716                  24552850.883
  -7534822.359 6                  23659932.344
 -21836939.33248 -17013051.83344  20857766.3364                   20857762.3914
